[[{"header":{"parameterUnit":"m.s-1","parameterCategory":1,"la1":30.6,"la2":28.766,"lo1":-90.7593,"lo2":-88.6598,"dy":0.0162,"dx":0.0183,"nx":116,"ny":114,"refTime":"2023-08-19T06:00:00:Z","depth":0,"parameterNumber":2,"parameterNumberName":"U-component_of_WINDS"},"data":[0.0,0.0,0.0,0.0,0.0,0.0,0.0,0.0,0.0,0.0,0.0,0.0,0.0,0.0,0.0,0.0,0.0,0.0,0.0,0.0,0.0,0.0,0.0,0.0,0.0,0.0,0.0,0.0,0.0,0.0,0.0,0.0,0.0,0.0,0.0,0.0,0.0,0.0,0.0,0.0,0.0,0.0,0.0,0.0,0.0,0.0,0.0,0.0,0.0,0.0,0.0,0.0,0.0,0.0,0.0,0.0,0.0,0.0,0.0,0.0,0.0,0.0,0.0,0.0,0.0,0.0,0.0,0.0,0.0,0.0,0.0,0.0,0.0,0.0,0.0,0.0,0.0,0.0,0.0,0.0,0.0,0.0,0.0,0.0,0.0,0.0,0.0,0.0,0.0,0.0,0.0,0.0,0.0,0.0,0.0,0.0,0.0,0.0,0.0,0.0,0.0,0.0,0.0,0.0,0.0,0.0,0.0,0.0,0.0,0.0,0.0,0.0,0.0,0.0,0.0,0.0,0.0,0.0,0.0,0.0,0.0,0.0,0.0,0.0,0.0,0.0,0.0,0.0,0.0,0.0,0.0,0.0,0.0,0.0,0.0,0.0,0.0,0.0,0.0,0.0,0.0,0.0,0.0,0.0,0.0,0.0,0.0,0.0,0.0,0.0,0.0,0.0,0.0,0.0,0.0,0.0,0.0,0.0,0.0,0.0,0.0,0.0,0.0,0.0,0.0,0.0,0.0,0.0,0.0,0.0,0.0,0.0,0.0,0.0,0.0,0.0,0.0,0.0,0.0,0.0,0.0,0.0,0.0,0.0,0.0,0.0,0.0,0.0,0.0,0.0,0.0,0.0,0.0,0.0,0.0,0.0,0.0,0.0,0.0,0.0,0.0,0.0,0.0,0.0,0.0,0.0,0.0,0.0,0.0,0.0,0.0,0.0,0.0,0.0,0.0,0.0,0.0,0.0,0.0,0.0,0.0,0.0,0.0,0.0,0.0,0.0,0.0,0.0,0.0,0.0,0.0,0.0,0.0,0.0,0.0,0.0,0.0,0.0,0.0,0.0,0.0,0.0,0.0,0.0,0.0,0.0,0.0,0.0,0.0,0.0,0.0,0.0,0.0,0.0,0.0,0.0,0.0,0.0,0.0,0.0,0.0,0.0,0.0,0.0,0.0,0.0,0.0,0.0,0.0,0.0,0.0,0.0,0.0,0.0,0.0,0.0,0.0,0.0,0.0,0.0,0.0,0.0,0.0,0.0,0.0,0.0,0.0,0.0,0.0,0.0,0.0,0.0,0.0,0.0,0.0,0.0,0.0,0.0,0.0,0.0,0.0,0.0,0.0,0.0,0.0,0.0,0.0,0.0,0.0,0.0,0.0,0.0,0.0,0.0,0.0,0.0,0.0,0.0,0.0,0.0,0.0,0.0,0.0,0.0,0.0,0.0,0.0,0.0,0.0,0.0,0.0,0.0,0.0,0.0,0.0,0.0,0.0,0.0,0.0,0.0,0.0,0.0,0.0,0.0,0.0,0.0,0.0,0.0,0.0,0.0,0.0,0.0,0.0,0.0,0.0,0.0,0.0,0.0,0.0,0.0,0.0,0.0,0.0,0.0,0.0,0.0,0.0,0.0,0.0,0.0,0.0,0.0,0.0,0.0,0.0,0.0,0.0,0.0,0.0,0.0,0.0,0.0,0.0,0.0,0.0,0.0,0.0,0.0,0.0,0.0,0.0,0.0,0.0,0.0,0.0,0.0,0.0,0.0,0.0,0.0,0.0,0.0,0.0,0.0,0.0,0.0,0.0,0.0,0.0,0.0,0.0,0.0,0.0,0.0,0.0,0.0,0.0,0.0,0.0,0.0,0.0,0.0,0.0,0.0,0.0,0.0,0.0,0.0,0.0,0.0,0.0,0.0,0.0,0.0,0.0,0.0,0.0,0.0,0.0,0.0,0.0,0.0,0.0,0.0,0.0,0.0,0.0,0.0,0.0,0.0,0.0,0.0,0.0,0.0,0.0,0.0,0.0,0.0,0.0,0.0,0.0,0.0,0.0,0.0,0.0,0.0,0.0,0.0,0.0,0.0,0.0,0.0,0.0,0.0,0.0,0.0,0.0,0.0,0.0,0.0,0.0,0.0,0.0,0.0,0.0,0.0,0.0,0.0,0.0,0.0,0.0,0.0,0.0,0.0,0.0,0.0,0.0,0.0,0.0,0.0,0.0,0.0,0.0,0.0,0.0,0.0,0.0,0.0,0.0,0.0,0.0,0.0,0.0,0.0,0.0,0.0,0.0,0.0,0.0,0.0,0.0,0.0,0.0,0.0,0.0,0.0,0.0,0.0,0.0,0.0,0.0,0.0,0.0,0.0,0.0,0.0,0.0,0.0,0.0,0.0,0.0,0.0,0.0,0.0,0.0,0.0,0.0,0.0,0.0,0.0,0.0,0.0,0.0,0.0,0.0,0.0,0.0,0.0,0.0,0.0,0.0,0.0,0.0,0.0,0.0,0.0,0.0,0.0,0.0,0.0,0.0,0.0,0.0,0.0,0.0,0.0,0.0,0.0,0.0,0.0,0.0,0.0,0.0,0.0,0.0,0.0,0.0,0.0,0.0,0.0,0.0,0.0,0.0,0.0,0.0,0.0,0.0,0.0,0.0,0.0,0.0,0.0,0.0,0.0,0.0,0.0,0.0,0.0,0.0,0.0,0.0,0.0,0.0,0.0,0.0,0.0,0.0,0.0,0.0,0.0,0.0,0.0,0.0,0.0,0.0,0.0,0.0,0.0,0.0,0.0,0.0,0.0,0.0,0.0,0.0,0.0,0.0,0.0,0.0,0.0,0.0,0.0,0.0,0.0,0.0,0.0,0.0,0.0,0.0,0.0,0.0,0.0,0.0,0.0,0.0,0.0,0.0,0.0,0.0,0.0,0.0,0.0,0.0,0.0,0.0,0.0,0.0,0.0,0.0,0.0,0.0,0.0,0.0,0.0,0.0,0.0,0.0,0.0,0.0,0.0,0.0,0.0,0.0,0.0,0.0,0.0,0.0,0.0,0.0,0.0,0.0,0.0,0.0,0.0,0.0,0.0,0.0,0.0,0.0,0.0,0.0,0.0,0.0,0.0,0.0,0.0,0.0,0.0,0.0,0.0,0.0,0.0,0.0,0.0,0.0,0.0,0.0,0.0,0.0,0.0,0.0,0.0,0.0,0.0,0.0,0.0,0.0,0.0,0.0,0.0,0.0,0.0,0.0,0.0,0.0,0.0,0.0,0.0,0.0,0.0,0.0,0.0,0.0,0.0,0.0,0.0,0.0,0.0,0.0,0.0,0.0,0.0,0.0,0.0,0.0,0.0,0.0,0.0,0.0,0.0,0.0,0.0,0.0,0.0,0.0,0.0,0.0,0.0,0.0,0.0,0.0,0.0,0.0,0.0,0.0,0.0,0.0,0.0,0.0,0.0,0.0,0.0,0.0,0.0,0.0,0.0,0.0,0.0,0.0,0.0,0.0,0.0,0.0,0.0,0.0,0.0,0.0,0.0,0.0,0.0,0.0,0.0,0.0,0.0,0.0,0.0,0.0,0.0,0.0,0.0,0.0,0.0,0.0,0.0,0.0,0.0,0.0,0.0,0.0,0.0,0.0,0.0,0.0,0.0,0.0,0.0,0.0,0.0,0.0,0.0,0.0,0.0,0.0,0.0,0.0,0.0,0.0,0.0,0.0,0.0,0.0,0.0,0.0,0.0,0.0,0.0,0.0,0.0,0.0,0.0,0.0,0.0,0.0,0.0,0.0,0.0,0.0,0.0,0.0,0.0,0.0,0.0,0.0,0.0,0.0,0.0,0.0,0.0,0.0,0.0,0.0,0.0,0.0,0.0,0.0,0.0,0.0,0.0,0.0,0.0,0.0,0.0,0.0,0.0,0.0,0.0,0.0,0.0,0.0,0.0,0.0,0.0,0.0,0.0,0.0,0.0,0.0,0.0,0.0,0.0,0.0,0.0,0.0,0.0,0.0,0.0,0.0,0.0,0.0,0.0,0.0,0.0,0.0,0.0,0.0,0.0,0.0,0.0,0.0,0.0,0.0,0.0,0.0,0.0,0.0,0.0,0.0,0.0,0.0,0.0,0.0,0.0,0.0,0.0,0.0,0.0,0.0,0.0,0.0,0.0,0.0,0.0,0.0,0.0,0.0,0.0,0.0,0.0,0.0,0.0,0.0,0.0,0.0,0.0,0.0,0.0,0.0,0.0,0.0,0.0,0.0,0.0,0.0,0.0,0.0,0.0,0.0,0.0,0.0,0.0,0.0,0.0,0.0,0.0,0.0,0.0,0.0,0.0,0.0,0.0,0.0,0.0,0.0,0.0,0.0,0.0,0.0,0.0,0.0,0.0,0.0,0.0,0.0,0.0,0.0,0.0,0.0,0.0,0.0,0.0,0.0,0.0,0.0,0.0,0.0,0.0,0.0,0.0,0.0,0.0,0.0,0.0,0.0,0.0,0.0,0.0,0.0,0.0,0.0,0.0,0.0,0.0,0.0,0.0,0.0,0.0,0.0,0.0,0.0,0.0,0.0,0.0,0.0,0.0,0.0,0.0,0.0,0.0,0.0,0.0,0.0,0.0,0.0,0.0,0.0,0.0,0.0,0.0,0.0,0.0,0.0,0.0,0.0,0.0,0.0,0.0,0.0,0.0,0.0,0.0,0.0,0.0,0.0,0.0,0.0,0.0,0.0,0.0,0.0,0.0,0.0,0.0,0.0,0.0,0.0,0.0,0.0,0.0,0.0,0.0,0.0,0.0,0.0,0.0,0.0,0.0,0.0,0.0,0.0,0.0,0.0,0.0,0.0,0.0,0.0,0.0,0.0,0.0,0.0,0.0,0.0,0.0,0.0,0.0,0.0,0.0,0.0,0.0,0.0,0.0,0.0,0.0,0.0,0.0,0.0,0.0,0.0,0.0,0.0,0.0,0.0,0.0,0.0,0.0,0.0,0.0,0.0,0.0,0.0,0.0,0.0,0.0,0.0,0.0,0.0,0.0,0.0,0.0,0.0,0.0,0.0,0.0,0.0,0.0,0.0,0.0,0.0,0.0,0.0,0.0,0.0,0.0,0.0,0.0,0.0,0.0,0.0,0.0,0.0,0.0,0.0,0.0,0.0,0.0,0.0,0.0,0.0,0.0,0.0,0.0,0.0,0.0,0.0,0.0,0.0,0.0,0.0,0.0,0.0,0.0,0.0,0.0,0.0,0.0,0.0,0.0,0.0,0.0,0.0,0.0,0.0,0.0,0.0,0.0,0.0,0.0,0.0,0.0,0.0,0.0,0.0,0.0,0.0,0.0,0.0,0.0,0.0,0.0,0.0,0.0,0.0,0.0,0.0,0.0,0.0,0.0,0.0,0.0,0.0,0.0,0.0,0.0,0.0,0.0,0.0,0.0,0.0,0.0,0.0,0.0,0.0,0.0,0.0,0.0,0.0,0.0,0.0,0.0,0.0,0.0,0.0,0.0,0.0,0.0,0.0,0.0,0.0,0.0,0.0,0.0,0.0,0.0,0.0,0.0,0.0,0.0,0.0,0.0,0.0,0.0,0.0,0.0,0.0,0.0,0.0,0.0,0.0,0.0,0.0,0.0,0.0,0.0,0.0,0.0,0.0,0.0,0.0,0.0,0.0,0.0,0.0,0.0,0.0,0.0,0.0,0.0,0.0,0.0,0.0,0.0,0.0,0.0,0.0,0.0,0.0,0.0,0.0,0.0,0.0,0.0,0.0,0.0,0.0,0.0,0.0,0.0,0.0,0.0,0.0,0.0,0.0,0.0,0.0,0.0,0.0,0.0,0.0,0.0,0.0,0.0,0.0,0.0,0.0,0.0,0.0,0.0,0.0,0.0,0.0,0.0,0.0,0.0,0.0,0.0,0.0,0.0,0.0,0.0,0.0,0.0,0.0,0.0,0.0,0.0,0.0,0.0,0.0,0.0,0.0,0.0,0.0,0.0,0.0,0.0,0.0,0.0,0.0,0.0,0.0,0.0,0.0,0.0,0.0,0.0,0.0,0.0,0.0,0.0,0.0,0.0,0.0,0.0,0.0,0.0,0.0,0.0,0.0,0.0,0.0,0.0,-2.7148,0.0,0.0,0.0,0.0,0.0,0.0,0.0,0.0,0.0,0.0,0.0,0.0,0.0,0.0,0.0,0.0,0.0,0.0,0.0,0.0,0.0,0.0,0.0,0.0,0.0,0.0,0.0,0.0,0.0,0.0,0.0,0.0,0.0,0.0,0.0,0.0,0.0,0.0,0.0,-1.6697,-1.6607,-1.7049,-1.7965,-1.8727,-1.9362,0.0,0.0,0.0,0.0,0.0,0.0,0.0,0.0,0.0,0.0,0.0,0.0,0.0,0.0,0.0,0.0,0.0,0.0,0.0,0.0,0.0,0.0,0.0,0.0,0.0,0.0,0.0,0.0,0.0,0.0,0.0,0.0,0.0,0.0,0.0,0.0,0.0,0.0,0.0,0.0,0.0,0.0,0.0,0.0,0.0,0.0,0.0,0.0,0.0,0.0,0.0,0.0,0.0,0.0,0.0,0.0,0.0,0.0,0.0,0.0,0.0,0.0,0.0,0.0,0.0,0.0,0.0,0.0,0.0,0.0,0.0,-2.6744,0.0,0.0,0.0,0.0,0.0,0.0,0.0,0.0,0.0,0.0,0.0,0.0,0.0,0.0,0.0,0.0,0.0,0.0,0.0,0.0,0.0,0.0,0.0,0.0,0.0,0.0,0.0,0.0,0.0,0.0,0.0,0.0,0.0,0.0,0.0,-1.6525,-1.6615,-1.6689,-1.6615,-1.6771,-1.7074,-1.7553,-1.7755,-1.7836,-1.8807,0.0,0.0,0.0,0.0,0.0,0.0,0.0,0.0,0.0,0.0,0.0,0.0,0.0,0.0,0.0,0.0,0.0,0.0,0.0,0.0,0.0,0.0,0.0,0.0,0.0,0.0,0.0,0.0,0.0,0.0,0.0,0.0,0.0,0.0,0.0,0.0,0.0,0.0,0.0,0.0,0.0,0.0,0.0,0.0,0.0,0.0,0.0,0.0,0.0,0.0,0.0,0.0,0.0,0.0,0.0,0.0,0.0,0.0,0.0,0.0,0.0,0.0,0.0,-2.3885,-2.4176,-2.4293,-2.4293,-2.4095,-2.3754,-2.4804,-2.5413,-2.5697,0.0,0.0,0.0,0.0,0.0,0.0,0.0,0.0,0.0,0.0,0.0,0.0,0.0,0.0,0.0,0.0,0.0,0.0,0.0,0.0,0.0,0.0,-1.291,-1.319,-1.3854,-1.4004,-1.4334,0.0,0.0,0.0,0.0,0.0,0.0,-1.5311,-1.5865,-1.6368,-1.6689,-1.6368,-1.6004,-1.5673,-1.6501,-1.6862,-1.6935,-1.8399,-1.9529,-2.0303,0.0,0.0,0.0,0.0,0.0,0.0,0.0,0.0,0.0,0.0,0.0,0.0,0.0,0.0,0.0,0.0,0.0,0.0,0.0,0.0,0.0,0.0,0.0,0.0,0.0,0.0,0.0,0.0,0.0,0.0,0.0,0.0,0.0,0.0,0.0,0.0,0.0,0.0,0.0,0.0,0.0,-1.8711,-1.9899,0.0,0.0,0.0,0.0,0.0,0.0,0.0,0.0,0.0,0.0,0.0,0.0,0.0,-2.4029,-2.392,-2.2578,-2.1919,-2.1879,-2.0632,-2.0429,-2.1132,-2.1132,-2.1478,-2.2115,-2.2292,0.0,-2.4422,-2.5113,0.0,0.0,0.0,0.0,0.0,0.0,0.0,0.0,0.0,0.0,0.0,0.0,0.0,0.0,0.0,0.0,0.0,0.0,0.0,0.0,0.0,-1.2462,-1.2953,-1.3238,-1.3286,-1.3369,-1.3566,0.0,0.0,0.0,0.0,-1.3998,-1.4146,-1.4447,-1.4817,-1.5228,-1.5193,-1.5117,-1.5041,-1.5567,-1.5974,-1.6329,-1.6903,-1.8037,-1.9529,-1.9292,0.0,0.0,0.0,0.0,0.0,0.0,0.0,0.0,0.0,0.0,0.0,0.0,0.0,0.0,0.0,0.0,0.0,0.0,0.0,0.0,0.0,0.0,0.0,0.0,0.0,0.0,0.0,0.0,0.0,0.0,0.0,0.0,0.0,0.0,0.0,0.0,0.0,0.0,0.0,-1.9393,-1.9162,-1.9554,-1.9689,-2.0053,0.0,0.0,0.0,0.0,0.0,0.0,0.0,0.0,0.0,-2.2169,-2.2169,-2.1895,-2.1303,-2.0661,-2.0297,-2.0297,-2.0087,-2.0157,-2.0498,-2.0498,-2.0692,-2.1078,-2.1078,-2.1458,-2.2143,-2.3075,-2.3526,-2.3702,0.0,0.0,0.0,0.0,-2.3526,-2.3305,0.0,0.0,0.0,0.0,0.0,0.0,0.0,0.0,0.0,0.0,0.0,0.0,-1.0627,-1.1321,-1.1868,-1.2073,-1.2068,-1.2126,-1.2194,-1.2167,0.0,0.0,-1.2543,-1.2768,-1.3143,-1.3173,-1.3336,-1.3578,-1.3964,-1.4223,-1.4391,-1.4783,-1.5235,-1.567,-1.5477,-1.6535,-1.851,-1.8479,-1.8838,-1.9529,0.0,0.0,0.0,0.0,0.0,0.0,0.0,0.0,0.0,0.0,0.0,0.0,0.0,0.0,0.0,0.0,0.0,0.0,0.0,0.0,0.0,0.0,0.0,0.0,0.0,0.0,0.0,0.0,0.0,0.0,0.0,0.0,0.0,0.0,0.0,0.0,0.0,-1.8921,-1.8828,-1.9005,-1.8778,-1.9064,0.0,0.0,0.0,0.0,0.0,0.0,-2.0721,-2.1288,-2.125,-2.045,-2.0421,-2.007,-1.9301,-1.9301,-1.9301,-1.9301,-1.9923,-2.0187,-2.0187,-2.0187,-2.0187,-2.0187,-2.0187,-2.0187,-2.0265,-2.1469,-2.1962,-2.2065,-2.2776,-2.311,-2.3147,-2.2802,-2.2627,-2.2376,0.0,0.0,0.0,0.0,0.0,0.0,0.0,0.0,0.0,0.0,0.0,-0.812,-0.9197,-0.9099,-0.93,-1.0047,-1.0145,-1.056,-1.1572,-1.145,-1.145,-1.1754,-1.2169,-1.2418,-1.2448,-1.2644,-1.2547,-1.2114,-1.3021,-1.3451,-1.3493,-1.4307,-1.4734,-1.4776,-1.4566,-1.5455,-1.7123,-1.7787,-1.8149,-1.8461,-1.9301,0.0,0.0,0.0,0.0,0.0,0.0,0.0,0.0,0.0,0.0,0.0,0.0,0.0,0.0,0.0,0.0,0.0,0.0,0.0,0.0,0.0,0.0,0.0,0.0,0.0,0.0,0.0,0.0,0.0,0.0,0.0,0.0,0.0,0.0,0.0,0.0,0.0,0.0,-1.7895,-1.6763,0.0,0.0,0.0,0.0,-1.9824,-1.9942,-1.9863,-1.9676,-1.9715,-1.9627,-1.9381,-1.9381,-1.9341,-1.9301,-1.9301,-1.9301,-1.9301,-1.9341,-1.9381,-1.9381,-1.9381,-1.9381,-1.9381,-1.9381,-1.9381,-1.9499,-2.1145,-2.1897,-2.1989,-2.1849,-2.2027,-2.2215,-2.0846,-2.0459,-2.0498,0.0,0.0,0.0,0.0,0.0,0.0,0.0,0.0,0.0,-0.6637,-0.708,-0.7471,-0.7865,-0.8456,-0.8905,-0.9201,-0.9251,-0.9279,-0.9468,-1.0129,-1.0491,-1.0367,-1.1207,-1.1553,-1.1241,-1.1063,-1.1015,-1.1101,-1.1617,-1.1918,-1.2089,-1.3105,-1.3542,-1.3421,-1.399,-1.4531,-1.5186,-1.6,-1.6698,-1.7374,-1.8359,-1.8798,0.0,0.0,0.0,0.0,0.0,0.0,0.0,0.0,0.0,0.0,0.0,0.0,0.0,0.0,0.0,0.0,0.0,0.0,0.0,0.0,0.0,0.0,0.0,0.0,0.0,0.0,0.0,0.0,0.0,0.0,0.0,0.0,0.0,0.0,0.0,0.0,0.0,-1.7025,-1.6322,0.0,-1.7594,-1.8149,-1.847,-1.8647,-1.9213,-1.946,-1.9429,-1.9429,-1.939,-1.9301,-1.9301,-1.9301,-1.9301,-1.9301,-1.9301,-1.9301,-1.9301,-1.9301,-1.9301,-1.9152,-1.9112,-1.9112,-1.8962,-1.8922,-1.8962,-1.9539,-1.9923,-2.0138,-2.0721,-2.0942,-2.0884,-2.0518,-2.045,-2.0372,0.0,0.0,0.0,0.0,0.0,0.0,0.0,0.0,0.0,-0.5789,-0.6234,-0.6528,-0.6528,-0.7074,-0.7568,-0.7819,-0.7869,-0.7892,-0.8016,-0.9157,-0.9681,-0.9384,-1.0337,-1.0646,-1.0164,-0.9907,-0.982,-0.9903,-1.0381,-1.0679,-1.0852,-1.1912,-1.2345,-1.2229,-1.2875,-1.3307,-1.3652,-1.4223,-1.5171,-1.6329,-1.7374,-1.7779,-1.7819,0.0,0.0,0.0,0.0,0.0,0.0,0.0,0.0,0.0,0.0,0.0,0.0,0.0,0.0,0.0,0.0,0.0,0.0,0.0,0.0,0.0,0.0,0.0,0.0,0.0,0.0,0.0,0.0,0.0,0.0,0.0,0.0,0.0,0.0,0.0,-1.5718,-1.6617,-1.5794,-1.5587,-1.6617,-1.709,-1.7374,-1.7553,-1.8367,-1.8856,-1.8856,-1.9134,-1.9301,-1.9301,-1.9301,-1.9262,-1.9192,-1.9192,-1.9152,-1.9112,-1.9112,-1.9112,-1.9073,-1.8962,-1.8891,-1.8882,-1.8772,-1.87,-1.87,-1.87,-1.8732,-1.8873,-1.9529,-1.9756,-1.9678,-1.9678,-1.9717,-1.9726,0.0,0.0,0.0,0.0,0.0,0.0,0.0,-0.3528,-0.4029,-0.5334,-0.5288,-0.514,-0.514,-0.4937,-0.5135,-0.5892,-0.5942,-0.6385,-0.7365,-0.8555,-0.9088,-0.8863,-0.955,-0.9689,-0.9257,-0.9213,-0.8999,-0.8564,-0.9428,-0.9859,-0.9859,-1.0809,-1.1278,-1.1278,-1.1278,-1.18,-1.2662,-1.2656,-1.3669,-1.5345,-1.6288,-1.6657,-1.6657,0.0,0.0,0.0,0.0,0.0,0.0,0.0,0.0,0.0,0.0,0.0,0.0,0.0,0.0,0.0,0.0,0.0,0.0,0.0,0.0,0.0,0.0,0.0,0.0,0.0,0.0,0.0,0.0,0.0,0.0,0.0,0.0,0.0,-1.5351,-1.5374,-1.5692,-1.655,-1.5117,-1.4741,-1.6453,-1.5842,-1.5718,-1.6568,-1.7464,-1.7957,-1.7957,-1.8727,-1.9213,-1.9213,-1.9192,-1.9121,-1.894,-1.8949,-1.8878,-1.8696,-1.8736,-1.8736,-1.8696,-1.8696,-1.8656,-1.8647,-1.8615,-1.8615,-1.8615,-1.8615,-1.8526,-1.8348,-1.8411,-1.8531,-1.858,-1.8129,-1.8138,-1.8348,0.0,0.0,0.0,0.0,0.0,0.0,0.0,-0.2287,-0.2367,-0.2918,-0.3423,-0.3728,-0.3728,-0.4381,-0.4885,-0.5135,-0.5135,-0.5203,-0.5386,-0.6491,-0.7428,-0.8053,-0.7958,-0.783,-0.7702,-0.7353,-0.7401,-0.7801,-0.8061,-0.8416,-0.8999,-0.9859,-1.0289,-1.0289,-1.0842,-1.1225,-1.1434,-1.1262,-1.1472,-1.2145,-1.4733,-1.576,-1.5801,0.0,0.0,0.0,0.0,0.0,0.0,0.0,0.0,0.0,0.0,0.0,0.0,0.0,0.0,0.0,0.0,0.0,0.0,0.0,0.0,0.0,0.0,0.0,0.0,0.0,0.0,0.0,0.0,0.0,0.0,0.0,0.0,-1.459,-1.5045,-1.4913,-1.4862,-1.507,-1.4329,-1.399,-1.4475,-1.4754,-1.4998,-1.524,-1.606,-1.6544,-1.6544,-1.6789,-1.6911,-1.6911,-1.7087,-1.7189,-1.7106,-1.8045,-1.8448,-1.8405,-1.9148,-1.9106,-1.8405,-1.827,-1.7786,-1.7095,-1.6938,-1.6903,-1.6903,-1.6903,-1.6852,-1.6935,-1.8164,-1.8152,-1.7481,-1.7689,-1.7568,-1.7192,0.0,0.0,0.0,0.0,0.0,0.0,0.0,-0.102,-0.1159,-0.1763,-0.2216,-0.2519,-0.2519,-0.3073,-0.3626,-0.4079,-0.41,-0.4228,-0.4581,-0.5425,-0.64,-0.7474,-0.7034,-0.682,-0.682,-0.6558,-0.6605,-0.7048,-0.7048,-0.718,-0.7401,-0.7918,-0.8042,-0.7866,-0.8289,-0.8717,-0.9061,-0.8887,-0.9283,-1.0202,-1.2031,-1.3026,-1.3425,-1.3827,-1.403,-1.4197,-1.4705,-1.4712,-1.4817,-1.6457,0.0,0.0,0.0,0.0,0.0,0.0,0.0,0.0,0.0,0.0,0.0,0.0,0.0,0.0,0.0,0.0,0.0,0.0,0.0,0.0,0.0,0.0,0.0,0.0,-1.3734,-1.4025,-1.4343,-1.4379,-1.4356,-1.4356,-1.4119,-1.3928,-1.3928,-1.4144,-1.4314,-1.4314,-1.502,-1.5474,-1.5474,-1.5797,-1.6003,-1.6003,-1.616,-1.6183,-1.6114,-1.6853,-1.7175,-1.7098,-1.7699,-1.7657,-1.709,-1.6962,-1.6571,0.0,-1.5943,-1.5857,-1.5857,-1.5857,-1.5857,0.0,0.0,0.0,0.0,0.0,-1.6695,-1.6349,0.0,0.0,0.0,0.0,0.0,0.0,0.0,0.0205,-0.0152,-0.1109,-0.1361,-0.1412,-0.1412,-0.1513,-0.1966,-0.2922,-0.297,-0.33,-0.4182,-0.463,-0.5329,-0.6322,-0.5974,-0.5802,-0.5894,-0.5894,-0.5938,-0.6118,-0.6118,-0.5935,-0.5617,-0.5617,-0.5395,-0.4996,-0.4954,-0.5432,-0.6213,-0.6166,-0.7129,-0.8665,-0.8665,-0.9417,-1.0611,-1.0567,-1.0567,-1.0778,-1.2347,-1.245,-1.2252,-1.5284,0.0,0.0,0.0,0.0,0.0,0.0,0.0,0.0,0.0,0.0,0.0,0.0,0.0,0.0,0.0,0.0,0.0,0.0,0.0,0.0,0.0,0.0,0.0,0.0,-1.2635,-1.3221,-1.3221,-1.3608,-1.3956,-1.421,-1.4224,-1.416,-1.416,-1.3894,-1.3717,-1.3717,-1.4208,-1.4455,-1.4455,0.0,0.0,0.0,0.0,-1.5575,-1.5423,-1.5543,-1.5531,-1.5378,-1.5462,-1.5455,-1.5336,-1.5336,-1.5294,-1.521,-1.521,-1.521,-1.521,-1.521,-1.521,-1.5253,-1.5734,-1.5986,-1.5942,-1.5626,-1.5505,0.0,0.0,0.0,0.0,0.0,0.0,0.0,0.0,0.1358,0.1284,0.1012,0.0252,-0.0302,-0.0302,-0.1058,-0.1663,-0.1915,-0.1932,-0.193,-0.1861,-0.1843,-0.1865,-0.192,-0.1831,-0.21,-0.2683,-0.2683,-0.3264,-0.4383,-0.4383,-0.4648,-0.5129,-0.5129,-0.5087,-0.4996,-0.4779,-0.4779,-0.4952,-0.4772,-0.4903,-0.5257,-0.5257,-0.7406,-1.0567,-1.0443,-1.0443,-1.0611,-1.0562,-1.0611,-1.0738,-1.152,-1.1774,-1.1893,-1.2521,-1.2895,0.0,0.0,0.0,0.0,0.0,0.0,0.0,0.0,0.0,0.0,0.0,0.0,0.0,0.0,0.0,0.0,0.0,0.0,0.0,-1.1707,-1.1658,-1.1658,-1.1658,-1.1734,-1.248,-1.4275,-1.4201,-1.3979,-1.3979,-1.3501,-1.3253,-1.3253,-1.3157,-1.3082,-1.3082,-1.3245,0.0,-1.3324,-1.3558,-1.3635,-1.3598,-1.4599,-1.5109,-1.5072,0.0,0.0,-1.5072,-1.5072,-1.4637,-1.3887,-1.3887,-1.3887,-1.3887,-1.3887,-1.3887,-1.3894,-1.4276,-1.457,-1.4643,-1.3911,-1.378,-1.3931,0.0,0.0,0.0,0.0,0.0,0.0,0.0,0.1702,0.1673,0.1643,0.1177,0.0816,0.0808,0.0303,-0.0202,-0.0756,-0.1189,-0.1301,-0.111,-0.0923,-0.0777,-0.0717,-0.0716,-0.0895,-0.1253,-0.1253,-0.161,-0.2281,-0.2281,-0.2369,-0.2498,-0.2498,-0.2365,-0.2144,-0.2012,-0.1967,-0.1922,-0.1833,-0.219,-0.286,-0.286,-0.4628,-0.7314,-0.7815,-0.8038,-0.8257,-0.8969,-0.9336,-0.9651,-1.0161,-1.0472,-1.0728,-1.1023,-1.1263,-1.152,0.0,0.0,0.0,0.0,0.0,0.0,0.0,0.0,0.0,0.0,0.0,0.0,0.0,0.0,-1.1702,0.0,0.0,-1.0587,-0.9899,-1.0145,-1.0391,-1.0391,-1.0877,-1.1619,-1.2762,-1.2694,-1.2529,-1.2529,-1.2528,-1.2496,-1.2496,-1.263,-1.2705,-1.2705,-1.2705,-1.2705,-1.2705,-1.2837,-1.2916,-1.2916,-1.3517,-1.3842,-1.3842,-1.4359,-1.4352,-1.3842,-1.3842,-1.358,-1.3109,-1.3109,-1.3109,-1.3109,-1.3109,-1.2801,-1.2413,-1.258,-1.3194,-1.3862,-1.3296,-1.3161,-1.3278,0.0,0.0,0.0,0.0,0.0,0.0,0.0,0.0,0.1703,0.1726,0.1722,0.1661,0.1637,0.1629,0.1265,0.0401,-0.0198,-0.0436,-0.0373,-0.0139,0.0,0.0,0.0,-0.0089,-0.0224,-0.0224,-0.0268,-0.0447,-0.0447,-0.0224,0.0134,0.0134,0.0358,0.0718,0.0718,0.0718,0.0718,0.0807,0.0179,-0.085,-0.076,-0.1657,-0.3142,-0.4357,-0.5077,-0.5662,-0.7395,-0.8121,-0.8401,-0.9394,-0.9791,-0.9954,-1.0196,-1.0258,-1.0386,-1.1025,-1.1072,0.0,0.0,0.0,0.0,0.0,0.0,0.0,0.0,-1.1116,-1.1116,-1.1116,-1.1116,-1.0828,-0.9805,-0.9608,-0.9266,-0.8187,-0.8726,-0.9266,-0.9266,-1.0047,-1.0587,-1.0587,-1.0925,-1.1219,-1.1219,-1.1462,-1.1666,-1.1666,-1.1943,-1.2137,-1.2137,-1.2137,-1.2137,-1.2137,-1.2137,-1.2137,-1.2137,-1.2137,-1.2137,-1.2137,-1.2137,-1.2137,-1.2137,-1.2137,-1.2137,-1.2137,-1.2137,-1.2137,-1.2137,-1.2137,-1.1709,-1.0977,-1.1015,-1.1734,-1.2738,-1.2762,-1.2867,-1.3012,0.0,0.0,0.0,0.0,0.0,0.0,0.0,0.0,0.0,0.1703,0.1699,0.1698,0.1695,0.1672,0.1635,0.1433,0.1548,0.1734,0.1907,0.2136,0.2351,0.258,0.2536,0.2199,0.1524,0.1524,0.1211,0.0538,0.0538,0.0583,0.0628,0.0628,0.0628,0.0718,0.0718,0.0718,0.0718,0.1164,0.1253,0.1118,0.1519,0.1084,0.0046,-0.1147,-0.2799,-0.4591,-0.5778,-0.6224,-0.6491,-0.7661,-0.8058,-0.8101,-0.8259,-0.8308,-0.8506,-0.9505,-0.9167,-0.8627,-0.9608,-0.9167,-0.8478,-0.8726,-0.8627,-0.8432,0.0,-0.8432,-0.8432,-0.8432,-0.8432,-0.8382,-0.8237,-0.8233,-0.8187,-0.8038,-0.8088,-0.8187,-0.8187,-0.8283,-0.8382,-0.8382,-1.0047,-1.1219,-1.1219,-1.0934,-1.0736,-1.0736,-1.0425,-1.0226,-1.0226,-1.0226,-1.0226,-1.0226,-1.0226,-1.0226,-1.0226,-1.0226,-1.0226,-1.0226,-1.0226,-1.0226,-1.0226,-1.0226,-1.0226,-1.0226,-1.0226,-1.0226,-1.0226,-1.0226,-1.0053,-0.9797,-0.9966,-1.0043,-1.0173,-1.1154,-1.2017,-1.2747,0.0,0.0,0.0,0.0,0.0,0.0,0.0,0.0,0.0,0.0,0.1785,0.1724,0.1706,0.1694,0.1781,0.191,0.218,0.2423,0.2612,0.2797,0.3168,0.3854,0.3784,0.3808,0.4071,0.4071,0.3935,0.3621,0.3621,0.3708,0.384,0.384,0.3707,0.3441,0.3441,0.3175,0.2823,0.3083,0.3053,0.2827,0.3044,0.2702,0.1878,0.0704,-0.0473,-0.1858,-0.4188,-0.5081,0.0,-0.5751,-0.6002,-0.6064,-0.6114,-0.6126,-0.6326,-0.7425,-0.6977,-0.6226,-0.667,-0.7375,-0.7889,-0.7385,-0.7637,-0.7988,-0.7988,-0.7988,-0.7988,-0.7988,-0.7988,-0.7988,-0.7988,-0.7988,-0.7988,0.0,-0.7988,-0.7988,-0.7988,-0.7988,-0.7988,-0.7988,-0.8775,-0.9316,-0.9316,-0.9521,-0.9672,-0.9672,-0.9807,-0.9879,-0.9879,-0.9879,-0.9879,-0.9879,-0.9879,-0.9879,-0.9879,-0.9879,-0.9879,-0.9879,-0.9879,-0.9879,-0.9879,-0.9792,-0.9662,-0.9479,-0.9479,-0.9479,-0.9479,-0.9479,-0.9135,-0.8575,-0.8659,-0.8619,-0.8707,-1.0014,-1.075,-1.1052,0.0,0.0,0.0,0.0,0.0,0.0,0.0,0.0,0.0,0.0,0.0,0.2295,0.2202,0.2519,0.2781,0.3034,0.3352,0.3651,0.3761,0.4001,0.4438,0.5071,0.4953,0.5216,0.582,0.5907,0.595,0.595,0.604,0.6172,0.6349,0.6349,0.6169,0.5854,0.5854,0.5405,0.4736,0.4993,0.4747,0.4241,0.4444,0.4054,0.3306,0.2444,0.1601,0.0443,-0.2797,-0.4075,-0.4241,-0.4536,-0.4724,-0.4824,-0.4824,-0.4824,-0.4974,-0.5729,-0.5427,-0.4824,-0.4824,-0.5927,-0.6933,-0.6132,-0.6531,-0.7132,-0.7132,-0.7132,-0.7185,-0.7487,-0.7335,-0.7185,-0.7487,-0.754,-0.754,-0.754,-0.7789,-0.7889,-0.7587,-0.7789,-0.7889,-0.7587,-0.7839,-0.7988,-0.7988,-0.8387,-0.8613,-0.8613,-0.8873,-0.9056,-0.9056,-0.8965,-0.8917,-0.8917,-0.8917,-0.8917,-0.8917,-0.8917,-0.8917,-0.8917,-0.8917,-0.8917,-0.8917,-0.879,-0.8611,-0.8428,-0.8428,-0.8428,-0.8428,-0.8428,-0.8002,-0.7353,-0.7394,-0.7394,-0.7438,-0.8528,-0.9266,-0.9701,0.0,0.0,0.0,0.0,0.0,0.0,0.0,0.0,0.0,0.0,0.0,0.0,0.0,0.4468,0.5196,0.5214,0.5682,0.5996,0.5994,0.6512,0.6698,0.652,0.6491,0.637,0.6206,0.6435,0.6576,0.6576,0.6851,0.6945,0.6992,0.6992,0.6945,0.6945,0.6945,0.6523,0.5774,0.6297,0.607,0.5372,0.5847,0.5482,0.4596,0.4302,0.3266,0.1508,-0.1674,-0.3021,-0.3422,-0.4422,-0.4822,-0.4824,-0.4824,-0.4824,-0.4824,-0.4824,-0.4824,-0.4824,-0.4824,-0.4824,-0.4874,-0.4874,-0.4874,-0.4874,-0.4874,-0.4874,-0.5177,-0.6234,-0.5629,-0.5227,-0.6234,-0.6437,-0.6437,-0.6437,-0.7338,-0.764,-0.6587,-0.7338,-0.764,-0.6587,-0.7388,-0.7988,0.0,-0.7773,-0.7647,-0.7647,-0.7183,-0.6881,-0.6881,-0.6653,-0.6517,-0.6517,-0.6517,-0.6517,-0.6517,-0.6517,-0.6517,-0.6517,-0.6517,-0.6517,-0.6517,-0.6517,-0.6473,-0.6473,-0.6473,-0.6473,-0.6473,-0.6473,-0.6343,-0.6171,-0.6387,-0.6343,-0.6171,-0.6432,-0.765,-0.9213,0.0,0.0,0.0,0.0,0.0,0.0,0.0,0.0,0.0,0.0,0.0,0.0,0.0,0.0,0.0,0.0,0.6416,0.6582,0.6749,0.6892,0.7235,0.7759,0.7733,0.7962,0.8589,0.8714,0.88,0.88,0.8893,0.8983,0.9118,0.9118,0.8975,0.8645,0.8645,0.8271,0.7577,0.7298,0.7056,0.678,0.6431,0.6095,0.573,0.4937,0.3954,0.2816,0.0,-0.0351,-0.1463,-0.237,-0.2672,-0.2672,-0.2672,-0.2672,-0.2672,-0.2672,-0.3674,-0.4474,-0.3074,-0.3725,-0.4624,-0.3924,-0.4275,-0.4824,-0.4824,-0.4824,-0.4924,-0.5277,-0.5074,-0.4924,-0.5277,-0.5327,-0.5327,-0.5327,-0.5627,-0.5727,-0.5377,-0.5627,-0.5727,-0.5377,-0.5677,0.0,0.0,0.0,0.0,-0.7607,-0.7185,-0.6895,-0.6799,-0.6567,-0.6384,-0.6384,-0.6384,-0.6384,-0.6384,-0.6384,-0.6384,-0.6384,-0.6384,-0.6343,-0.6213,-0.6213,-0.6127,-0.5949,-0.5949,-0.5949,-0.5949,-0.5949,-0.5549,-0.4968,-0.5683,-0.5502,-0.5013,-0.5902,-0.6605,-0.7173,0.0,0.0,0.0,0.0,0.0,0.0,0.0,0.0,0.0,0.0,0.0,0.0,0.0,0.0,0.0,0.0,0.0,0.8079,0.8251,0.8304,0.8558,0.9093,0.9097,0.9516,1.0467,1.0635,1.091,1.1348,1.1442,1.1531,1.1671,1.1671,1.1296,1.0632,1.0632,1.0022,0.8989,0.8572,0.8258,0.7963,0.6965,0.6612,0.6494,0.5249,0.4379,0.0,0.262,0.1513,0.0353,-0.0454,-0.0605,-0.0504,-0.0707,-0.0757,-0.0757,-0.096,-0.2017,-0.2819,-0.1615,-0.2369,-0.3371,-0.2671,-0.3073,-0.3674,-0.3674,-0.3674,-0.3775,-0.4124,-0.3924,-0.3775,-0.4175,-0.4225,-0.4225,-0.4225,-0.4574,-0.4674,-0.4273,-0.4574,-0.4674,-0.4275,-0.4574,-0.4824,0.0,0.0,0.0,-0.652,-0.6157,-0.585,-0.568,-0.5406,-0.527,-0.527,-0.527,-0.527,-0.527,-0.527,-0.5225,-0.5137,-0.5137,-0.5097,-0.4966,-0.4966,-0.4877,-0.4701,-0.4701,-0.4701,-0.4701,-0.4701,-0.4344,-0.3851,-0.4478,-0.4344,-0.3896,-0.4654,-0.4966,-0.5099,0.0,0.0,0.0,0.0,0.0,0.0,0.0,0.0,0.0,0.0,0.0,0.0,0.0,0.0,0.0,0.0,0.0,0.0,1.0312,1.0586,1.0619,1.0456,1.0494,1.0949,1.1882,1.2154,1.287,1.3944,1.4172,1.4316,1.4316,1.4316,1.374,1.278,1.2727,1.176,1.0117,1.0019,0.9663,0.9034,0.7478,0.6953,0.6899,0.542,0.4483,0.3882,0.3123,0.2519,0.1917,0.1109,0.1158,0.1509,0.1058,0.0857,0.0756,0.0252,0.005,-0.005,-0.0555,-0.0909,-0.1111,-0.1162,-0.1364,-0.1566,-0.1566,-0.1617,-0.1868,-0.2923,-0.2321,-0.1919,-0.2923,-0.3123,-0.3123,-0.3123,-0.3974,-0.4273,-0.3274,-0.3974,-0.4275,0.0,0.0,0.0,0.0,0.0,0.0,-0.4439,0.0,-0.3895,-0.3633,-0.3355,-0.322,-0.322,-0.322,-0.322,-0.322,-0.322,-0.3087,-0.2911,-0.2911,-0.2911,-0.2911,-0.2911,-0.2911,-0.2911,-0.2911,-0.2911,-0.2911,-0.2911,-0.2867,-0.2822,-0.2867,-0.2867,-0.2822,-0.2911,-0.2911,-0.3224,0.0,0.0,0.0,0.0,0.0,0.0,0.0,0.0,0.0,0.0,0.0,0.0,0.0,0.0,0.0,0.0,0.0,0.0,1.0582,1.0637,1.0781,1.09,1.1567,1.2274,1.2992,1.3517,1.4045,1.4564,1.4413,1.4316,1.4316,1.4316,1.4172,1.3884,1.3065,1.2441,1.1907,1.0551,0.9896,0.9631,0.8041,0.72,0.6776,0.5794,0.4834,0.3982,0.378,0.3328,0.2674,0.126,0.1158,0.166,0.1913,0.1711,0.1359,0.1209,0.0907,0.0555,0.0454,0.0353,0.0151,-0.0454,-0.0657,-0.0859,-0.1465,-0.1617,-0.1667,-0.1969,-0.1768,-0.1667,-0.1969,-0.2019,-0.2019,-0.2019,-0.222,0.0,-0.207,-0.222,0.0,-0.2019,0.0,-0.232,-0.2118,-0.2118,0.0,0.0,-0.3245,-0.4068,-0.3897,-0.3654,-0.3489,-0.3489,-0.3489,-0.3489,-0.3489,-0.3309,-0.3087,-0.2911,-0.2911,-0.2911,-0.2911,-0.2911,-0.2911,-0.2911,-0.2911,-0.2911,-0.2911,-0.2911,-0.2465,-0.1838,-0.2598,-0.2419,-0.1883,-0.2774,-0.3132,-0.322,0.0,0.0,0.0,0.0,0.0,0.0,0.0,0.0,0.0,0.0,0.0,0.0,0.0,0.0,0.0,0.0,0.0,0.0,0.0,1.0692,1.0747,1.0911,1.1882,1.2839,1.3688,1.4657,1.5407,1.5953,1.5879,1.5782,1.5609,1.5609,1.5365,1.4889,1.3884,1.3162,1.2587,1.114,1.056,0.0,0.0,0.731,0.69,0.5199,0.4183,0.3632,0.3632,0.3632,0.343,0.252,0.2417,0.2768,0.3272,0.292,0.2266,0.2015,0.1713,0.1462,0.121,0.1058,0.0857,0.0404,0.0202,-0.0101,-0.0909,-0.1061,-0.1162,-0.1516,-0.1617,-0.1617,-0.1617,-0.1617,-0.1617,-0.1617,0.0,0.0,-0.1617,-0.1617,-0.1617,0.0,-0.1617,0.0,-0.1415,-0.1263,-0.1157,0.0,-0.2031,-0.2641,-0.2542,-0.2309,-0.2238,-0.2327,-0.2238,-0.2193,-0.2193,-0.1926,-0.1748,-0.1614,-0.1614,-0.1614,-0.1614,-0.1614,-0.1614,-0.1614,0.0,-0.1614,-0.1614,-0.1614,-0.1301,-0.0853,-0.1391,-0.1301,-0.0852,-0.1569,-0.1792,-0.1836,0.0,0.0,0.0,0.0,0.0,0.0,0.0,0.0,0.0,0.0,0.0,0.0,0.0,0.0,0.0,0.0,0.0,0.0,0.0,0.0,1.0692,1.0747,1.1823,1.292,1.3946,1.5417,1.6456,1.7065,1.7565,1.757,1.7156,1.7297,1.6892,1.594,1.4794,1.3788,1.2823,1.1678,1.1302,1.1203,0.8421,0.739,0.7172,0.0,0.3281,0.318,0.318,0.3531,0.3982,0.3982,0.4033,0.4183,0.4634,0.4133,0.323,0.2724,0.2573,0.2422,0.2017,0.1714,0.1462,0.1411,0.1159,0.0706,-0.0202,-0.0404,-0.0606,-0.1415,-0.1617,-0.1617,-0.1617,-0.1617,-0.1617,-0.1617,-0.1617,-0.1617,-0.1617,-0.1617,-0.1617,-0.1617,-0.1617,-0.1566,-0.1566,-0.1314,-0.1111,-0.1111,-0.0831,-0.0712,-0.0697,-0.0547,-0.054,-0.0673,-0.0538,-0.0448,-0.0403,-0.018,-0.0045,0.0,0.0,0.0,0.0,0.0,0.0,0.0,0.0,0.0,0.0,0.0,0.0,0.0,0.0,0.0,0.0,0.0,0.0,0.0,0.0,0.0,0.0,0.0,0.0,0.0,0.0,0.0,0.0,0.0,0.8598,0.9434,0.0,0.0,0.0,0.0,0.0,0.0,0.0,0.0,0.0,1.1017,1.1932,1.2724,1.3391,1.5048,1.5673,1.5312,1.7041,1.7316,1.6318,1.7289,1.7487,1.6943,1.5127,1.422,1.3884,1.2014,1.1217,1.1049,0.8775,0.7637,0.7004,0.4738,0.0,0.0,0.318,0.3531,0.3982,0.3982,0.4284,0.4684,0.4784,0.4383,0.3833,0.3731,0.343,0.3128,0.3479,0.3228,0.2825,0.2569,0.2167,0.1412,-0.005,-0.0404,-0.0606,-0.1415,-0.1617,-0.1617,-0.1617,-0.1617,-0.1617,-0.1617,-0.1617,-0.1617,-0.1617,-0.1617,-0.1617,0.0,-0.1617,-0.1516,-0.1313,-0.101,0.0,0.0,0.0,-0.0339,-0.076,-0.0698,-0.0685,-0.0718,-0.0673,-0.0583,-0.0403,-0.0359,-0.0224,0.0,0.0,0.0,0.0,0.0,0.0,0.0,0.0,0.0,0.0,0.0,0.0,0.0,0.0,0.0,0.0,0.0,0.0,0.0,0.0,0.0,0.0,0.0,0.0,0.0,0.0,0.4139,0.5588,0.6536,0.7429,0.854,1.0088,1.0253,1.0308,0.0,0.0,0.0,0.0,0.0,0.0,0.0,0.0,0.0,1.2856,1.4355,1.4966,1.4462,0.0,1.5948,1.527,1.5965,1.619,1.6009,1.4481,1.3844,1.3745,1.2164,1.152,1.1313,0.8809,0.7632,0.712,0.0,0.0,0.0,0.3324,0.3613,0.399,0.3737,0.3964,0.4383,0.4383,0.4033,0.3581,0.3581,0.3581,0.3682,0.3932,0.4033,0.3982,0.3879,0.3426,0.2723,0.1512,0.1059,0.0505,-0.0707,-0.096,-0.1111,-0.1516,-0.1617,-0.1617,-0.1617,-0.1617,-0.1617,-0.1617,-0.1617,-0.1617,-0.1617,-0.1617,-0.1364,-0.0859,-0.0303,0.0252,0.0,0.0,0.0393,-0.0525,-0.0556,-0.0499,-0.0359,-0.0314,-0.0269,-0.018,-0.018,-0.0135,0.0,0.0,0.0,0.0,0.0,0.0,0.0,0.0,0.0,0.0,0.0,0.0,0.0,0.0,0.0,0.0,0.0,0.0,0.0,0.0,0.0,0.0,0.0,0.0,0.0,0.0,0.28,0.4027,0.5252,0.648,0.7651,0.8813,0.9864,1.0472,0.0,0.0,0.0,0.0,0.0,0.0,0.0,0.0,0.0,0.0,0.0,0.0,1.3445,1.4384,0.0,0.0,0.0,0.0,0.0,1.3642,1.3187,1.3136,1.1803,1.1243,0.0,0.0,0.7144,0.0,0.0,0.0,0.0,0.0,0.3635,0.3888,0.3424,0.3537,0.3831,0.3831,0.3531,0.318,0.318,0.3581,0.4033,0.4133,0.4383,0.4684,0.4935,0.4383,0.363,0.2971,0.2368,0.1613,0.0151,-0.0303,-0.0606,-0.1212,-0.1465,-0.1617,-0.1617,-0.1617,-0.1617,-0.1617,-0.1617,-0.1516,-0.1364,-0.1364,0.0,-0.0202,0.0504,0.0,0.0,0.0,0.0,-0.0239,-0.0321,-0.0224,0.0,0.0,0.0,0.0,0.0,0.0,0.0,0.0,0.0,0.0,0.0,0.0,0.0,0.0,0.0,0.0,0.0,0.0,0.0,0.0225,0.0314,0.0314,0.0539,0.0629,0.0629,0.0,0.0,0.0,0.0,0.0,0.0,0.0,0.28,0.3747,0.4134,0.6142,0.7202,0.6255,0.8367,1.0091,0.0,0.0,0.0,0.0,0.0,0.0,0.0,0.0,0.0,0.0,0.0,0.0,1.137,1.3573,0.0,0.0,0.0,0.0,0.0,0.0,1.2561,1.2458,1.0339,0.0,0.0,0.0,0.0,0.0,0.0,0.0,0.0,0.0,0.3373,0.3373,0.3322,0.3281,0.3281,0.3281,0.323,0.318,0.318,0.3581,0.4083,0.4583,0.4384,0.4284,0.5286,0.4383,0.3179,0.287,0.2368,0.1765,0.0857,0.0101,-0.0404,-0.0505,-0.1111,-0.1617,-0.1617,-0.1617,-0.1617,-0.1617,-0.1617,-0.1314,-0.0606,0.0,0.0,0.0605,0.0958,0.0,0.0,0.0,0.0,0.0048,-0.0046,-0.0045,0.0,0.0,0.0,0.0,0.0,0.0,0.0,0.0,0.0,0.0,0.0,0.0,0.0,0.0,0.0,0.0,0.0,0.0,0.009,0.0942,0.1256,0.1391,0.2286,0.2644,0.2644,0.0,0.0,0.0,0.0,0.0,0.0,0.2356,0.2747,0.3305,0.3916,0.5031,0.5813,0.6086,0.703,0.8085,0.8972,0.0,0.0,0.0,0.0,0.0,0.0,0.0,0.0,0.0,0.0,1.1232,1.0857,1.1937,0.0,0.0,0.0,0.0,0.0,0.0,1.0881,1.0774,0.9154,0.0,0.0,0.0,0.0,0.0,0.0,0.0,0.0,0.0,0.0,0.3421,0.3388,0.3335,0.3228,0.3192,0.318,0.318,0.318,0.3831,0.4533,0.4734,0.5135,0.5486,0.5584,0.4885,0.4031,0.3629,0.3126,0.2472,0.1664,0.1261,0.0908,0.0404,-0.0353,-0.0859,-0.0859,-0.1263,-0.1617,-0.1617,-0.1617,-0.1313,-0.0505,-0.0404,0.0,0.0,0.0,0.0,0.0,0.0,0.0,0.1382,0.1604,0.1749,0.1749,0.1749,0.1749,0.1749,0.1749,0.1749,0.1749,0.1749,0.1749,0.1749,0.1749,0.1749,0.1749,0.1749,0.0,0.0,0.1749,0.1749,0.1793,0.2152,0.2286,0.2331,0.2732,0.2688,0.2418,0.0,0.0,0.0,0.0,0.0,0.2693,0.2693,0.2693,0.2917,0.3529,0.4143,0.47,0.5198,0.5919,0.6586,0.6916,0.8524,0.0,0.0,0.0,0.0,0.0,0.0,0.0,0.0,0.0,1.0692,1.0692,1.0523,1.0464,0.0,0.0,1.0292,1.0237,0.0,0.0,0.0,0.0,0.0,0.0,0.0,0.0,0.0,0.0,0.0,0.0,0.0,0.0,0.0,0.0,0.0,0.3311,0.3199,0.318,0.318,0.318,0.3833,0.4583,0.4583,0.5135,0.5636,0.5434,0.4834,0.4284,0.4033,0.3581,0.3029,0.2472,0.2169,0.1815,0.126,0.0504,-0.0101,-0.0354,-0.0656,-0.0959,-0.1212,-0.106,-0.0606,0.0202,0.0,0.0863,0.0,0.2722,0.0,0.0,0.0,0.0,0.0,0.3161,0.3181,0.2911,0.2911,0.2911,0.2911,0.2911,0.2911,0.2911,0.2911,0.2911,0.2911,0.2911,0.2911,0.2911,0.0,0.0,0.0,0.2911,0.2911,0.2913,0.3226,0.3315,0.3315,0.3448,0.3267,0.2953,0.0,0.0,0.0,0.0,0.0,0.0,0.2693,0.2693,0.2693,0.2693,0.3755,0.4033,0.2862,0.5089,0.6086,0.4637,0.5913,0.0,0.0,0.0,0.0,0.0,0.0,0.0,0.0,0.0,1.0692,1.0692,0.953,0.8923,0.892,0.7695,0.7138,0.7138,0.0,0.0,0.0,0.0,0.0,0.0,0.0,0.0,0.0,0.0,0.0,0.0,0.0,0.0,0.0,0.0,0.0,0.0,0.0,0.318,0.318,0.318,0.3581,0.4033,0.4033,0.4033,0.4133,0.4684,0.3982,0.3331,0.3882,0.3581,0.318,0.318,0.2573,0.2017,0.1967,0.131,0.0504,-0.0252,0.0252,0.0504,-0.0303,0.0252,0.1058,0.0,0.0,0.2368,0.3135,0.318,0.0,0.0,0.0,0.0,0.0,0.4398,0.3851,0.2913,0.2911,0.2911,0.2911,0.2911,0.2911,0.2911,0.2911,0.2911,0.2911,0.2911,0.2911,0.0,0.0,0.0,0.0,0.2911,0.2911,0.3001,0.3941,0.43,0.4342,0.4788,0.4964,0.4919,0.0,0.0,0.0,0.0,0.0,0.0,0.0,0.3309,0.3251,0.3027,0.353,0.3642,0.3027,0.3586,0.3864,0.3583,0.547,0.0,0.0,0.0,0.0,0.0,0.0,0.0,0.0,0.0,0.8247,0.8247,0.7861,0.7584,0.7412,0.7193,0.7027,0.6803,0.6197,0.5924,0.0,0.0,0.0,0.0,0.0,0.0,0.0,0.0,0.0,0.0,0.0,0.0,0.0,0.0,0.0,0.0,0.0,0.0,0.0,0.318,0.3581,0.3982,0.3982,0.4284,0.4483,0.4284,0.3982,0.3682,0.3481,0.3331,0.318,0.318,0.2977,0.2826,0.2826,0.2169,0.1513,0.1261,0.1008,0.0706,0.0454,0.0,0.0,0.1916,0.2484,0.2946,0.0,0.0,0.0,0.0,0.0,0.0,0.0,0.4318,0.4408,0.4342,0.434,0.434,0.434,0.434,0.434,0.434,0.434,0.452,0.4837,0.4837,0.0,0.0,0.0,0.0,0.0,0.4837,0.4837,0.479,0.4788,0.4788,0.4743,0.4565,0.43,0.4032,0.0,0.0,0.0,0.0,0.0,0.0,0.0,0.3587,0.3531,0.3306,0.3475,0.3531,0.3306,0.3027,0.2861,0.2915,0.4195,0.0,0.0,0.0,0.0,0.0,0.0,0.0,0.675,0.675,0.675,0.675,0.6306,0.6026,0.5857,0.5584,0.5363,0.5194,0.4644,0.4369,0.0,0.0,0.0,0.0,0.0,0.0,0.224,0.0,0.0,0.0,0.0,0.0,0.0,0.0,0.0,0.0,0.0,0.0,0.0,0.0,0.343,0.3682,0.3682,0.3932,0.4133,0.3783,0.3682,0.3632,0.3281,0.318,0.318,0.318,0.318,0.318,0.318,0.2775,0.2371,0.2068,0.1815,0.1613,0.131,0.0,0.0,0.2445,0.0,0.0,0.0,0.0,0.0,0.0,0.0,0.0,0.0,0.3757,0.4089,0.4478,0.4654,0.4743,0.4743,0.4743,0.4743,0.4743,0.4743,0.4966,0.5416,0.524,0.0,0.0,0.0,0.0,0.0,0.5151,0.5151,0.5151,0.4835,0.4743,0.4699,0.421,0.3853,0.3587,0.0,0.0,0.0,0.0,0.0,0.0,0.0,0.3587,0.3587,0.3587,0.3587,0.3587,0.3587,0.3306,0.2971,0.275,0.0,0.0,0.0,0.0,0.0,0.0,0.0,0.0,0.5973,0.5973,0.5973,0.5973,0.4916,0.436,0.4305,0.3194,0.2637,0.2524,0.258,0.2524,0.0,0.0,0.0,0.0,0.0,0.0,0.0,0.0,0.0,0.0,0.0,0.0,0.0,0.0,0.0,0.0,0.0,0.0,0.0,0.0,0.0,0.0,0.0,0.318,0.318,0.318,0.318,0.318,0.318,0.318,0.0,0.318,0.318,0.318,0.318,0.318,0.2977,0.2219,0.2725,0.2927,0.0,0.2725,0.0,0.0,0.3213,0.0,0.0,0.0,0.0,0.0,0.0,0.0,0.0,0.2983,0.3097,0.3544,0.3987,0.421,0.4255,0.4255,0.4255,0.4255,0.4255,0.4476,0.4921,0.452,0.0,0.0,0.0,0.0,0.0,0.43,0.43,0.43,0.4255,0.4255,0.421,0.3721,0.3544,0.3499,0.0,0.0,0.0,0.0,0.0,0.0,0.0,0.0,0.0,0.0,0.3587,0.3587,0.3587,0.3306,0.2971,0.0,0.0,0.0,0.0,0.0,0.0,0.0,0.0,0.0,0.353,0.353,0.353,0.353,0.325,0.2971,0.2746,0.2692,0.2074,0.1008,0.1232,0.0784,0.0,0.0,0.0,0.0,0.0,0.0,0.0,0.0,0.0,0.0,0.0895,0.1007,0.0,0.0,0.0,0.0,0.0,0.0,0.0,0.0,0.2573,0.318,0.2927,0.0,0.318,0.318,0.318,0.318,0.0,0.318,0.318,0.318,0.318,0.318,0.318,0.318,0.313,0.2927,0.3079,0.313,0.2927,0.3079,0.0,0.3199,0.3188,0.0,0.0,0.0,0.0,0.0,0.0,0.0,0.0,0.2983,0.2963,0.3053,0.3187,0.3409,0.3765,0.3765,0.3765,0.3765,0.3765,0.4032,0.4476,0.4342,0.0,0.0,0.0,0.0,0.43,0.43,0.43,0.4255,0.39,0.3765,0.3721,0.323,0.3053,0.3053,0.0,0.0,0.0,0.0,0.0,0.0,0.0,0.0,0.0,0.0,0.0,0.0,0.0,0.0,0.0,0.0,0.0,0.0,0.0,0.0,0.0,0.0,0.0,0.2076,0.23,0.23,0.23,0.23,0.23,0.1907,0.1177,0.1402,0.0728,-0.056,-0.0392,-0.0727,0.0,0.0,0.0,0.0,-0.2459,0.0,0.0,0.0,0.0,0.0,-0.1119,-0.0783,0.0,-0.086,-0.0531,0.0,0.0,0.0,0.0,0.0,0.0906,0.1461,0.1765,0.2522,0.318,0.318,0.318,0.318,0.318,0.318,0.318,0.318,0.318,0.318,0.318,0.318,0.318,0.318,0.318,0.0,0.0,0.0,0.3221,0.3221,0.3196,0.0,0.0,0.0,0.0,0.0,0.0,0.0,0.0,0.2983,0.292,0.292,0.292,0.3008,0.3275,0.3275,0.3275,0.3275,0.3275,0.3542,0.3987,0.3765,0.3765,0.0,0.0,0.0,0.3676,0.3676,0.3676,0.3631,0.3365,0.3275,0.323,0.3008,0.292,0.292,0.0,0.0,0.0,0.0,0.0,0.0,0.0,0.0,0.0,0.0,0.0,0.0,0.0,0.0,0.0,0.0,0.0,0.0,0.0,0.0,0.0,0.0,0.1626,0.1627,0.1233,0.1458,0.1458,0.1233,0.1233,0.0729,-0.028,-0.028,-0.0896,-0.2071,-0.2295,-0.2351,0.0,0.0,0.0,0.0,-0.4423,0.0,0.0,0.0,0.0,0.0,0.0,0.0,0.0,-0.1826,-0.1591,-0.1263,-0.1271,0.0,0.0,0.0,0.0,0.0,0.0252,0.1663,0.2927,0.3079,0.318,0.318,0.313,0.313,0.313,0.3079,0.313,0.313,0.313,0.318,0.318,0.0,0.0,0.0,0.33,0.3308,0.3308,0.3308,0.0,0.0,0.0,0.0,0.0,0.0,0.0,0.0,0.0,0.2979,0.292,0.292,0.292,0.292,0.292,0.292,0.292,0.292,0.292,0.3097,0.3499,0.3097,0.3097,0.0,0.0,0.0,0.292,0.292,0.292,0.292,0.292,0.292,0.292,0.292,0.292,0.292,0.0,0.0,0.0,0.0,0.0,0.0,0.0,0.0,0.0,0.0,0.0,0.0,0.0,0.0,0.0,0.0,0.0,0.0,0.0,0.0,0.0,-0.1232,0.0728,0.084,-0.1176,-0.0224,-0.0224,-0.1232,-0.1232,-0.1344,-0.1512,-0.1512,-0.2183,-0.3357,-0.4369,-0.4819,-0.4875,-0.5043,0.0,0.0,0.0,0.0,0.0,0.0,0.0,0.0,0.0,0.0,0.0,-0.4174,-0.379,-0.2901,-0.3348,0.0,0.0,0.0,0.0,0.0,-0.0855,0.0302,0.1714,0.2623,0.3029,0.313,0.2927,0.2876,0.2775,0.2573,0.2724,0.2876,0.2876,0.3029,0.318,0.0,0.0,0.3184,0.0,0.0,0.3193,0.0,0.0,0.0,0.0,0.0,0.0,0.0,0.0,0.0,0.0,0.2956,0.292,0.292,0.292,0.292,0.292,0.292,0.292,0.292,0.292,0.2918,0.3008,0.292,0.2918,0.0,0.0,0.292,0.292,0.292,0.292,0.292,0.292,0.292,0.292,0.292,0.292,0.3008,0.0,0.0,0.0,0.0,0.0,0.0,0.0,0.0,0.0,0.0,0.0,0.0,0.0,0.0,0.0,0.0,0.0,0.0,0.0,0.0,-0.2071,-0.2742,-0.1064,-0.0672,-0.1791,-0.1232,-0.1232,-0.1791,-0.1791,-0.2127,-0.2798,-0.3415,-0.4032,-0.4592,-0.5156,-0.5382,-0.5382,-0.5382,-0.5382,0.0,0.0,0.0,0.0,0.0,0.0,0.0,0.0,0.0,0.0,0.0,-0.4678,-0.4181,-0.4358,0.0,0.0,0.0,0.0,0.0,-0.2415,-0.1208,0.0201,0.1411,0.2472,0.318,0.3029,0.3027,0.2977,0.2876,0.2927,0.3027,0.3027,0.313,0.318,0.318,0.0,0.3279,0.3279,0.3279,0.0,0.0,0.0,0.0,0.0,0.0,0.0,0.0,0.0,0.0,0.0,0.0,0.292,0.292,0.292,0.292,0.292,0.292,0.292,0.292,0.292,0.292,0.292,0.292,0.292,0.292,0.0,0.292,0.292,0.292,0.292,0.292,0.292,0.292,0.292,0.292,0.292,0.3097,0.0,0.0,0.0,0.0,0.0,0.0,0.0,0.0,0.0,0.0,0.0,0.0,0.0,0.0,0.0,0.0,0.0,0.0,0.0,-0.2351,-0.3079,-0.3973,-0.3135,-0.2631,-0.2631,-0.2351,-0.2351,-0.2631,-0.2631,-0.3135,-0.403,-0.4987,-0.5382,-0.5382,-0.5382,-0.5382,-0.5382,-0.5382,-0.5382,0.0,0.0,0.0,0.0,0.0,0.0,0.0,0.0,0.0,0.0,0.0,0.0,0.0,0.0,0.0,0.0,-0.4784,-0.4784,-0.4634,-0.3776,-0.2618,-0.1258,0.0,0.1714,0.313,0.313,0.313,0.3079,0.3029,0.3079,0.313,0.313,0.318,0.0,0.318,0.3219,0.33,0.33,0.0,0.0,0.0,0.0,0.0,0.0,0.0,0.0,0.0,0.0,0.0,0.0,0.0,0.292,0.292,0.292,0.292,0.292,0.292,0.292,0.292,0.292,0.292,0.292,0.292,0.292,0.292,0.292,0.292,0.292,0.292,0.292,0.292,0.292,0.292,0.2918,0.3186,0.3284,0.3522,0.0,0.0,0.0,0.0,0.0,0.0,0.0,0.0,0.0,0.0,0.0,0.0,0.0,0.0,0.0,0.0,0.0,0.0,0.0,-0.448,-0.5156,-0.5268,-0.5212,-0.5156,-0.5156,-0.403,-0.403,-0.5156,-0.5156,-0.5212,-0.5268,-0.5382,-0.5382,-0.5382,-0.5382,-0.5382,-0.5382,-0.5382,-0.5382,-0.5382,-0.5382,0.0,0.0,0.0,0.0,0.0,0.0,0.0,0.0,0.0,0.0,0.0,0.0,0.0,-0.4784,-0.4784,-0.4784,-0.4784,-0.4684,-0.3725,-0.2416,-0.1308,0.0906,0.2826,0.2826,0.2826,0.2775,0.2522,0.2674,0.2826,0.2826,0.3029,0.318,0.318,0.3184,0.3187,0.0,0.0,0.0,0.0,0.0,0.0,0.0,0.0,0.0,0.0,0.0,0.0,0.0,0.0,0.0,0.292,0.292,0.292,0.292,0.292,0.292,0.292,0.292,0.292,0.292,0.292,0.292,0.292,0.292,0.292,0.292,0.292,0.292,0.292,0.292,0.292,0.3008,0.4072,0.448,0.4693,0.0,0.0,0.0,0.0,0.0,0.0,0.0,0.0,0.0,0.0,0.0,0.0,0.0,0.0,0.0,0.0,0.0,0.0,0.0,-0.5156,-0.5382,-0.5382,-0.5382,-0.5382,-0.5382,-0.4931,-0.4931,-0.5382,-0.5382,-0.5382,-0.5382,-0.5382,-0.5382,-0.5382,-0.5382,-0.5382,-0.5382,-0.5382,-0.5382,-0.5382,-0.5382,0.0,0.0,0.0,0.0,0.0,0.0,0.0,0.0,0.0,-0.4986,-0.4784,-0.4784,-0.4784,-0.4784,-0.4784,-0.4784,-0.4784,-0.4784,-0.3321,-0.1711,-0.1308,0.0705,0.2573,0.2775,0.2775,0.2826,0.2876,0.2977,0.3029,0.3029,0.0,0.318,0.318,0.318,0.318,0.0,0.0,0.0,0.0,0.0,0.0,0.0,0.0,0.0,0.0,0.0,0.0,0.0,0.0,0.0,0.292,0.292,0.3187,0.3765,0.3187,0.3187,0.3765,0.3187,0.292,0.292,0.292,0.292,0.292,0.292,0.292,0.2963,0.3542,0.3765,0.381,0.4431,0.4654,0.4705,0.5257,0.5489,0.5629,0.0,0.0,0.0,0.0,0.0,0.0,0.0,0.0,0.0,0.0,0.0,0.0,0.0,0.0,0.0,0.0,0.0,0.0,-0.5382,-0.5382,-0.5382,-0.5382,-0.5382,-0.5382,-0.5382,-0.5382,-0.5382,-0.5382,-0.5382,-0.5382,-0.5382,-0.5382,-0.5382,-0.5382,-0.5382,-0.5382,-0.5382,-0.5382,-0.5382,-0.5382,-0.5382,-0.5382,0.0,0.0,0.0,0.0,0.0,0.0,0.0,0.0,-0.4961,-0.4784,-0.4784,-0.4784,-0.4784,-0.4784,-0.4481,-0.4178,-0.4178,-0.2667,-0.1006,-0.0654,0.0655,0.2068,0.2674,0.2775,0.2876,0.313,0.318,0.318,0.318,0.0,0.0,0.0,0.318,0.0,0.0,0.0,0.0,0.0,0.0,0.0,0.0,0.0,0.0,0.0,0.0,0.0,0.0,0.0,0.0,0.0,0.3631,0.4076,0.4743,0.4121,0.4121,0.4743,0.4076,0.3631,0.332,0.332,0.3497,0.3765,0.3765,0.3765,0.3855,0.4476,0.4743,0.4788,0.5453,0.5744,0.5874,0.636,0.6581,0.6715,0.0,0.0,0.0,0.0,0.0,0.0,0.0,0.0,0.0,0.0,0.0,0.0,0.0,0.0,0.0,0.0,0.0,0.0,-0.5382,-0.5437,-0.5437,-0.5437,-0.5437,-0.5437,-0.5437,-0.5437,-0.5437,-0.5382,-0.5382,-0.5437,-0.5437,-0.5437,-0.5437,-0.5437,-0.5437,-0.5382,-0.5382,-0.5382,-0.5382,-0.5382,-0.5382,-0.5382,-0.5382,0.0,0.0,0.0,0.0,0.0,0.0,0.0,-0.491,-0.4784,-0.4784,-0.4784,-0.4784,-0.4784,-0.3827,-0.277,-0.277,-0.1811,-0.0553,0.0554,0.0806,0.1159,0.2472,0.2775,0.2876,0.313,0.318,0.318,0.318,0.318,0.0,0.318,0.0,0.0,0.0,0.0,0.0,0.0,0.0,0.0,0.0,0.0,0.0,0.0,0.0,0.0,0.0,0.0,0.0,0.0,0.523,0.5719,0.5719,0.5719,0.5719,0.5719,0.5719,0.523,0.43,0.43,0.4832,0.5719,0.5719,0.5719,0.5719,0.5719,0.5719,0.5719,0.5719,0.5835,0.6165,0.7353,0.7869,0.8086,0.0,0.0,0.0,0.0,0.0,0.0,0.0,0.0,0.0,0.0,0.0,0.0,0.0,0.0,0.0,0.0,0.0,0.0,-0.627,-0.6325,-0.6601,-0.7204,-0.7204,-0.7204,-0.7204,-0.7204,-0.6652,-0.5382,-0.5993,-0.6325,-0.6325,-0.693,-0.693,-0.6325,-0.6325,-0.5993,-0.5382,-0.5382,-0.5382,-0.5382,-0.5382,-0.5382,-0.5382,0.0,0.0,0.0,0.0,0.0,0.0,0.0,0.0,0.0,-0.4784,-0.428,-0.3676,-0.3676,-0.2871,-0.1914,-0.1711,-0.0704,0.0403,0.0706,0.1513,0.232,0.2725,0.2775,0.2876,0.313,0.318,0.318,0.318,0.318,0.0,0.0,0.0,0.0,0.0,0.0,0.0,0.0,0.0,0.0,0.0,0.0,0.0,0.0,0.0,0.0,0.0,0.0,0.0,0.0,0.5542,0.603,0.6697,0.603,0.603,0.6697,0.603,0.5542,0.5275,0.5275,0.5453,0.5719,0.5719,0.5719,0.5764,0.6428,0.7095,0.7731,0.7837,0.7911,0.8068,0.8676,0.8926,0.9031,0.0,0.0,0.0,0.0,0.0,0.0,0.0,0.0,0.0,0.0,-0.4032,-0.4531,0.0,0.0,0.0,0.0,0.0,0.0,0.0,-0.7207,-0.7426,-0.7974,-0.7974,-0.7974,-0.7974,-0.7974,-0.7479,-0.6432,-0.6985,-0.7207,-0.7207,-0.7756,-0.7537,-0.6715,-0.6715,-0.6214,-0.5382,-0.5382,-0.5382,-0.5382,-0.5382,-0.5382,-0.5377,0.0,0.0,0.0,0.0,0.0,0.0,0.0,0.0,0.0,-0.4784,-0.4079,-0.3173,-0.3073,-0.1914,-0.0605,-0.0302,0.0755,0.1765,0.1765,0.2371,0.2977,0.2977,0.2977,0.3027,0.318,0.318,0.318,0.318,0.318,0.0,0.0,0.0,0.0,0.0,0.0,0.0,0.0,0.0,0.0,0.0,0.0,0.0,0.0,0.0,0.0,0.0,0.0,0.0,0.0,0.6653,0.7139,0.7676,0.7143,0.7143,0.7676,0.7139,0.683,0.683,0.6432,0.6473,0.683,0.683,0.683,0.6874,0.7452,0.807,0.8678,0.8779,0.8909,0.906,0.9322,0.9449,0.9478,0.0,0.0,0.0,0.0,0.0,0.0,0.0,0.0,0.0,0.0,-0.6139,-0.6695,0.0,0.0,0.0,0.0,0.0,0.0,0.0,-0.814,-0.814,-0.8251,-0.8251,-0.8251,-0.8251,-0.8251,-0.8251,-0.8251,-0.814,-0.814,-0.814,-0.8195,-0.7759,-0.6935,-0.6935,-0.6437,-0.5659,-0.5659,-0.5603,-0.5493,-0.5493,-0.5487,-0.5361,-0.5221,0.0,0.0,0.0,0.0,0.0,0.0,0.0,0.0,-0.4684,-0.3929,-0.2972,-0.2669,-0.0907,0.0958,0.126,0.2219,0.318,0.318,0.318,0.318,0.318,0.318,0.318,0.318,0.0,0.318,0.318,0.318,0.0,0.0,0.0,0.0,0.0,0.0,0.0,0.0,0.0,0.0,0.0,0.0,0.0,0.0,0.0,0.0,0.0,0.0,0.0,0.7275,0.812,0.8612,0.8612,0.8612,0.8612,0.0,0.8612,0.8612,0.8564,0.7632,0.772,0.8612,0.8612,0.8612,0.8612,0.8629,0.8682,0.8824,0.8857,0.9068,0.9404,0.942,0.9486,0.9579,0.0,0.0,0.0,0.0,0.0,0.0,0.0,0.0,0.0,0.0,0.0,0.0,0.0,0.0,0.0,0.0,0.0,0.0,0.0,-0.9082,-0.9416,-1.008,-1.0135,-1.0135,-1.0135,-1.0135,-1.0135,-1.0135,-0.9416,-0.9082,-0.9137,-0.9805,-0.964,-0.8809,-0.8809,-0.8309,-0.7423,-0.7423,-0.7041,-0.6437,-0.6437,-0.5946,-0.5217,-0.5196,-0.5146,0.0,0.0,0.0,0.0,0.0,0.0,0.0,-0.3827,-0.2821,-0.1764,-0.0857,0.0504,0.1818,0.2068,0.2522,0.2927,0.313,0.318,0.318,0.318,0.318,0.318,0.318,0.318,0.318,0.318,0.318,0.0,0.0,0.0,0.0,0.0,0.0,0.0,0.0,0.0,0.0,0.0,0.0,0.0,0.0,0.0,0.0,0.0,0.0,0.0,0.83,0.848,0.8612,0.8612,0.8612,0.8612,0.0,0.8612,0.8612,0.8612,0.8388,0.8388,0.8612,0.8612,0.8612,0.862,0.871,0.8787,0.8848,0.9129,0.9335,0.942,0.9514,0.9596,0.9579,0.0,0.0,0.0,0.0,0.0,0.0,0.0,0.0,0.0,0.0,0.0,0.0,0.0,0.0,0.0,0.0,0.0,0.0,0.0,0.0,-1.0249,-1.0692,-1.0692,-1.0692,-1.0692,-1.0692,-1.0692,-1.0692,-1.0249,-1.0025,-1.0025,-1.0468,-1.0249,-0.9416,-0.9416,-0.8861,-0.7974,-0.7974,-0.7756,-0.7313,-0.7257,-0.6704,-0.583,-0.5732,-0.5398,-0.503,-0.4939,0.0,0.0,0.0,0.0,0.0,0.0,0.0,-0.1361,-0.0151,0.116,0.2271,0.2522,0.2775,0.3029,0.318,0.318,0.318,0.318,0.318,0.318,0.318,0.318,0.318,0.318,0.0,0.0,0.0,0.0,0.0,0.0,0.0,0.0,0.0,0.0,0.0,0.0,0.0,0.0,0.0,0.0,0.0,0.0,0.83,0.8612,0.8612,0.8612,0.8612,0.8612,0.8612,0.8612,0.8612,0.8612,0.8612,0.8612,0.8612,0.8612,0.8612,0.8612,0.8657,0.8694,0.8783,0.8922,0.9092,0.9331,0.9457,0.9498,0.9592,0.9579,0.9579,0.0,0.0,0.0,0.0,0.0,0.0,0.0,0.0,0.0,0.0,0.0,0.0,0.0,0.0,0.0,0.0,0.0,0.0,0.0,0.0,0.0,-1.0692,-1.0692,-1.0692,-1.0692,-1.0692,-1.0692,-1.0692,-1.0692,-1.0692,-1.0692,-1.0692,-1.0304,-0.964,-0.964,-0.9196,-0.8472,-0.8446,-0.8326,-0.8152,-0.8018,-0.7415,-0.6516,-0.6274,-0.5679,-0.4939,-0.4861,-0.4784,-0.4784,-0.4784,0.0,0.0,0.0,0.0,-0.131,0.0151,0.1412,0.2371,0.2674,0.2977,0.318,0.318,0.318,0.318,0.318,0.318,0.323,0.343,0.3331,0.3281,0.0,0.0,0.0,0.0,0.0,0.0,0.0,0.0,0.0,0.0,0.0,0.0,0.0,0.0,0.0,0.0,0.0,0.0,0.8612,0.8612,0.8612,0.8612,0.8612,0.8612,0.8612,0.8612,0.8612,0.8612,0.8612,0.8612,0.8612,0.8612,0.8612,0.8612,0.8645,0.869,0.8824,0.8885,0.9088,0.9404,0.9437,0.9494,0.9579,0.9579,0.9579,0.9579,0.0,0.0,0.0,0.0,0.0,0.0,0.0,0.0,0.0,0.0,-1.0637,-1.0692,0.0,0.0,0.0,0.0,0.0,0.0,-1.0692,0.0,0.0,-1.0692,-1.0692,-1.0692,-1.0692,-1.0692,-1.0692,-1.0692,-1.0692,-1.0692,-1.0692,-1.0692,-1.0637,-1.0527,-1.0527,-1.0468,-1.0351,-1.0151,-0.9654,-0.8935,-0.8726,-0.7694,-0.6243,-0.6213,-0.5632,-0.48,-0.4788,-0.4784,-0.4784,-0.4784,-0.4784,0.0,0.0,0.0,-0.121,0.0858,0.1718,0.2121,0.2372,0.2826,0.318,0.318,0.318,0.318,0.318,0.318,0.3482,0.0,0.3833,0.3481,0.0,0.0,0.0,0.0,0.0,0.0,0.0,0.0,0.0,0.0,0.0,0.0,0.0,0.0,0.0,0.0,0.0,0.0,0.8612,0.8612,0.8612,0.8612,0.8612,0.8612,0.8612,0.8612,0.8612,0.8612,0.8612,0.8612,0.8612,0.8612,0.8612,0.862,0.8723,0.88,0.8844,0.9157,0.9359,0.942,0.9531,0.9608,0.9579,0.9579,0.9579,0.9579,0.0,0.0,0.0,0.0,0.0,0.0,0.0,0.0,0.0,0.0,0.0,-1.0692,0.0,0.0,0.0,-1.0692,-1.0692,-1.0692,-1.0692,-1.0692,-1.0692,-1.0692,-1.0692,-1.0692,-1.0692,-1.0692,-1.0692,-1.0692,-1.0692,-1.0692,-1.0692,-1.0692,-1.0692,-1.0692,-1.0692,-1.0692,-1.068,-1.0509,-1.0164,-0.9816,-0.9544,-0.8669,-0.7524,-0.6994,-0.6231,-0.5388,-0.4985,-0.4784,-0.4784,-0.4784,-0.4784,-0.4533,-0.2972,0.0,0.0,0.0,0.1313,0.2071,0.2523,0.2927,0.318,0.318,0.3632,0.4083,0.4083,0.4582,0.5129,0.5577,0.5329,0.0,0.0,0.0,0.0,0.0,0.0,0.0,0.0,0.0,0.0,0.0,0.0,0.0,0.0,0.0,0.0,0.0,0.0,0.8612,0.8612,0.8612,0.8612,0.8612,0.8612,0.8612,0.8612,0.8612,0.8612,0.8612,0.8612,0.8612,0.8612,0.8612,0.8612,0.862,0.8747,0.8881,0.8995,0.9298,0.9465,0.9514,0.9596,0.9579,0.9579,0.9579,0.9579,0.9579,0.0,0.0,0.0,0.0,0.0,0.0,0.0,0.0,0.0,0.0,0.0,0.0,0.0,0.0,0.0,0.0,-1.0692,-1.0692,-1.0692,-1.0692,-1.0692,-1.0692,-1.0692,-1.0692,-1.0692,-1.0692,-1.0692,-1.0692,-1.0692,-1.0692,-1.0692,-1.0692,-1.0692,-1.0692,-1.0692,-1.0777,-1.0833,-1.0597,-1.0604,-1.0638,-1.02,-0.9559,-0.8686,-0.7622,-0.6689,-0.5892,-0.5087,-0.4784,-0.4784,-0.4784,-0.4784,-0.4634,-0.3525,-0.2469,0.0,0.0,0.0,0.2222,0.2675,0.2977,0.3281,0.3531,0.4234,0.4885,0.5133,0.0,0.6473,0.0,0.0,0.0,0.0,0.0,0.0,0.0,0.0,0.0,0.0,0.0,0.0,0.0,0.0,0.0,0.0,0.0,0.0,0.0,0.0,0.8657,0.8612,0.8612,0.8612,0.8612,0.8612,0.8612,0.8612,0.8612,0.8612,0.8612,0.8612,0.8612,0.8612,0.8612,0.8637,0.8641,0.8816,0.8995,0.9177,0.9352,0.9502,0.9579,0.9579,0.9579,0.9579,0.9579,0.9579,0.9579,0.0,0.0,0.0,0.0,0.0,0.0,0.0,0.0,0.0,0.0,0.0,0.0,-1.0692,-1.0692,-1.0692,-1.0692,-1.0692,-1.0692,-1.0692,-1.0692,-1.0692,-1.0692,-1.0692,0.0,-1.0692,-1.0692,-1.0692,-1.0692,-1.0692,-1.0692,-1.0692,-1.0692,-1.0692,-1.0692,-1.0692,-1.087,-1.118,-1.098,-1.1102,-1.1378,-1.0658,-0.9879,-0.9031,-0.7686,-0.6689,-0.5892,-0.5087,-0.4784,-0.4784,0.0,0.0,-0.4634,-0.3525,-0.2469,-0.1412,0.0,0.0,0.0,0.2725,0.2977,0.343,0.4483,0.4734,0.5083,0.6077,0.0,0.6672,0.7723,0.0,0.0,0.0,0.0,0.0,0.0,0.0,0.0,0.0,0.0,0.0,0.0,0.0,0.0,0.0,0.0,0.0,0.0,0.0,0.8735,0.862,0.8612,0.8612,0.8612,0.8612,0.8612,0.8612,0.8612,0.8612,0.8612,0.8612,0.8612,0.8612,0.8612,0.8658,0.882,0.9003,0.9181,0.9404,0.9539,0.9571,0.9579,0.9579,0.9579,0.9579,0.9579,0.9579,0.9579,0.0,0.0,0.0,0.0,0.0,0.0,0.0,0.0,0.0,0.0,0.0,0.0,0.0,-1.0692,-1.0692,-1.0692,-1.0692,-1.0692,-1.0692,-1.0692,-1.0692,-1.0692,-1.0692,-1.0692,-1.0692,-1.0692,-1.0692,-1.0692,-1.0692,-1.0692,-1.0692,-1.0692,-1.0692,-1.0688,-1.0578,-1.0762,-1.1159,-1.0893,-1.1027,-1.145,-1.069,-1.0212,-0.9813,-0.8478,-0.7484,-0.6689,-0.5839,0.0,0.0,0.0,0.0,0.0,0.0,-0.3022,-0.121,0.0706,0.1817,0.2472,0.2725,0.2977,0.3482,0.4533,0.5331,0.6126,0.7173,0.7971,0.8574,0.8924,0.0,0.0,0.0,0.0,0.0,0.0,0.0,0.0,0.0,0.0,0.0,0.0,0.0,0.0,0.0,0.0,0.0,0.0,0.0,0.0,0.8739,0.8731,0.8678,0.8616,0.8612,0.8612,0.8612,0.8612,0.8612,0.8612,0.8612,0.8612,0.8616,0.8678,0.8828,0.9007,0.9185,0.9343,0.9416,0.9551,0.9579,0.9579,0.9579,0.9579,0.9579,0.9579,0.9579,0.9579,0.0,0.0,0.0,0.0,0.0,0.0,0.0,0.0,0.0,-1.1232,0.0,0.0,0.0,0.0,-1.1823,-1.1823,-1.15,-1.1286,-1.1286,-1.0907,-1.0692,-1.0692,-1.0692,-1.0692,-1.0692,-1.0692,-1.0692,-1.0692,-1.0692,-1.0692,-1.0692,-1.0692,-1.0692,-1.068,-1.0448,-1.071,-1.1375,-1.1099,-1.1226,-1.1596,-1.0959,-1.056,-1.0265,-0.8928,-0.8084,-0.7487,0.0,0.0,0.0,0.0,0.0,0.0,0.0,0.0,-0.121,0.0858,0.1917,0.2472,0.2725,0.2977,0.3482,0.4533,0.5629,0.6672,0.7773,0.8825,0.9579,0.9579,0.0,0.0,0.0,0.0,0.0,0.0,0.0,0.0,0.0,0.0,0.0,0.0,0.0,0.0,0.0,0.0,0.0,0.0,0.0,0.0,0.8922,0.8913,0.8832,0.8658,0.8653,0.8625,0.8612,0.8612,0.8612,0.8612,0.8612,0.8641,0.8658,0.8771,0.8954,0.919,0.9351,0.9437,0.9453,0.9575,0.9579,0.9579,0.9579,0.9579,0.9579,0.9579,0.9579,0.9579,0.0,0.0,0.0,0.0,0.0,0.0,0.0,0.0,-1.1177,-1.2309,0.0,0.0,0.0,0.0,0.0,-1.4078,-1.3112,-1.2417,-1.2417,-1.1337,-1.0747,-1.0692,-1.0692,-1.0692,-1.0692,-1.0692,-1.0692,-1.0692,-1.0692,-1.0692,-1.0692,-1.0692,-1.0692,-1.0676,-1.0375,-1.0729,-1.1695,-1.1544,-1.1686,-1.1932,-1.1443,-1.0904,-1.0261,-0.8928,-0.8432,0.0,-0.6589,-0.6042,0.0,-0.5085,0.0,0.0,0.0,-0.3324,-0.1361,0.0,0.1361,0.2472,0.0,0.0,0.0,0.4533,0.5579,0.6623,0.7773,0.0,0.9575,0.9579,0.0,0.0,0.0,0.0,0.0,0.0,0.0,0.0,0.0,0.0,0.0,0.0,0.0,0.0,0.0,0.0,0.0,0.0,0.0,0.9335,0.9116,0.91,0.9015,0.8836,0.8828,0.8747,0.8629,0.8624,0.8624,0.8624,0.862,0.8666,0.8828,0.8828,0.9023,0.9404,0.9408,0.9466,0.9579,0.9579,0.9579,0.9579,0.9579,0.9579,0.9579,0.9579,0.9579,0.9579,0.0,0.0,0.0,0.0,0.0,0.0,-1.1932,-1.263,-1.3275,0.0,0.0,0.0,-1.4078,-1.4078,-1.4078,-1.4078,-1.3809,-1.3275,-1.2467,-1.2091,-1.1555,-1.0747,-1.0692,-1.0692,-1.0692,-1.0692,-1.0692,-1.0692,-1.0692,-1.0692,-1.0692,-1.0692,-1.0692,-1.0676,-1.0375,-1.0521,-1.1117,-1.1234,-1.1545,-1.1932,-1.1443,-1.1096,-1.085,-0.9719,0.0,0.0,0.0,-0.6489,-0.5892,0.0,-0.4784,-0.4684,0.0,-0.272,-0.1361,0.0,0.1211,0.2222,0.2675,0.0,0.0,0.0,0.0,0.0,0.0,0.0,0.8673,0.9426,0.0,0.0,0.0,0.0,0.0,0.0,0.0,0.0,0.0,0.0,0.0,0.0,0.0,0.0,0.0,0.0,0.0,0.0,0.9551,0.9474,0.9339,0.9165,0.9076,0.9023,0.9019,0.8999,0.895,0.895,0.895,0.895,0.8816,0.8844,0.9019,0.9019,0.9141,0.9412,0.9494,0.9579,0.9579,0.9579,0.9579,0.9579,0.9579,0.9579,0.9579,0.9579,0.9579,0.9579,0.0,0.0,0.0,0.0,0.0,-1.3112,-1.3112,-1.3652,-1.4293,0.0,0.0,0.0,-1.5535,-1.5583,-1.5583,-1.5583,-1.5102,-1.4567,-1.3922,-1.2955,-1.2091,-1.1446,-1.0962,-1.0692,-1.0692,-1.0692,-1.0692,-1.0692,-1.0692,-1.0692,-1.0692,-1.0692,-1.0655,-1.057,-1.029,-1.0323,-1.0484,-1.0739,-1.1047,-1.1292,-1.0998,-1.0708,-1.0458,-0.9821,-0.9327,0.0,0.0,0.0,-0.6339,-0.5186,-0.4784,0.0,0.0,0.0,-0.2016,-0.0806,0.0403,0.1514,0.2371,0.2725,0.3026,0.3932,0.0,0.0,0.6924,0.7673,0.8322,0.0,0.0,0.0,0.0,0.0,0.0,0.0,0.0,0.0,0.0,0.0,0.0,0.0,0.0,0.0,0.0,0.0,0.0,0.9579,0.9579,0.9579,0.9474,0.9372,0.9283,0.9206,0.9206,0.9169,0.9096,0.9096,0.9096,0.9096,0.8991,0.9031,0.9206,0.9206,0.9299,0.9474,0.9579,0.9579,0.9579,0.9579,0.9579,0.9579,0.9579,0.9579,0.9579,0.9579,0.9579,0.9579,0.0,0.0,-1.4293,-1.4293,-1.4293,-1.4293,-1.4293,-1.44,-1.4888,0.0,-1.6074,-1.6452,-1.7477,-1.7582,-1.7582,-1.7582,-1.6664,-1.6021,-1.5914,-1.3814,-1.2521,-1.2417,-1.1286,-1.0692,-1.0692,-1.0692,-1.0692,-1.0692,-1.0692,-1.0692,-1.0692,-1.0692,-1.0599,-1.0375,-1.0245,-1.011,-0.9922,-1.0194,-1.0314,-1.0314,-1.0364,-1.0117,0.0,0.0,-0.9579,-0.9377,-0.7885,-0.7288,-0.6936,-0.5334,-0.4784,0.0,0.0,0.0,0.0,0.0,-0.0756,0.0605,0.1865,0.2472,0.2826,0.3079,0.3882,0.0,0.5977,0.6974,0.7975,0.0,0.0,0.0,0.0,0.0,0.0,0.0,0.0,0.0,0.0,0.0,0.0,0.0,0.0,0.0,0.0,0.9579,0.9579,0.9579,0.9579,0.9579,0.9579,0.9579,0.9551,0.9437,0.9433,0.9359,0.9157,0.9157,0.9157,0.9157,0.9137,0.9218,0.9433,0.9412,0.9453,0.9579,0.9579,0.9579,0.9579,0.9579,0.9579,0.9579,0.9579,0.9579,0.9579,0.9579,0.9579,0.9579,0.0,-1.5535,-1.5535,-1.5535,-1.5535,-1.5535,-1.5535,-1.634,-1.6988,-1.7259,-1.7259,-1.7364,-1.7582,-1.7582,-1.7582,-1.7582,-1.7417,-1.6882,-1.5968,-1.4567,-1.3383,-1.2417,-1.1286,-1.0692,-1.0692,-1.0692,-1.0692,-1.0692,-1.0692,-1.0692,-1.0692,-1.0692,-1.0599,-1.0375,-1.0245,-1.011,-0.9876,-0.9797,-0.9776,-0.9772,-1.0216,-1.0364,-1.0216,-0.9776,-0.9579,-0.948,-0.8531,-0.7736,-0.6936,-0.5334,-0.4784,-0.4784,0.0,0.0,0.0,-0.2972,0.0,0.0,0.0,0.0,0.0,0.0,0.0,0.0,0.4883,0.5284,0.5982,0.0,0.8322,0.0,0.0,0.0,0.0,0.0,0.0,0.0,0.0,0.0,0.0,0.0,0.0,0.0,0.0,0.9579,0.9579,0.9579,0.9579,0.9579,0.9579,0.9579,0.9612,0.9575,0.9575,0.9559,0.9522,0.9522,0.9522,0.9522,0.9376,0.9401,0.9567,0.9469,0.9453,0.9579,0.9579,0.9579,0.9579,0.9579,0.9579,0.9579,0.9579,0.9579,0.9579,0.9579,0.9579,0.9579,-1.6882,-1.6776,-1.6776,-1.6776,-1.6776,-1.6776,-1.6776,-1.7206,-1.7582,-1.7582,-1.7582,-1.7582,-1.7582,-1.7582,-1.7582,-1.7582,-1.7582,-1.7364,-1.6776,-1.5642,-1.446,-1.3275,-1.2146,-1.1286,-1.0692,-1.0692,-1.0692,-1.0692,-1.0692,-1.0692,-1.0692,-1.0692,-1.055,-1.0294,-1.0253,-1.001,-0.975,-0.9665,-0.9579,-0.9628,-0.9875,0.0,-0.9969,-0.9723,-0.9579,-0.948,-0.868,-0.7637,-0.6439,-0.5186,-0.4784,0.0,0.0,-0.4431,-0.3879,0.0,-0.2417,-0.1309,0.0,0.0,0.0,0.2573,0.0,0.0,0.0,0.4784,0.5231,0.6874,0.7624,0.8173,0.8722,0.0,0.0,0.0,0.0,0.0,0.0,0.0,0.0,0.0,0.0,0.0,0.0,0.9579,0.9579,0.9579,0.9579,0.9579,0.9579,0.9579,0.9579,0.9579,0.9579,0.9579,0.9579,0.9579,0.9579,0.9575,0.9535,0.9539,0.9575,0.9535,0.9543,0.9579,0.9579,0.9579,0.9579,0.9579,0.9579,0.9579,0.9579,0.9579,0.9579,0.9579,0.9579,0.9579,-1.7582,-1.7582,-1.7582,-1.7582,-1.7582,-1.7582,-1.7582,-1.7582,-1.7582,-1.7582,-1.7582,-1.7582,-1.7582,-1.7582,-1.7582,-1.7582,-1.7582,-1.7582,-1.7582,-1.6505,-1.5375,-1.4137,-1.3004,-1.1878,-1.0747,-1.0692,-1.0692,-1.0692,-1.0692,-1.0692,-1.0692,-1.0692,-1.0501,-1.0212,-1.0212,-0.9965,-0.9579,-0.9579,-0.9579,-0.9579,0.0,-0.9579,-0.9579,-0.9579,-0.9579,-0.948,-0.8531,-0.7235,-0.5892,-0.5085,-0.4784,-0.4784,-0.4784,-0.4784,0.0,0.0,0.0,0.0,0.0,0.0,0.0,0.0,0.0,0.3077,0.0,0.0,0.0,0.5877,0.6775,0.0,0.0,0.0,0.0,0.0,0.0,0.0,0.0,0.0,0.0,0.0,0.0,0.0,0.0,0.9579,0.9579,0.9579,0.9579,0.9579,0.9579,0.9579,0.9579,0.9579,0.9579,0.9579,0.9579,0.9579,0.9579,0.9579,0.9579,0.9579,0.9579,0.9579,0.9579,0.9579,0.9579,0.9579,0.9579,0.9579,0.9579,0.9579,0.9579,0.9579,0.9579,0.9579,0.9579,0.9579,-1.7529,-1.7582,-1.7582,-1.7582,-1.7582,-1.7582,-1.7582,-1.7582,-1.7582,-1.7582,-1.7582,-1.7582,-1.7582,-1.7582,-1.7582,-1.7582,-1.7582,-1.7582,-1.7582,-1.6505,-1.5375,-1.4137,-1.3004,-1.1878,-1.0747,-1.0692,-1.0692,-1.0692,-1.0692,-1.0692,-1.0692,-1.0692,-1.0501,-1.0212,-1.0212,-0.9965,-0.9579,-0.9579,-0.9579,0.0,-0.9579,-0.9579,0.0,-0.9579,-0.9579,-0.9377,-0.7885,-0.6739,-0.5892,0.0,-0.4784,-0.4784,0.0,-0.4784,-0.4784,-0.4634,0.0,0.0,0.0,0.0,0.0,0.0,0.1916,0.0,0.0,0.0,0.3682,0.4784,0.0,0.0,0.0,0.0,0.0,0.0,0.0,0.0,0.0,0.0,0.0,0.0,0.0,0.0,0.0,0.0,0.9579,0.9579,0.9579,0.9579,0.9579,0.9579,0.9579,0.9579,0.9579,0.9579,0.9579,0.9579,0.9579,0.9579,0.9579,0.9579,0.9579,0.9579,0.9579,0.9579,0.9579,0.9579,0.9579,0.9579,0.9579,0.9579,0.9579,0.9579,0.9579,0.9579,0.9579,0.9579,-1.7529,-1.7582,-1.7582,-1.7582,-1.7582,-1.7582,-1.7582,-1.7582,-1.7582,-1.7582,-1.7582,-1.7582,-1.7582,-1.7582,-1.7582,-1.7582,0.0,-1.7582,0.0,0.0,-1.6074,-1.4191,-1.3647,-1.2521,-1.0747,-1.0692,-1.0692,-1.0692,-1.0692,-1.0692,-1.0692,-1.0692,-1.0501,-1.016,-0.9686,-0.9548,-0.9579,-0.908,-0.9179,0.0,0.0,0.0,0.0,-0.9579,-0.9579,-0.9381,-0.7783,-0.6989,-0.6489,0.0,-0.4784,0.0,0.0,0.0,0.0,0.0,0.0,0.0,0.0,0.0,0.0,0.0,0.0,0.0,0.2371,0.0,0.3331,0.0,0.0,0.0,0.0,0.0,0.0,0.0,0.8372,0.0,0.0,0.0,0.0,0.0,0.0,0.0,0.0,0.0,0.0,0.0,0.9579,0.9579,0.9579,0.9579,0.9579,0.9579,0.9579,0.9579,0.9579,0.9579,0.9579,0.9579,0.9579,0.9579,0.9579,0.9579,0.9579,0.9579,0.9579,0.9579,0.9579,0.9579,0.9579,0.9579,0.9579,0.9579,0.9579,0.9579,0.9579,0.9579,-1.7477,-1.7582,-1.7582,-1.7582,-1.7582,-1.7582,-1.7582,-1.7582,-1.7582,-1.7582,-1.7582,-1.7582,-1.7582,-1.7582,0.0,0.0,-1.7582,-1.7477,0.0,0.0,-1.6393,0.0,0.0,0.0,0.0,-1.0692,-1.0692,-1.0692,-1.0692,-1.0692,-1.0692,-1.0692,-1.0501,-1.016,-0.9582,-0.9292,-0.9229,-0.8882,-0.8931,-0.9278,-0.9525,-0.9579,-0.9579,-0.9579,-0.9331,-0.8783,-0.7637,-0.6939,-0.6384,-0.5186,-0.4784,0.0,-0.4784,0.0,0.0,0.0,0.0,0.0,-0.3827,0.0,0.0,0.0,0.0,0.0,0.0,0.0,0.0,0.0,0.0,0.0,0.0,0.0,0.0,0.0,0.0,0.7922,0.0,0.0,0.0,0.0,0.0,0.0,0.0,0.0,0.0,0.9579,0.9579,0.9579,0.9579,0.9579,0.9579,0.9579,0.9579,0.9579,0.9579,0.9579,0.9579,0.9579,0.9579,0.9579,0.9579,0.9579,0.9579,0.9579,0.9579,0.9579,0.9579,0.9579,0.9579,0.9579,0.9579,0.9579,0.9579,0.9579,0.9579,0.9579,-1.7477,-1.7582,-1.7582,-1.7582,-1.7582,-1.7582,-1.7582,-1.7582,-1.7582,-1.7582,-1.7582,0.0,0.0,0.0,0.0,0.0,0.0,-1.7153,-1.6021,0.0,-1.6068,0.0,0.0,-1.3004,0.0,0.0,-1.0692,-1.0692,-1.0692,-1.0692,-1.0692,-1.0692,-1.0501,-1.0212,-1.016,-0.9501,-0.8482,-0.9229,-0.913,-0.8482,-0.9278,-0.9579,-0.9579,0.0,-0.863,-0.7288,-0.7238,0.0,0.0,-0.4834,-0.4784,0.0,0.0,0.0,0.0,0.0,0.0,0.0,0.0,0.0,0.0,-0.282,0.0,0.0,0.0,0.0,0.1412,0.0,0.0,0.0,0.0,0.0,0.0,0.0,0.0,0.0,0.0,0.0,0.0,0.0,0.0,0.0,0.0,0.0,0.0,0.9579,0.9579,0.9579,0.9579,0.9579,0.9579,0.9579,0.9579,0.9579,0.9579,0.9579,0.9579,0.9579,0.9579,0.9579,0.9579,0.9579,0.9579,0.9579,0.9579,0.9579,0.9579,0.9579,0.9579,0.9579,0.9579,0.9579,0.9579,0.9579,0.9579,0.9579,-1.7279,-1.7483,-1.7582,-1.7582,-1.7582,-1.7582,-1.7582,-1.7582,-1.7312,0.0,-1.6452,0.0,0.0,-1.5263,-1.5589,0.0,0.0,-1.6293,-1.5914,-1.6988,0.0,0.0,0.0,-1.3004,0.0,0.0,0.0,-1.0692,-1.0692,-1.0692,-1.0688,-1.0574,-1.0396,-1.0156,-0.9515,-0.8722,-0.7869,0.0,0.0,0.0,0.0,-0.8333,-0.8878,0.0,0.0,-0.7935,-0.7388,-0.6489,0.0,-0.4985,-0.4784,-0.4784,-0.4784,-0.4784,-0.4784,-0.4784,-0.4784,0.0,0.0,0.0,-0.4079,-0.3277,0.0,0.0,0.0,0.0,0.0,0.0,0.0,0.0,0.0,0.0,0.0,0.0,0.0,0.0,0.0,0.0,0.0,0.0,0.0,0.0,0.0,0.0,0.0,0.9579,0.9579,0.9579,0.0,0.9579,0.9579,0.9579,0.9579,0.9579,0.9579,0.9579,0.9579,0.9579,0.9579,0.9579,0.9579,0.9579,0.9579,0.9579,0.9579,0.9579,0.9579,0.9579,0.9579,0.9579,0.9579,0.9579,0.9579,0.9579,0.9579,0.9661,-1.7279,-1.7483,-1.7582,-1.7582,-1.7582,-1.7582,-1.7582,-1.7259,0.0,0.0,-1.5535,0.0,-1.4191,0.0,-1.44,0.0,-1.5269,-1.5108,-1.4674,-1.5695,0.0,-1.1932,-1.2901,0.0,0.0,0.0,0.0,0.0,-1.0692,-1.0692,-1.0688,-1.0517,-1.0335,-1.0156,-0.9453,-0.8412,-0.7167,-0.7276,-0.6678,0.0,0.0,-0.708,0.0,0.0,-0.8077,-0.7885,0.0,-0.6239,-0.5489,-0.4985,-0.4784,-0.4784,-0.4784,-0.4784,-0.4784,-0.4784,-0.4784,-0.4784,-0.4784,-0.4784,0.0,-0.3932,-0.3478,0.0,-0.2117,0.0,0.0,0.0,0.0,0.0,0.0,0.0,0.0,0.0,0.0,0.0,0.0,0.7074,0.0,0.0,0.0,0.0,0.0,0.0,0.9579,0.9579,0.9579,0.9579,0.0,0.0,0.9579,0.9579,0.9579,0.9579,0.9579,0.9579,0.9579,0.9579,0.9579,0.9579,0.9579,0.9579,0.9579,0.9579,0.9579,0.9579,0.9579,0.9579,0.9579,0.9579,0.9579,0.9579,0.9579,0.9579,0.9665,0.9762,-1.7477,-1.7582,-1.7582,-1.7582,-1.7582,0.0,0.0,0.0,-1.5861,0.0,-1.4728,-1.397,-1.3922,-1.3917,-1.397,-1.403,-1.4024,-1.3545,-1.2467,-1.3491,0.0,0.0,-1.1769,-1.1878,-1.0747,0.0,0.0,0.0,0.0,-1.0688,-1.0676,-1.0501,-1.0322,-1.0192,-0.9953,-0.8607,-0.6473,-0.7266,-0.6321,-0.4429,-0.5227,-0.5822,-0.6224,-0.5672,-0.6129,-0.6986,-0.6242,-0.5438,-0.4784,-0.4784,-0.4784,-0.4784,-0.4784,-0.4784,-0.4784,-0.4784,-0.4784,-0.4784,-0.4784,-0.4784,-0.4784,-0.4784,0.0,0.0,0.0,0.0,-0.0857,0.0,0.0,0.0,0.0,0.0,0.0,0.0,0.0,0.0,0.0,0.0,0.0,0.0,0.0,0.0,0.0,0.9579,0.9579,0.9579,0.9579,0.9579,0.0,0.0,0.9579,0.9579,0.9579,0.9579,0.9579,0.9579,0.9579,0.9579,0.9579,0.9579,0.9579,0.9579,0.9579,0.9579,0.9579,0.9579,0.9579,0.9579,0.9579,0.9579,0.9579,0.9579,0.9579,0.9579,0.9742,0.9925,-1.7529,-1.7582,-1.7582,0.0,-1.7582,-1.7582,0.0,0.0,0.0,0.0,-1.3383,-1.2304,-1.166,-1.1555,-1.1932,-1.2738,-1.2847,0.0,0.0,0.0,0.0,-1.0802,-1.1769,-1.1878,-1.0747,-1.0692,0.0,-1.0692,0.0,-1.0627,-1.0443,-1.0314,-1.0132,-0.9949,-0.977,-0.846,-0.6423,-0.7027,-0.6082,-0.4131,-0.4332,-0.463,0.0,0.0,-0.4381,-0.5131,-0.5331,-0.4883,-0.4284,-0.4684,-0.4784,-0.4784,-0.4784,-0.4784,-0.4784,-0.4784,-0.4784,-0.4784,-0.4784,-0.4784,-0.4684,-0.4284,-0.4083,-0.3883,0.0,0.0,0.0,0.0,0.0,0.0,0.0,0.0,0.0,0.0,0.0,0.0,0.0,0.0,0.0,0.7822,0.0,0.0,0.0,0.9579,0.9579,0.9579,0.9579,0.0,0.0,0.0,0.0,0.9579,0.9579,0.9579,0.9579,0.9579,0.9579,0.9579,0.9579,0.9579,0.9579,0.9579,0.9579,0.9579,0.9579,0.9579,0.9579,0.9579,0.9579,0.9579,0.9579,0.9579,0.9579,0.9579,0.9823,1.0151,-1.716,-1.6836,0.0,-1.6617,0.0,0.0,-1.6552,-1.6068,0.0,-1.4078,-1.2896,0.0,-1.15,-1.1017,-1.0962,-1.161,-1.1664,0.0,-1.1664,0.0,0.0,-1.0747,-1.1286,-1.1341,-1.0692,-1.0692,0.0,-1.0692,0.0,-1.0603,-1.0379,-1.0249,-1.0114,-0.9876,-0.9705,-0.8623,-0.6869,-0.6229,-0.5231,-0.3979,-0.3478,0.0,0.0,-0.2775,-0.2775,-0.3225,-0.3776,-0.3828,-0.3732,-0.4284,-0.4433,-0.4483,-0.4734,-0.4784,-0.4784,-0.4784,-0.4634,-0.4433,-0.4433,-0.4433,-0.4383,-0.4083,-0.3982,-0.3932,-0.3632,-0.2521,-0.131,0.0,0.0,0.0,0.0,0.0,0.0,0.0,0.0,0.0,0.0,0.0,0.0,0.0,0.7425,0.0,0.0,0.9324,0.9579,0.9579,0.0,0.0,0.0,0.0,0.0,0.9579,0.9579,0.9579,0.9579,0.9579,0.9579,0.9579,0.9579,0.9579,0.9579,0.9579,0.9579,0.9579,0.9579,0.9579,0.9579,0.9579,0.9579,0.9579,0.9579,0.9579,0.9587,0.9709,0.9916,1.0224,-1.6465,-1.5547,0.0,0.0,0.0,0.0,0.0,-1.5097,0.0,-1.3593,0.0,-1.2037,-1.2146,-1.1232,-1.0637,-1.0692,0.0,-1.0692,-1.0692,-1.0692,-1.0692,-1.0692,-1.0692,-1.0692,-1.0692,-1.0692,-1.0692,0.0,0.0,-1.057,-1.0396,-1.0213,-1.0026,-0.9843,-0.9693,-0.8821,-0.7316,-0.5327,-0.4176,-0.3725,-0.2772,-0.2371,-0.222,-0.1768,-0.1617,-0.1667,-0.2119,-0.2624,-0.318,-0.3731,-0.3882,-0.3982,-0.4433,-0.4583,-0.4583,-0.4684,-0.4383,-0.4033,-0.4083,-0.4083,-0.4083,-0.4083,-0.4033,-0.3982,-0.3932,-0.2722,-0.126,-0.0151,0.0907,0.1916,0.0,0.0,0.0,0.0,0.0,0.0,0.0,0.0,0.0,0.0,0.0,0.0,0.0,0.0,0.0,0.0,0.0,0.0,0.0,0.0,0.0,0.9579,0.9579,0.0,0.9579,0.0,0.9579,0.9579,0.9579,0.9579,0.9579,0.9579,0.9579,0.9579,0.9579,0.9579,0.9579,0.9579,0.9579,0.9579,0.9579,0.964,0.9685,0.9855,1.0038,1.0221,-1.5441,0.0,0.0,0.0,0.0,-1.3324,-1.2349,-1.2023,-1.1919,-1.1864,-1.0731,-1.0143,-1.0637,-1.0472,-1.0472,-1.0692,-1.0692,0.0,0.0,0.0,0.0,-1.0692,-1.0692,-1.0692,-1.0692,-1.0692,-1.0692,0.0,0.0,0.0,-1.0205,-1.0022,-0.9839,-0.9669,-0.964,-0.8474,-0.6523,-0.5279,0.0,-0.2672,-0.2471,-0.2119,-0.1717,-0.1617,-0.1617,-0.1617,-0.1718,-0.207,-0.2623,-0.3179,-0.3331,-0.3381,-0.343,-0.3481,-0.3581,-0.4033,-0.4083,-0.4083,-0.4533,-0.4684,-0.4684,-0.4684,-0.4334,-0.3882,-0.343,-0.2421,-0.1159,0.0353,0.1159,0.1916,0.2977,0.0,0.0,0.0,0.0,0.0,0.0,0.0,0.0,0.0,0.0,0.7021,0.0,0.0,0.0,0.0,0.0,0.0,0.0,0.0,0.0,0.0,0.9579,0.0,0.0,0.0,0.9579,0.9579,0.9579,0.9579,0.9579,0.9579,0.9579,0.9579,0.9579,0.9579,0.9579,0.9579,0.9579,0.9579,0.9579,0.9713,0.986,1.0046,1.0229,1.0391,-1.3712,0.0,0.0,0.0,0.0,0.0,0.0,-1.0135,0.0,-1.1378,-1.0895,-1.0625,-1.0899,-1.0523,-1.0366,-1.0472,-1.0637,-1.0692,-1.0692,-1.0692,-1.0692,-1.0692,-1.0607,0.0,-1.0558,-1.0465,-1.0416,-1.0416,0.0,0.0,-1.0018,-0.9929,-0.9791,-0.9579,-0.8871,-0.7819,0.0,0.0,0.0,-0.2772,-0.2521,-0.207,-0.1617,-0.1617,-0.1617,-0.1617,-0.1617,-0.1768,-0.207,-0.2624,-0.2775,-0.2876,-0.343,-0.3632,-0.3732,-0.4234,-0.4234,-0.4033,-0.4334,-0.4383,-0.4383,-0.4383,-0.4183,-0.3932,-0.3682,-0.2572,-0.1361,-0.0403,0.0756,0.1916,0.2977,0.318,0.0,0.0,0.0,0.0,0.0,0.0,0.0,0.0,0.0,0.0,0.0,0.0,0.0,0.0,0.0,0.0,0.0,0.0,0.0,0.0,0.0,0.0,0.0,0.0,0.0,0.9579,0.9579,0.9579,0.9579,0.9579,0.9579,0.9579,0.9579,0.9579,0.9579,0.9579,0.9579,0.9579,0.9579,0.9734,0.9908,1.0147,1.0278,1.0395,0.0,-1.1025,0.0,0.0,-0.965,0.0,-0.9275,-0.9057,-0.9406,-1.0882,-1.1021,-1.105,-1.1159,-1.0595,-1.0202,-1.0256,-1.0474,-1.0578,-1.0578,-1.0578,-1.0578,-1.0578,-1.0448,-1.0269,-1.0109,-1.0023,-0.9847,0.0,0.0,0.0,0.0,0.0,0.0,0.0,0.0,0.0,0.0,0.0,-0.3626,-0.2822,-0.2422,-0.1969,-0.1617,-0.1617,-0.1617,-0.1617,-0.1617,-0.1617,-0.1667,-0.207,-0.222,-0.2371,-0.3228,-0.3479,-0.358,-0.4131,-0.3981,-0.3681,-0.3781,-0.3831,-0.3831,-0.3831,-0.3831,-0.3781,-0.3681,-0.2671,-0.1613,-0.1109,0.0403,0.2017,0.3027,0.318,0.0,0.0,0.0,0.0,0.0,0.0,0.0,0.0,0.0,0.0,0.6373,0.0,0.0,0.0,0.0,0.0,0.0,0.0,0.0,0.0,0.0,0.9579,0.9579,0.0,0.9579,0.0,0.9579,0.9579,0.9579,0.9579,0.9579,0.9579,0.9579,0.9579,0.9579,0.9579,0.9579,0.9579,0.9579,0.9758,0.9961,1.0159,1.0302,1.0509,0.0,0.0,0.0,0.0,0.0,0.0,-0.8941,-0.8941,-0.9044,-0.9556,-0.941,-0.9531,-1.0065,-0.9936,-0.9898,-1.016,-1.0213,-1.0265,-1.0265,-1.0265,-1.0265,-1.0265,-1.0249,-0.9871,-0.9133,-0.9119,-0.8741,0.0,0.0,0.0,0.0,0.0,0.0,0.0,0.0,0.0,0.0,-0.3676,-0.2722,-0.1768,-0.1718,-0.1667,-0.1617,-0.1617,-0.1617,-0.1617,-0.1617,-0.1617,-0.1617,-0.1667,-0.1667,-0.1667,-0.1768,-0.1818,-0.1919,-0.2472,-0.2573,-0.2674,-0.3128,-0.3281,-0.3281,-0.3281,-0.3281,-0.3128,-0.2674,-0.2422,-0.1968,-0.0707,0.0807,0.2219,0.3029,0.318,0.318,0.0,0.0,0.0,0.0,0.0,0.318,0.318,0.0,0.0,0.0,0.7471,0.0,0.0,0.0,0.0,0.0,0.0,0.0,0.9579,0.0,0.9579,0.9579,0.9579,0.0,0.9579,0.9579,0.9579,0.9579,0.9579,0.9579,0.9579,0.9579,0.9579,0.9579,0.9579,0.9579,0.9579,0.9579,0.9835,1.0192,1.0208,1.0375,1.0672,0.0,0.0,0.0,0.0,0.0,0.0,0.0,-0.8636,-0.8786,-0.9073,-0.9037,-0.9054,-0.9319,-0.9575,-0.9743,-0.9899,-1.0056,-1.0212,-1.0212,-0.9743,-0.9477,-0.9477,-0.8909,-0.8443,-0.8082,-0.8,-0.7753,0.0,0.0,0.0,0.0,0.0,0.0,0.0,0.0,-0.4826,-0.3626,-0.2672,-0.1969,-0.1617,-0.1617,-0.1617,-0.1617,-0.1617,-0.1617,-0.1617,-0.1617,-0.1617,-0.1617,-0.1617,-0.1617,-0.1667,-0.1969,-0.207,-0.217,-0.2725,-0.2876,-0.2927,-0.313,-0.318,-0.318,-0.318,-0.2977,-0.2674,-0.2472,-0.1766,-0.106,-0.0505,0.0858,0.2269,0.3029,0.318,0.318,0.0,0.0,0.0,0.0,0.0,0.0,0.318,0.0,0.5231,0.0,0.0,0.0,0.0,0.0,0.0,0.0,0.0,0.0,0.9579,0.0,0.9579,0.9579,0.9579,0.9579,0.9579,0.9579,0.9579,0.9579,0.9579,0.9579,0.9579,0.9579,0.9579,0.9579,0.9579,0.9579,0.9591,0.9742,0.9937,1.0228,1.0286,1.0481,1.0692,-0.7891,0.0,-0.7458,0.0,-0.741,-0.741,-0.741,-0.741,-0.7461,-0.7665,-0.7775,-0.8111,-0.889,-0.9109,-0.9179,-0.9179,-0.9282,-0.933,-0.933,-0.8763,-0.845,-0.845,-0.7782,0.0,-0.7071,-0.6933,-0.6739,-0.6487,-0.7285,0.0,0.0,0.0,0.0,0.0,-0.4828,-0.3877,-0.2923,-0.1969,-0.1617,-0.1617,-0.1617,-0.1617,-0.1617,-0.1617,-0.1617,-0.1617,-0.1617,-0.1617,-0.1617,-0.1617,-0.1617,-0.1667,-0.207,-0.217,-0.2221,-0.2625,-0.2726,-0.2726,-0.2726,-0.2726,-0.2726,-0.2726,-0.2423,-0.217,-0.217,-0.1262,-0.0252,0.0202,0.1211,0.2269,0.3029,0.318,0.318,0.318,0.0,0.0,0.0,0.0,0.0,0.0,0.3883,0.488,0.6274,0.7071,0.0,0.0,0.0,0.0,0.0,0.0,0.0,0.0,0.0,0.0,0.0,0.9579,0.9579,0.9579,0.9579,0.9579,0.9579,0.9579,0.9579,0.9579,0.9579,0.9579,0.9579,0.9579,0.9579,0.9644,0.9819,0.9998,1.0237,1.0367,1.0546,1.0692,-0.6461,-0.5717,-0.5088,-0.4893,-0.4828,-0.4828,-0.4828,-0.4828,-0.4828,-0.4828,-0.5081,-0.6226,-0.8805,-0.8435,-0.8045,-0.8045,-0.7543,-0.7244,-0.7244,-0.7241,-0.7241,0.0,0.0,-0.6842,-0.6044,-0.5992,-0.5639,-0.4834,0.0,0.0,-0.6042,0.0,-0.6484,-0.5179,-0.463,-0.3676,-0.2371,-0.1818,-0.1617,-0.1617,-0.1617,-0.1617,-0.1617,-0.1617,-0.1617,-0.1617,-0.1617,-0.1617,-0.1617,-0.1617,-0.1617,-0.1617,-0.1617,-0.1617,-0.1617,-0.1617,-0.1617,-0.1617,-0.1617,-0.1617,-0.1617,-0.1617,-0.1617,-0.1617,-0.1617,-0.096,0.005,0.1664,0.1967,0.2269,0.3029,0.318,0.318,0.318,0.0,0.0,0.0,0.0,0.0,0.0,0.323,0.4081,0.6174,0.0,0.0,0.0,0.0,0.0,0.0,0.0,0.0,0.9579,0.9579,0.0,0.9579,0.9579,0.9579,0.9579,0.9579,0.9579,0.9579,0.9579,0.9579,0.9579,0.9579,0.9579,0.9579,0.9579,0.9579,0.9644,0.9819,0.9998,1.0237,1.0367,1.0546,1.0692,-0.5334,-0.51,-0.4859,-0.4828,-0.4824,-0.4824,-0.4824,-0.4824,-0.4824,-0.4824,-0.4874,-0.5238,-0.6075,-0.6297,-0.6376,0.0,-0.6526,-0.6678,0.0,-0.6487,-0.6392,-0.6392,-0.5837,-0.5436,-0.5188,-0.5188,-0.5035,-0.4784,0.0,0.0,0.0,-0.6242,-0.5486,-0.3831,-0.3681,-0.2927,-0.1818,-0.1667,-0.1263,-0.0758,-0.0758,-0.0454,0.005,0.005,0.005,0.005,0.005,0.005,0.005,0.005,0.005,0.005,0.005,-0.0353,-0.0656,-0.0101,0.005,0.005,0.005,0.005,0.005,0.005,0.005,0.005,0.005,0.0656,0.1513,0.2623,0.2826,0.2876,0.313,0.318,0.318,0.318,0.318,0.0,0.0,0.0,0.0,0.0,0.318,0.3731,0.0,0.5977,0.0,0.0,0.0,0.0,0.0,0.0,0.0,0.0,0.9579,0.0,0.9579,0.9579,0.9579,0.9579,0.9579,0.9579,0.9579,0.9579,0.9579,0.9579,0.9579,0.9579,0.9579,0.9579,0.9697,0.9819,1.0053,1.0184,1.0371,1.0546,1.0643,1.0692,-0.4175,-0.3875,-0.3574,-0.3574,-0.3574,-0.3574,-0.3574,-0.3574,-0.3574,-0.3574,-0.3574,-0.3574,-0.3574,-0.3874,0.0,-0.4924,-0.5127,-0.5279,-0.5477,-0.5334,-0.5338,-0.5539,-0.5085,-0.4784,-0.4784,0.0,0.0,-0.4784,-0.5288,-0.5539,-0.5539,-0.5338,-0.4537,-0.318,-0.2977,-0.2271,-0.1162,-0.1162,-0.0707,0.005,0.005,0.0353,0.0806,0.0806,0.0806,0.0806,0.0806,0.0806,0.0806,0.0806,0.0806,0.0857,0.1159,0.0908,0.0555,0.0756,0.0806,0.0806,0.0806,0.0806,0.0806,0.0806,0.0806,0.0857,0.1159,0.1664,0.2219,0.3029,0.318,0.318,0.318,0.318,0.318,0.318,0.318,0.318,0.318,0.0,0.0,0.0,0.0,0.0,0.0,0.5779,0.0,0.0,0.0,0.0,0.0,0.0,0.0,0.9579,0.9579,0.0,0.9579,0.9579,0.9579,0.9579,0.9579,0.9579,0.9579,0.9579,0.9579,0.9579,0.9579,0.9579,0.9579,0.9579,0.973,0.9904,1.0143,1.0274,1.0403,1.0627,1.0692,1.0692,-0.3073,-0.227,0.0,0.0,-0.1617,0.0,-0.1617,-0.1617,-0.1617,-0.1617,-0.1617,-0.1617,-0.1617,-0.1617,-0.222,-0.3725,0.0,0.0,0.0,-0.3982,-0.4234,-0.4734,-0.4784,-0.4784,-0.4784,-0.4784,-0.4784,-0.4784,-0.4784,-0.4784,-0.4784,-0.4183,-0.363,-0.3078,-0.2522,-0.1513,-0.0303,-0.0303,0.0151,0.0907,0.0907,0.0907,0.0958,0.0958,0.0958,0.0958,0.0958,0.0958,0.0958,0.0958,0.0958,0.1109,0.1865,0.2068,0.1917,0.121,0.0958,0.0958,0.0958,0.0958,0.0958,0.0958,0.0958,0.1159,0.1916,0.2068,0.232,0.3029,0.318,0.318,0.318,0.318,0.318,0.318,0.318,0.318,0.318,0.0,0.0,0.0,0.0,0.0,0.0,0.5779,0.688,0.0,0.0,0.0,0.0,0.0,0.9591,0.9579,0.9579,0.9579,0.9579,0.9579,0.9579,0.9579,0.9579,0.9579,0.9579,0.9579,0.9579,0.9579,0.9579,0.9579,0.9579,0.9591,0.9746,0.9925,1.0159,1.0294,1.0419,1.0631,1.0692,1.0692,0.0,0.0,-0.1617,-0.1617,-0.1617,-0.1617,-0.1617,-0.1617,-0.1617,-0.1617,-0.1617,-0.1617,-0.1617,-0.1617,-0.1768,-0.2119,-0.2422,-0.2623,-0.2774,-0.353,-0.4033,-0.4183,-0.4583,-0.4784,-0.4784,-0.4784,-0.4784,-0.4784,-0.4784,-0.4784,-0.4784,-0.3626,-0.282,-0.2216,-0.1058,-0.0151,0.0504,0.0504,0.0958,0.1714,0.1714,0.2068,0.2623,0.2623,0.2623,0.2623,0.2623,0.2623,0.2623,0.2623,0.2623,0.2674,0.2876,0.2927,0.2876,0.2674,0.2623,0.2623,0.2623,0.2623,0.2623,0.2623,0.2623,0.2674,0.2876,0.2927,0.2977,0.318,0.318,0.318,0.318,0.318,0.318,0.318,0.318,0.318,0.318,0.318,0.0,0.0,0.318,0.3632,0.4684,0.5779,0.6953,0.0,0.0,0.0,0.0,0.9977,0.9762,0.9583,0.9579,0.9579,0.9579,0.9579,0.9579,0.9579,0.9579,0.9579,0.9579,0.9579,0.9579,0.9579,0.9579,0.9579,0.9591,0.977,0.9933,1.0115,1.0298,1.0477,1.0635,1.0676,1.0692,1.0692,-0.1617,-0.1617,-0.1617,-0.1617,-0.1617,-0.1617,-0.1617,-0.1617,-0.1617,-0.1617,-0.1617,-0.1617,-0.1617,-0.1617,-0.1617,-0.1617,-0.1869,-0.212,-0.2371,-0.2925,-0.3479,-0.3982,-0.4284,-0.4533,-0.4784,-0.4784,-0.4583,-0.4079,-0.4079,-0.3827,-0.3324,-0.2216,-0.1561,-0.1209,-0.0101,0.0756,0.1361,0.1361,0.1815,0.2573,0.2573,0.2826,0.318,0.318,0.318,0.318,0.318,0.318,0.318,0.318,0.318,0.318,0.318,0.318,0.318,0.318,0.318,0.318,0.318,0.318,0.318,0.318,0.318,0.318,0.318,0.318,0.318,0.318,0.318,0.318,0.318,0.318,0.318,0.318,0.318,0.318,0.318,0.318,0.0,0.318,0.318,0.3643,0.4839,0.5901,0.7094,0.8501,0.0,0.0,1.0302,1.0119,0.9929,0.975,0.9669,0.9579,0.9579,0.9579,0.9579,0.9579,0.9579,0.9579,0.9579,0.9579,0.9579,0.9579,0.9579,0.9579,0.964,0.9815,1.0045,1.0233,1.0363,1.0542,1.0692,1.0692,1.0692,1.0692,-0.1617,-0.1617,-0.1617,-0.1617,-0.1617,-0.1617,-0.1617,-0.1617,-0.1617,-0.1617,-0.1617,-0.1617,-0.1617,-0.1617,-0.1617,-0.1617,-0.1516,-0.1717,-0.2371,-0.2472,-0.2976,-0.3932,-0.3932,-0.4081,-0.4533,-0.4381,-0.3879,-0.2972,-0.2972,-0.2469,-0.1563,-0.0655,-0.0202,-0.0202,0.0756,0.1563,0.2169,0.2169,0.2573,0.318,0.318,0.318,0.318,0.318,0.318,0.318,0.318,0.318,0.318,0.318,0.318,0.318,0.318,0.318,0.318,0.318,0.318,0.318,0.318,0.318,0.318,0.318,0.318,0.318,0.318,0.318,0.318,0.318,0.318,0.318,0.318,0.318,0.318,0.318,0.318,0.318,0.318,0.0,0.318,0.318,0.3389,0.3972,0.5212,0.6313,0.7513,0.8755,0.9721,1.0213,0.0,1.0269,1.0132,0.9973,0.977,0.9652,0.9579,0.9579,0.9579,0.9579,0.9579,0.9579,0.9579,0.9579,0.9579,0.9579,0.9579,0.9595,0.9681,0.9855,1.0034,1.0221,1.0404,1.0562,1.0692,1.0692,1.0692,1.0692,-0.1617,-0.1617,-0.1617,-0.1617,-0.1617,-0.1617,-0.1617,-0.1617,-0.1617,-0.1617,-0.1617,-0.1617,-0.1617,-0.1617,-0.1617,-0.1617,-0.1162,-0.1363,-0.232,-0.2826,-0.333,-0.3982,-0.3577,-0.3376,-0.3425,-0.2569,-0.2016,-0.1865,-0.1865,-0.1765,-0.1563,-0.0101,0.0605,0.0655,0.2169,0.2876,0.3027,0.3027,0.3079,0.318,0.318,0.318,0.318,0.318,0.318,0.318,0.318,0.318,0.318,0.318,0.318,0.318,0.318,0.318,0.318,0.318,0.318,0.318,0.318,0.318,0.318,0.318,0.318,0.318,0.318,0.318,0.318,0.318,0.318,0.318,0.318,0.318,0.318,0.318,0.318,0.318,0.318,0.0,0.318,0.318,0.4136,0.5255,0.6349,0.758,0.8815,1.0052,1.0285,1.0456,1.0603,1.0473,1.0326,1.0298,1.0022,0.9774,0.9579,0.9579,0.9579,0.9579,0.9579,0.9579,0.9579,0.9579,0.9579,0.9579,0.9579,0.9709,0.986,1.0094,1.0225,1.0412,1.0586,1.0668,1.0692,1.0692,1.0692,1.0692,-0.1617,-0.1617,-0.1617,-0.1617,-0.1617,-0.1617,-0.1617,-0.1617,-0.1465,-0.101,-0.096,-0.0808,-0.0353,-0.0303,-0.0303,-0.0303,-0.0202,-0.0505,-0.126,-0.1412,-0.1715,-0.2267,-0.2015,-0.2065,-0.2318,-0.1865,-0.131,-0.0756,-0.0756,-0.0454,0.0151,0.116,0.1664,0.1714,0.2725,0.318,0.318,0.318,0.318,0.318,0.318,0.318,0.318,0.318,0.318,0.318,0.318,0.318,0.318,0.318,0.318,0.318,0.318,0.318,0.318,0.318,0.318,0.318,0.318,0.318,0.318,0.318,0.318,0.318,0.318,0.318,0.318,0.318,0.318,0.318,0.318,0.318,0.318,0.318,0.318,0.0,0.0,0.3208,0.3279,0.3279,0.4364,0.5629,0.679,0.8017,0.9244,1.045,1.0574,1.0607,1.0688,1.0615,1.053,1.0383,1.0079,0.9803,0.9579,0.9579,0.9579,0.9579,0.9579,0.9579,0.9579,0.9579,0.9579,0.9579,0.9579,0.9726,0.99,1.0139,1.027,1.0399,1.0627,1.0692,1.0692,1.0692,1.0692,1.0692,-0.138,-0.1325,-0.1271,-0.1067,-0.1013,-0.106,-0.106,-0.106,-0.0808,-0.0202,-0.0101,0.0101,0.0756,0.0806,0.0806,0.0806,0.0656,0.0404,0.0,0.0202,-0.005,-0.0958,-0.0756,-0.0706,-0.0857,-0.0857,-0.0454,0.0353,0.0353,0.0807,0.1617,0.217,0.2422,0.2422,0.2977,0.318,0.318,0.318,0.318,0.318,0.318,0.318,0.318,0.318,0.318,0.318,0.318,0.318,0.318,0.318,0.318,0.318,0.318,0.318,0.318,0.318,0.318,0.318,0.318,0.318,0.318,0.318,0.318,0.318,0.318,0.318,0.318,0.318,0.318,0.318,0.318,0.318,0.318,0.318,0.0,0.0,0.0,0.3304,0.3446,0.3705,0.4865,0.6114,0.7385,0.8561,0.9671,1.0625,1.0692,1.0692,1.0692,1.0692,1.0611,1.0387,1.0079,0.9819,0.9689,0.9648,0.9579,0.9579,0.9579,0.9579,0.9579,0.9579,0.9579,0.9579,0.9669,0.9786,0.9965,1.0148,1.0331,1.0509,1.0639,1.0692,1.0692,1.0692,1.0692,1.0692,-0.0635,-0.0471,-0.0259,0.0569,0.0663,0.0605,0.0605,0.0605,0.0655,0.0706,0.0706,0.0756,0.0806,0.0806,0.0806,0.0806,0.1009,0.1111,0.1061,0.1314,0.0555,-0.1462,-0.0605,0.0403,0.1364,0.1364,0.1414,0.1465,0.1465,0.1516,0.1617,0.217,0.2422,0.2422,0.2977,0.318,0.318,0.318,0.318,0.318,0.318,0.318,0.318,0.318,0.318,0.318,0.318,0.318,0.318,0.318,0.318,0.318,0.318,0.318,0.318,0.318,0.318,0.318,0.318,0.318,0.318,0.318,0.318,0.318,0.318,0.318,0.318,0.318,0.318,0.318,0.318,0.318,0.318,0.318,0.0,0.0,0.3315,0.3367,0.3828,0.4931,0.6183,0.7439,0.8585,0.9806,1.0621,1.0692,1.0692,1.0692,1.0692,1.0692,1.0611,1.0387,1.0079,0.988,0.9864,0.9705,0.9579,0.9579,0.9579,0.9579,0.9579,0.9579,0.9579,0.9587,0.9799,0.9969,1.0208,1.0339,1.0517,1.0676,1.0688,1.0692,1.0692,1.0692,1.0692,1.0692,0.0425,0.0476,0.0578,0.0831,0.0876,0.0868,0.0808,0.0806,0.0958,0.1462,0.1563,0.1714,0.2219,0.2269,0.2269,0.2269,0.2069,0.1969,0.1969,0.1717,0.1212,0.0404,0.0757,0.1161,0.1566,0.1617,0.1617,0.1617,0.1617,0.1617,0.1617,0.217,0.2422,0.2422,0.2977,0.318,0.318,0.318,0.318,0.318,0.318,0.318,0.318,0.318,0.318,0.318,0.318,0.318,0.318,0.318,0.318,0.318,0.318,0.318,0.318,0.318,0.318,0.318,0.318,0.318,0.318,0.318,0.318,0.318,0.318,0.318,0.318,0.318,0.318,0.318,0.318,0.318,0.3192,0.323,0.0,0.3335,0.3372,0.4068,0.4755,0.5184,0.7002,0.8394,0.8835,0.9991,1.0692,1.0692,1.0692,1.0692,1.0692,1.0692,1.0664,1.0595,1.0355,1.0172,1.011,0.988,0.9786,0.9786,0.9681,0.9579,0.9579,0.9579,0.9685,0.9791,0.9855,1.0054,1.0335,1.0404,1.0538,1.0692,1.0692,1.0692,1.0692,1.0692,1.0692,1.0692,0.1297,0.1401,0.1444,0.169,0.1671,0.1652,0.158,0.1569,0.1765,0.232,0.2371,0.2573,0.313,0.318,0.318,0.318,0.2725,0.2422,0.2422,0.1919,0.1617,0.1617,0.1617,0.1617,0.1617,0.1617,0.1617,0.1617,0.1617,0.1667,0.1718,0.217,0.2422,0.2522,0.2977,0.318,0.318,0.318,0.318,0.318,0.318,0.318,0.318,0.318,0.318,0.318,0.318,0.318,0.318,0.318,0.318,0.318,0.318,0.318,0.318,0.318,0.318,0.318,0.318,0.318,0.318,0.318,0.318,0.318,0.318,0.318,0.318,0.318,0.318,0.318,0.318,0.3195,0.3221,0.3315,0.3665,0.3918,0.3967,0.5058,0.5875,0.5875,0.7645,0.892,0.892,0.9974,1.0692,1.0692,1.0692,1.0692,1.0692,1.0692,1.0692,1.0692,1.0578,1.0456,1.0384,1.0143,0.9973,0.9969,0.9791,0.9709,0.9709,0.9709,0.9774,0.9892,1.0006,1.0201,1.0387,1.0493,1.0586,1.0692,1.0692,1.0692,1.0692,1.0692,1.0692,1.0692,0.2065,0.2212,0.2461,0.3332,0.3399,0.3323,0.3322,0.3219,0.3181,0.318,0.318,0.318,0.318,0.318,0.318,0.318,0.2725,0.2422,0.2422,0.1919,0.1617,0.1617,0.1617,0.1617,0.1617,0.1617,0.1617,0.1617,0.1617,0.1718,0.2022,0.2271,0.2522,0.2826,0.3079,0.318,0.318,0.318,0.318,0.318,0.318,0.318,0.318,0.318,0.318,0.318,0.318,0.318,0.318,0.318,0.318,0.318,0.318,0.318,0.318,0.318,0.318,0.318,0.318,0.318,0.318,0.318,0.318,0.318,0.318,0.318,0.318,0.318,0.318,0.318,0.318,0.3281,0.3322,0.3322,0.4431,0.5289,0.5291,0.6354,0.7138,0.7138,0.8195,0.8923,0.8923,0.9974,1.0692,1.0692,1.0692,1.0692,1.0692,1.0692,1.0692,1.0692,1.0692,1.0692,1.0692,1.0392,1.0216,1.0212,0.9977,0.9888,0.9888,0.9888,0.9888,0.9908,1.0278,1.0383,1.0395,1.0623,1.0692,1.0692,1.0692,1.0692,1.0692,1.0692,1.0692,1.0692,0.3135,0.3182,0.327,0.3449,0.3467,0.3417,0.3334,0.3307,0.3228,0.3185,0.318,0.318,0.318,0.318,0.318,0.318,0.2876,0.2523,0.2122,0.197,0.1819,0.1617,0.1617,0.1617,0.1617,0.1768,0.187,0.187,0.207,0.2221,0.2271,0.2574,0.2725,0.2826,0.3079,0.318,0.318,0.318,0.318,0.318,0.318,0.318,0.318,0.318,0.318,0.318,0.318,0.318,0.318,0.318,0.318,0.318,0.318,0.318,0.318,0.318,0.318,0.318,0.318,0.318,0.318,0.318,0.318,0.318,0.318,0.318,0.318,0.318,0.318,0.318,0.318,0.3281,0.3594,0.4476,0.4998,0.5582,0.6418,0.7616,0.8364,0.8364,0.9416,1.0139,1.0139,1.0472,1.0692,1.0692,1.0692,1.0692,1.0692,1.0692,1.0692,1.0692,1.0692,1.0692,1.0692,1.0465,1.0355,1.0351,1.0168,1.0131,1.0131,1.0131,1.0152,1.0278,1.0387,1.0505,1.0619,1.0672,1.0692,1.0692,1.0692,1.0692,1.0692,1.0692,1.0692,1.0692,0.3587,0.3587,0.3575,0.354,0.3512,0.3465,0.3372,0.3337,0.33,0.3188,0.318,0.318,0.318,0.318,0.318,0.318,0.2977,0.2624,0.2171,0.2171,0.207,0.1919,0.1919,0.1869,0.1768,0.1921,0.2071,0.2171,0.2321,0.2472,0.2573,0.2725,0.2876,0.2977,0.313,0.318,0.318,0.318,0.318,0.318,0.318,0.318,0.318,0.318,0.318,0.318,0.318,0.318,0.318,0.318,0.318,0.318,0.318,0.318,0.318,0.318,0.318,0.318,0.318,0.318,0.3281,0.3732,0.3531,0.318,0.318,0.318,0.3331,0.3732,0.3831,0.3982,0.4381,0.4219,0.4203,0.4984,0.526,0.5746,0.6908,0.814,0.892,0.892,0.997,1.0523,1.0029,1.0417,1.0692,1.0692,1.0692,1.0692,1.0692,1.0692,1.0692,1.0692,1.0692,1.0692,1.0692,1.059,1.0538,1.0534,1.0355,1.027,1.027,1.027,1.0331,1.0387,1.0455,1.0595,1.0692,1.0692,1.0692,1.0692,1.0692,1.0692,1.0692,1.0692,1.0692,1.0692,0.3587,0.3587,0.3587,0.3587,0.3541,0.3485,0.3428,0.3368,0.3308,0.3196,0.3184,0.318,0.318,0.318,0.318,0.318,0.2977,0.2725,0.2472,0.2422,0.2422,0.2422,0.2422,0.2322,0.2071,0.2071,0.2171,0.2422,0.2472,0.2573,0.2826,0.2826,0.2977,0.318,0.318,0.318,0.318,0.318,0.318,0.318,0.318,0.318,0.318,0.318,0.318,0.318,0.318,0.318,0.318,0.318,0.3281,0.3331,0.323,0.3281,0.3331,0.323,0.3281,0.3331,0.3331,0.343,0.3732,0.4682,0.4232,0.3481,0.3481,0.3481,0.3781,0.4734,0.4885,0.5085,0.6087,0.5597,0.5047,0.5159,0.5473,0.6091,0.7249,0.8361,0.9085,0.9085,1.0029,1.0249,0.9144,1.0029,1.0692,1.0692,1.0692,1.0692,1.0692,1.0692,1.0692,1.0692,1.0692,1.0692,1.0692,1.0692,1.0692,1.0688,1.0534,1.0407,1.0407,1.0407,1.0407,1.0415,1.0623,1.0692,1.0692,1.0692,1.0692,1.0692,1.0692,1.0692,1.0692,1.0692,1.0692,1.0692,0.3587,0.3587,0.3587,0.3587,0.3576,0.3548,0.3488,0.3429,0.3371,0.3309,0.3209,0.318,0.318,0.318,0.318,0.318,0.313,0.2977,0.2725,0.2725,0.2623,0.2422,0.2422,0.2472,0.2624,0.2624,0.2675,0.2725,0.2927,0.3079,0.313,0.313,0.313,0.318,0.318,0.318,0.318,0.318,0.318,0.318,0.318,0.318,0.318,0.318,0.318,0.318,0.318,0.318,0.318,0.318,0.3783,0.4284,0.3482,0.3783,0.4282,0.343,0.3783,0.4433,0.4433,0.5081,0.5774,0.5974,0.5877,0.5727,0.5727,0.5727,0.5777,0.6027,0.5381,0.4905,0.5173,0.5179,0.5492,0.6478,0.7486,0.8533,0.9746,1.0135,1.0304,1.0304,1.0527,1.0582,1.0359,1.0527,1.0692,1.0692,1.0692,1.0692,1.0692,1.0692,1.0692,1.0692,1.0692,1.0692,1.0692,1.0692,1.0692,1.0692,1.0655,1.0635,1.0635,1.0635,1.0635,1.0639,1.0676,1.0692,1.0692,1.0692,1.0692,1.0692,1.0692,1.0692,1.0692,1.0692,1.0692,1.0692,0.3587,0.3587,0.3587,0.3587,0.3587,0.3567,0.3506,0.3471,0.3421,0.3332,0.3293,0.3212,0.3184,0.318,0.318,0.318,0.318,0.313,0.2977,0.2977,0.2927,0.2775,0.2775,0.2826,0.2977,0.2977,0.2977,0.2977,0.313,0.318,0.318,0.318,0.318,0.318,0.318,0.318,0.318,0.318,0.318,0.318,0.318,0.318,0.318,0.318,0.318,0.318,0.318,0.3531,0.4033,0.4529,0.5079,0.5479,0.4878,0.5129,0.5429,0.4878,0.5129,0.5579,0.5579,0.5977,0.6523,0.7021,0.717,0.7021,0.6523,0.6027,0.5779,0.6274,0.5977,0.5761,0.6379,0.6654,0.6984,0.7753,0.7941,0.8475,0.9695,0.986,1.0029,1.0637,1.0692,1.0692,1.0692,1.0692,1.0692,1.0692,1.0692,1.0692,1.0692,1.0692,1.0692,1.0692,1.0692,1.0692,1.0692,1.0692,1.0692,1.0692,1.0692,1.0692,1.0692,1.0692,1.0692,1.0692,1.0692,1.0692,1.0692,1.0692,1.0692,1.0692,1.0692,1.0692,1.0692,1.0692,1.0692,1.0692,0.3587,0.3587,0.3587,0.3587,0.3587,0.3571,0.3519,0.3503,0.3462,0.3364,0.3334,0.3301,0.3201,0.3187,0.318,0.318,0.318,0.318,0.318,0.318,0.318,0.318,0.318,0.318,0.318,0.318,0.318,0.313,0.313,0.313,0.313,0.313,0.318,0.318,0.318,0.318,0.318,0.318,0.3331,0.3482,0.3482,0.3581,0.3731,0.3731,0.3731,0.3731,0.3731,0.4342,0.526,0.6178,0.6637,0.6734,0.6536,0.6637,0.6734,0.6536,0.6637,0.6785,0.6785,0.6888,0.724,0.8149,0.8399,0.8149,0.724,0.6308,0.5837,0.6553,0.6706,0.7054,0.8138,0.8431,0.8511,0.871,0.8172,0.8082,0.9085,0.9199,0.9585,1.0582,1.0692,1.0692,1.0692,1.0692,1.0692,1.0637,1.0692,1.0692,1.0637,1.0692,1.0692,1.0692,1.0692,1.0692,1.0692,1.0692,1.0692,1.0692,1.0692,1.0692,1.0692,1.0692,1.0692,1.0692,1.0692,1.0692,1.0692,1.0692,1.0692,1.0692,1.0692,1.0692,1.0692,1.0692,1.0692,1.0692,0.3587,0.3587,0.3587,0.3587,0.3587,0.3585,0.3576,0.353,0.3491,0.3474,0.3384,0.3319,0.3311,0.3211,0.318,0.318,0.318,0.318,0.318,0.318,0.318,0.318,0.318,0.318,0.318,0.318,0.3079,0.2876,0.2876,0.2876,0.2876,0.2876,0.2977,0.318,0.318,0.318,0.318,0.318,0.3732,0.4583,0.4583,0.5131,0.5974,0.5974,0.5974,0.5974,0.5974,0.6189,0.6497,0.681,0.7522,0.8147,0.7212,0.7574,0.8144,0.7212,0.7574,0.83,0.83,0.8983,0.972,0.9876,0.988,0.9876,0.972,0.9287,0.8766,0.8143,0.8069,0.8152,0.8584,0.8705,0.877,0.8866,0.9625,1.0249,1.0414,1.0468,1.0527,1.0692,1.0692,1.0692,1.0692,1.0692,1.0582,1.0366,1.0582,1.0582,1.0366,1.0582,1.0692,1.0692,1.0692,1.0692,1.0692,1.0692,1.0692,1.0692,1.0692,1.0692,1.0692,1.0692,1.0692,1.0692,1.0692,1.0692,1.0692,1.0692,1.0692,1.0692,1.0692,1.0692,1.0692,1.0692,1.0692,1.0692,0.3587,0.3587,0.3587,0.3587,0.3587,0.3587,0.3587,0.3564,0.3536,0.35,0.3451,0.3407,0.3376,0.3318,0.3216,0.3183,0.318,0.318,0.318,0.318,0.318,0.318,0.318,0.318,0.318,0.318,0.338,0.3677,0.383,0.363,0.3029,0.363,0.3982,0.4083,0.4083,0.4433,0.4979,0.4979,0.5279,0.5684,0.5795,0.6123,0.6585,0.6705,0.6733,0.6836,0.7398,0.7692,0.7862,0.8556,0.9104,0.9418,0.8947,0.9104,0.9421,0.8947,0.9108,0.9474,0.9474,0.9843,1.0212,1.0212,1.0212,1.0056,0.9418,0.9618,0.9638,0.867,0.8477,0.8546,0.8709,0.9291,0.9727,0.9892,1.0359,1.0692,1.0692,1.0692,1.0637,1.0472,1.0476,1.0476,1.0476,1.0308,1.0257,1.0312,1.0257,1.0257,1.0312,1.0257,1.0363,1.0692,1.0527,1.0527,1.0692,1.0692,1.0692,1.0692,1.0692,1.0692,1.0692,1.0692,1.0692,1.0692,1.0692,1.0692,1.0692,1.0692,1.0692,1.0692,1.0692,1.0692,1.0692,1.0692,1.0692,1.0692]},{"header":{"parameterUnit":"m.s-1","parameterCategory":1,"la1":30.6,"la2":28.766,"lo1":-90.7593,"lo2":-88.6598,"dy":0.0162,"dx":0.0183,"nx":116,"ny":114,"refTime":"2023-08-19T06:00:00:Z","depth":0,"parameterNumber":3,"parameterNumberName":"V-component_of_WINDS"},"data":[0.0,0.0,0.0,0.0,0.0,0.0,0.0,0.0,0.0,0.0,0.0,0.0,0.0,0.0,0.0,0.0,0.0,0.0,0.0,0.0,0.0,0.0,0.0,0.0,0.0,0.0,0.0,0.0,0.0,0.0,0.0,0.0,0.0,0.0,0.0,0.0,0.0,0.0,0.0,0.0,0.0,0.0,0.0,0.0,0.0,0.0,0.0,0.0,0.0,0.0,0.0,0.0,0.0,0.0,0.0,0.0,0.0,0.0,0.0,0.0,0.0,0.0,0.0,0.0,0.0,0.0,0.0,0.0,0.0,0.0,0.0,0.0,0.0,0.0,0.0,0.0,0.0,0.0,0.0,0.0,0.0,0.0,0.0,0.0,0.0,0.0,0.0,0.0,0.0,0.0,0.0,0.0,0.0,0.0,0.0,0.0,0.0,0.0,0.0,0.0,0.0,0.0,0.0,0.0,0.0,0.0,0.0,0.0,0.0,0.0,0.0,0.0,0.0,0.0,0.0,0.0,0.0,0.0,0.0,0.0,0.0,0.0,0.0,0.0,0.0,0.0,0.0,0.0,0.0,0.0,0.0,0.0,0.0,0.0,0.0,0.0,0.0,0.0,0.0,0.0,0.0,0.0,0.0,0.0,0.0,0.0,0.0,0.0,0.0,0.0,0.0,0.0,0.0,0.0,0.0,0.0,0.0,0.0,0.0,0.0,0.0,0.0,0.0,0.0,0.0,0.0,0.0,0.0,0.0,0.0,0.0,0.0,0.0,0.0,0.0,0.0,0.0,0.0,0.0,0.0,0.0,0.0,0.0,0.0,0.0,0.0,0.0,0.0,0.0,0.0,0.0,0.0,0.0,0.0,0.0,0.0,0.0,0.0,0.0,0.0,0.0,0.0,0.0,0.0,0.0,0.0,0.0,0.0,0.0,0.0,0.0,0.0,0.0,0.0,0.0,0.0,0.0,0.0,0.0,0.0,0.0,0.0,0.0,0.0,0.0,0.0,0.0,0.0,0.0,0.0,0.0,0.0,0.0,0.0,0.0,0.0,0.0,0.0,0.0,0.0,0.0,0.0,0.0,0.0,0.0,0.0,0.0,0.0,0.0,0.0,0.0,0.0,0.0,0.0,0.0,0.0,0.0,0.0,0.0,0.0,0.0,0.0,0.0,0.0,0.0,0.0,0.0,0.0,0.0,0.0,0.0,0.0,0.0,0.0,0.0,0.0,0.0,0.0,0.0,0.0,0.0,0.0,0.0,0.0,0.0,0.0,0.0,0.0,0.0,0.0,0.0,0.0,0.0,0.0,0.0,0.0,0.0,0.0,0.0,0.0,0.0,0.0,0.0,0.0,0.0,0.0,0.0,0.0,0.0,0.0,0.0,0.0,0.0,0.0,0.0,0.0,0.0,0.0,0.0,0.0,0.0,0.0,0.0,0.0,0.0,0.0,0.0,0.0,0.0,0.0,0.0,0.0,0.0,0.0,0.0,0.0,0.0,0.0,0.0,0.0,0.0,0.0,0.0,0.0,0.0,0.0,0.0,0.0,0.0,0.0,0.0,0.0,0.0,0.0,0.0,0.0,0.0,0.0,0.0,0.0,0.0,0.0,0.0,0.0,0.0,0.0,0.0,0.0,0.0,0.0,0.0,0.0,0.0,0.0,0.0,0.0,0.0,0.0,0.0,0.0,0.0,0.0,0.0,0.0,0.0,0.0,0.0,0.0,0.0,0.0,0.0,0.0,0.0,0.0,0.0,0.0,0.0,0.0,0.0,0.0,0.0,0.0,0.0,0.0,0.0,0.0,0.0,0.0,0.0,0.0,0.0,0.0,0.0,0.0,0.0,0.0,0.0,0.0,0.0,0.0,0.0,0.0,0.0,0.0,0.0,0.0,0.0,0.0,0.0,0.0,0.0,0.0,0.0,0.0,0.0,0.0,0.0,0.0,0.0,0.0,0.0,0.0,0.0,0.0,0.0,0.0,0.0,0.0,0.0,0.0,0.0,0.0,0.0,0.0,0.0,0.0,0.0,0.0,0.0,0.0,0.0,0.0,0.0,0.0,0.0,0.0,0.0,0.0,0.0,0.0,0.0,0.0,0.0,0.0,0.0,0.0,0.0,0.0,0.0,0.0,0.0,0.0,0.0,0.0,0.0,0.0,0.0,0.0,0.0,0.0,0.0,0.0,0.0,0.0,0.0,0.0,0.0,0.0,0.0,0.0,0.0,0.0,0.0,0.0,0.0,0.0,0.0,0.0,0.0,0.0,0.0,0.0,0.0,0.0,0.0,0.0,0.0,0.0,0.0,0.0,0.0,0.0,0.0,0.0,0.0,0.0,0.0,0.0,0.0,0.0,0.0,0.0,0.0,0.0,0.0,0.0,0.0,0.0,0.0,0.0,0.0,0.0,0.0,0.0,0.0,0.0,0.0,0.0,0.0,0.0,0.0,0.0,0.0,0.0,0.0,0.0,0.0,0.0,0.0,0.0,0.0,0.0,0.0,0.0,0.0,0.0,0.0,0.0,0.0,0.0,0.0,0.0,0.0,0.0,0.0,0.0,0.0,0.0,0.0,0.0,0.0,0.0,0.0,0.0,0.0,0.0,0.0,0.0,0.0,0.0,0.0,0.0,0.0,0.0,0.0,0.0,0.0,0.0,0.0,0.0,0.0,0.0,0.0,0.0,0.0,0.0,0.0,0.0,0.0,0.0,0.0,0.0,0.0,0.0,0.0,0.0,0.0,0.0,0.0,0.0,0.0,0.0,0.0,0.0,0.0,0.0,0.0,0.0,0.0,0.0,0.0,0.0,0.0,0.0,0.0,0.0,0.0,0.0,0.0,0.0,0.0,0.0,0.0,0.0,0.0,0.0,0.0,0.0,0.0,0.0,0.0,0.0,0.0,0.0,0.0,0.0,0.0,0.0,0.0,0.0,0.0,0.0,0.0,0.0,0.0,0.0,0.0,0.0,0.0,0.0,0.0,0.0,0.0,0.0,0.0,0.0,0.0,0.0,0.0,0.0,0.0,0.0,0.0,0.0,0.0,0.0,0.0,0.0,0.0,0.0,0.0,0.0,0.0,0.0,0.0,0.0,0.0,0.0,0.0,0.0,0.0,0.0,0.0,0.0,0.0,0.0,0.0,0.0,0.0,0.0,0.0,0.0,0.0,0.0,0.0,0.0,0.0,0.0,0.0,0.0,0.0,0.0,0.0,0.0,0.0,0.0,0.0,0.0,0.0,0.0,0.0,0.0,0.0,0.0,0.0,0.0,0.0,0.0,0.0,0.0,0.0,0.0,0.0,0.0,0.0,0.0,0.0,0.0,0.0,0.0,0.0,0.0,0.0,0.0,0.0,0.0,0.0,0.0,0.0,0.0,0.0,0.0,0.0,0.0,0.0,0.0,0.0,0.0,0.0,0.0,0.0,0.0,0.0,0.0,0.0,0.0,0.0,0.0,0.0,0.0,0.0,0.0,0.0,0.0,0.0,0.0,0.0,0.0,0.0,0.0,0.0,0.0,0.0,0.0,0.0,0.0,0.0,0.0,0.0,0.0,0.0,0.0,0.0,0.0,0.0,0.0,0.0,0.0,0.0,0.0,0.0,0.0,0.0,0.0,0.0,0.0,0.0,0.0,0.0,0.0,0.0,0.0,0.0,0.0,0.0,0.0,0.0,0.0,0.0,0.0,0.0,0.0,0.0,0.0,0.0,0.0,0.0,0.0,0.0,0.0,0.0,0.0,0.0,0.0,0.0,0.0,0.0,0.0,0.0,0.0,0.0,0.0,0.0,0.0,0.0,0.0,0.0,0.0,0.0,0.0,0.0,0.0,0.0,0.0,0.0,0.0,0.0,0.0,0.0,0.0,0.0,0.0,0.0,0.0,0.0,0.0,0.0,0.0,0.0,0.0,0.0,0.0,0.0,0.0,0.0,0.0,0.0,0.0,0.0,0.0,0.0,0.0,0.0,0.0,0.0,0.0,0.0,0.0,0.0,0.0,0.0,0.0,0.0,0.0,0.0,0.0,0.0,0.0,0.0,0.0,0.0,0.0,0.0,0.0,0.0,0.0,0.0,0.0,0.0,0.0,0.0,0.0,0.0,0.0,0.0,0.0,0.0,0.0,0.0,0.0,0.0,0.0,0.0,0.0,0.0,0.0,0.0,0.0,0.0,0.0,0.0,0.0,0.0,0.0,0.0,0.0,0.0,0.0,0.0,0.0,0.0,0.0,0.0,0.0,0.0,0.0,0.0,0.0,0.0,0.0,0.0,0.0,0.0,0.0,0.0,0.0,0.0,0.0,0.0,0.0,0.0,0.0,0.0,0.0,0.0,0.0,0.0,0.0,0.0,0.0,0.0,0.0,0.0,0.0,0.0,0.0,0.0,0.0,0.0,0.0,0.0,0.0,0.0,0.0,0.0,0.0,0.0,0.0,0.0,0.0,0.0,0.0,0.0,0.0,0.0,0.0,0.0,0.0,0.0,0.0,0.0,0.0,0.0,0.0,0.0,0.0,0.0,0.0,0.0,0.0,0.0,0.0,0.0,0.0,0.0,0.0,0.0,0.0,0.0,0.0,0.0,0.0,0.0,0.0,0.0,0.0,0.0,0.0,0.0,0.0,0.0,0.0,0.0,0.0,0.0,0.0,0.0,0.0,0.0,0.0,0.0,0.0,0.0,0.0,0.0,0.0,0.0,0.0,0.0,0.0,0.0,0.0,0.0,0.0,0.0,0.0,0.0,0.0,0.0,0.0,0.0,0.0,0.0,0.0,0.0,0.0,0.0,0.0,0.0,0.0,0.0,0.0,0.0,0.0,0.0,0.0,0.0,0.0,0.0,0.0,0.0,0.0,0.0,0.0,0.0,0.0,0.0,0.0,0.0,0.0,0.0,0.0,0.0,0.0,0.0,0.0,0.0,0.0,0.0,0.0,0.0,0.0,0.0,0.0,0.0,0.0,0.0,0.0,0.0,0.0,0.0,0.0,0.0,0.0,0.0,0.0,0.0,0.0,0.0,0.0,0.0,0.0,0.0,0.0,0.0,0.0,0.0,0.0,0.0,0.0,0.0,0.0,0.0,0.0,0.0,0.0,0.0,0.0,0.0,0.0,0.0,0.0,0.0,0.0,0.0,0.0,0.0,0.0,0.0,0.0,0.0,0.0,0.0,0.0,0.0,0.0,0.0,0.0,0.0,0.0,0.0,0.0,0.0,0.0,0.0,0.0,0.0,0.0,0.0,0.0,0.0,0.0,0.0,0.0,0.0,0.0,0.0,0.0,0.0,0.0,0.0,0.0,0.0,0.0,0.0,0.0,0.0,0.0,0.0,0.0,0.0,0.0,0.0,0.0,0.0,0.0,0.0,0.0,0.0,0.0,0.0,0.0,0.0,0.0,0.0,0.0,0.0,0.0,0.0,0.0,0.0,0.0,0.0,0.0,0.0,0.0,0.0,0.0,0.0,0.0,0.0,0.0,0.0,0.0,0.0,0.0,0.0,0.0,0.0,0.0,0.0,0.0,0.0,0.0,0.0,0.0,0.0,0.0,0.0,0.0,0.0,0.0,0.0,0.0,0.0,0.0,0.0,0.0,0.0,0.0,0.0,0.0,0.0,0.0,0.0,0.0,0.0,0.0,0.0,0.0,0.0,0.0,0.0,0.0,0.0,0.0,0.0,0.0,0.0,0.0,0.0,0.0,0.0,0.0,0.0,0.0,0.0,0.0,0.0,0.0,0.0,0.0,0.0,0.0,0.0,0.0,0.0,0.0,0.0,0.0,0.0,0.0,0.0,0.0,0.0,0.0,0.0,0.0,0.0,0.0,0.0,0.0,0.0,0.0,0.0,0.0,0.0,0.0,0.0,0.0,0.0,0.0,0.0,0.0,0.0,0.0,0.0,0.0,0.0,0.0,0.0,0.0,0.0,0.0,0.0,0.0,0.0,0.0,0.0,0.0,0.0,0.0,0.0,0.0,0.0,0.0,0.0,0.0,0.0,0.0,0.0,0.0,0.0,0.0,0.0,0.0,0.0,0.0,0.0,0.0,0.0,0.0,0.0,0.0,0.0,0.0,0.0,0.0,0.0,0.0,0.0,0.0,0.0,0.0,0.0,0.0,0.0,0.0,0.0,0.0,3.5864,0.0,0.0,0.0,0.0,0.0,0.0,0.0,0.0,0.0,0.0,0.0,0.0,0.0,0.0,0.0,0.0,0.0,0.0,0.0,0.0,0.0,0.0,0.0,0.0,0.0,0.0,0.0,0.0,0.0,0.0,0.0,0.0,0.0,0.0,0.0,0.0,0.0,0.0,0.0,3.7613,3.7631,3.7411,3.6937,3.6557,3.6224,0.0,0.0,0.0,0.0,0.0,0.0,0.0,0.0,0.0,0.0,0.0,0.0,0.0,0.0,0.0,0.0,0.0,0.0,0.0,0.0,0.0,0.0,0.0,0.0,0.0,0.0,0.0,0.0,0.0,0.0,0.0,0.0,0.0,0.0,0.0,0.0,0.0,0.0,0.0,0.0,0.0,0.0,0.0,0.0,0.0,0.0,0.0,0.0,0.0,0.0,0.0,0.0,0.0,0.0,0.0,0.0,0.0,0.0,0.0,0.0,0.0,0.0,0.0,0.0,0.0,0.0,0.0,0.0,0.0,0.0,0.0,3.541,0.0,0.0,0.0,0.0,0.0,0.0,0.0,0.0,0.0,0.0,0.0,0.0,0.0,0.0,0.0,0.0,0.0,0.0,0.0,0.0,0.0,0.0,0.0,0.0,0.0,0.0,0.0,0.0,0.0,0.0,0.0,0.0,0.0,0.0,0.0,3.7667,3.7649,3.7595,3.7649,3.7558,3.7357,3.7113,3.7017,3.6978,3.6516,0.0,0.0,0.0,0.0,0.0,0.0,0.0,0.0,0.0,0.0,0.0,0.0,0.0,0.0,0.0,0.0,0.0,0.0,0.0,0.0,0.0,0.0,0.0,0.0,0.0,0.0,0.0,0.0,0.0,0.0,0.0,0.0,0.0,0.0,0.0,0.0,0.0,0.0,0.0,0.0,0.0,0.0,0.0,0.0,0.0,0.0,0.0,0.0,0.0,0.0,0.0,0.0,0.0,0.0,0.0,0.0,0.0,0.0,0.0,0.0,0.0,0.0,0.0,3.6,3.5758,3.5679,3.5679,3.5388,3.4888,3.5015,3.5059,3.5046,0.0,0.0,0.0,0.0,0.0,0.0,0.0,0.0,0.0,0.0,0.0,0.0,0.0,0.0,0.0,0.0,0.0,0.0,0.0,0.0,0.0,0.0,4.4473,4.435,4.4106,4.4079,4.3952,0.0,0.0,0.0,0.0,0.0,0.0,3.8135,3.795,3.7757,3.7595,3.7757,3.7934,3.8072,3.7614,3.7432,3.7377,3.6701,3.6156,3.5795,0.0,0.0,0.0,0.0,0.0,0.0,0.0,0.0,0.0,0.0,0.0,0.0,0.0,0.0,0.0,0.0,0.0,0.0,0.0,0.0,0.0,0.0,0.0,0.0,0.0,0.0,0.0,0.0,0.0,0.0,0.0,0.0,0.0,0.0,0.0,0.0,0.0,0.0,0.0,0.0,0.0,3.9785,3.916,0.0,0.0,0.0,0.0,0.0,0.0,0.0,0.0,0.0,0.0,0.0,0.0,0.0,3.6303,3.6398,3.6398,3.6389,3.6413,3.6282,3.6016,3.5608,3.5608,3.5308,3.4797,3.4824,0.0,3.4878,3.4407,0.0,0.0,0.0,0.0,0.0,0.0,0.0,0.0,0.0,0.0,0.0,0.0,0.0,0.0,0.0,0.0,0.0,0.0,0.0,0.0,0.0,4.456,4.444,4.4335,4.4321,4.4071,4.3521,0.0,0.0,0.0,0.0,3.9528,3.8603,3.8512,3.835,3.8168,3.8203,3.8254,3.8305,3.8052,3.7862,3.7667,3.7414,3.688,3.6156,3.6284,0.0,0.0,0.0,0.0,0.0,0.0,0.0,0.0,0.0,0.0,0.0,0.0,0.0,0.0,0.0,0.0,0.0,0.0,0.0,0.0,0.0,0.0,0.0,0.0,0.0,0.0,0.0,0.0,0.0,0.0,0.0,0.0,0.0,0.0,0.0,0.0,0.0,0.0,0.0,3.9326,3.9178,3.9006,3.8434,3.7914,0.0,0.0,0.0,0.0,0.0,0.0,0.0,0.0,0.0,3.5824,3.5824,3.5993,3.6346,3.6333,3.6336,3.6336,3.6051,3.581,3.5594,3.5594,3.5481,3.5253,3.5253,3.5275,3.5265,3.4616,3.4311,3.4166,0.0,0.0,0.0,0.0,3.3598,3.3751,0.0,0.0,0.0,0.0,0.0,0.0,0.0,0.0,0.0,0.0,0.0,0.0,4.4912,4.4782,4.4681,4.4667,4.4648,4.4288,4.3418,4.3141,0.0,0.0,4.0239,3.9737,3.8997,3.8946,3.8869,3.8744,3.8628,3.8554,3.8491,3.8385,3.8186,3.7947,3.8068,3.7578,3.6623,3.6661,3.6478,3.6156,0.0,0.0,0.0,0.0,0.0,0.0,0.0,0.0,0.0,0.0,0.0,0.0,0.0,0.0,0.0,0.0,0.0,0.0,0.0,0.0,0.0,0.0,0.0,0.0,0.0,0.0,0.0,0.0,0.0,0.0,0.0,0.0,0.0,0.0,0.0,0.0,0.0,3.8687,3.8602,3.8537,3.7974,3.7415,0.0,0.0,0.0,0.0,0.0,0.0,3.5442,3.5081,3.5105,3.5599,3.5638,3.5837,3.6301,3.6301,3.6301,3.6301,3.5941,3.5771,3.5771,3.5771,3.5771,3.5771,3.5771,3.5771,3.5727,3.4948,3.464,3.4552,3.4087,3.3862,3.3836,3.4046,3.4186,3.4374,0.0,0.0,0.0,0.0,0.0,0.0,0.0,0.0,0.0,0.0,0.0,4.5472,4.5207,4.5227,4.5206,4.5085,4.5063,4.4627,4.3567,4.2731,4.182,4.0822,3.9802,3.9234,3.9183,3.9059,3.9049,3.9165,3.8915,3.8789,3.8774,3.8523,3.8382,3.8366,3.8446,3.8013,3.7249,3.698,3.6803,3.6626,3.6301,0.0,0.0,0.0,0.0,0.0,0.0,0.0,0.0,0.0,0.0,0.0,0.0,0.0,0.0,0.0,0.0,0.0,0.0,0.0,0.0,0.0,0.0,0.0,0.0,0.0,0.0,0.0,0.0,0.0,0.0,0.0,0.0,0.0,0.0,0.0,0.0,0.0,0.0,3.7101,3.7541,0.0,0.0,0.0,0.0,3.6041,3.5975,3.6019,3.6144,3.6122,3.6148,3.6259,3.6259,3.628,3.6301,3.6301,3.6301,3.6301,3.628,3.6259,3.6259,3.6259,3.6259,3.6259,3.6259,3.6259,3.6195,3.5191,3.4704,3.46,3.4712,3.4576,3.4455,3.5301,3.5526,3.5504,0.0,0.0,0.0,0.0,0.0,0.0,0.0,0.0,0.0,4.5771,4.5665,4.5563,4.5477,4.5351,4.5285,4.5226,4.5216,4.4611,4.3153,4.2601,4.1688,4.0269,3.9739,3.9477,3.9526,3.9556,3.9549,3.9525,3.9377,3.9287,3.9234,3.8886,3.8778,3.884,3.8701,3.8481,3.8185,3.7808,3.7505,3.7154,3.6721,3.6498,0.0,0.0,0.0,0.0,0.0,0.0,0.0,0.0,0.0,0.0,0.0,0.0,0.0,0.0,0.0,0.0,0.0,0.0,0.0,0.0,0.0,0.0,0.0,0.0,0.0,0.0,0.0,0.0,0.0,0.0,0.0,0.0,0.0,0.0,0.0,0.0,0.0,3.7358,3.7649,0.0,3.7094,3.6803,3.6643,3.6597,3.6326,3.6216,3.6255,3.6255,3.6276,3.6301,3.6301,3.6301,3.6301,3.6301,3.6301,3.6301,3.6301,3.6301,3.6301,3.6402,3.6423,3.6423,3.6523,3.6544,3.6523,3.6174,3.5941,3.5776,3.5442,3.5289,3.5278,3.5537,3.5599,3.5644,0.0,0.0,0.0,0.0,0.0,0.0,0.0,0.0,0.0,4.5906,4.5808,4.5728,4.5728,4.5627,4.5528,4.5505,4.5496,4.4759,4.2989,4.2621,4.1724,4.0048,3.9792,3.9731,3.9837,3.9922,3.9943,3.9903,3.9781,3.9682,3.9635,3.9268,3.9154,3.9232,3.9045,3.8921,3.8822,3.8554,3.8148,3.7667,3.7154,3.6962,3.6943,0.0,0.0,0.0,0.0,0.0,0.0,0.0,0.0,0.0,0.0,0.0,0.0,0.0,0.0,0.0,0.0,0.0,0.0,0.0,0.0,0.0,0.0,0.0,0.0,0.0,0.0,0.0,0.0,0.0,0.0,0.0,0.0,0.0,0.0,0.0,3.7948,3.7542,3.7895,3.7981,3.7542,3.7285,3.7154,3.7113,3.6739,3.6512,3.6512,3.6367,3.6301,3.6301,3.6301,3.6322,3.6381,3.6381,3.6402,3.6423,3.6423,3.6423,3.6444,3.6523,3.6582,3.6564,3.6643,3.6702,3.6702,3.6702,3.6664,3.6547,3.6156,3.6011,3.6054,3.6054,3.6032,3.6049,0.0,0.0,0.0,0.0,0.0,0.0,0.0,4.6115,4.6054,4.5922,4.5966,4.6003,4.6003,4.6005,4.5964,4.5912,4.5906,4.5077,4.3145,4.2766,4.1857,4.0186,3.9969,3.9975,4.0098,4.0108,4.0176,4.0291,4.0038,3.9914,3.9914,3.9647,3.9495,3.9495,3.9495,3.9363,3.9115,3.9096,3.8733,3.81,3.7685,3.7523,3.7523,0.0,0.0,0.0,0.0,0.0,0.0,0.0,0.0,0.0,0.0,0.0,0.0,0.0,0.0,0.0,0.0,0.0,0.0,0.0,0.0,0.0,0.0,0.0,0.0,0.0,0.0,0.0,0.0,0.0,0.0,0.0,0.0,0.0,3.8477,3.8172,3.8001,3.7613,3.8254,3.8401,3.7614,3.7896,3.7948,3.7542,3.7133,3.6919,3.6919,3.6557,3.6326,3.6326,3.6381,3.644,3.6579,3.6596,3.6655,3.6792,3.6771,3.6771,3.6792,3.6792,3.6812,3.6795,3.6832,3.6832,3.6832,3.6832,3.6856,3.6901,3.6826,3.6766,3.6763,3.6965,3.6983,3.6901,0.0,0.0,0.0,0.0,0.0,0.0,0.0,4.6545,4.6131,4.606,4.6064,4.608,4.608,4.6022,4.5991,4.5964,4.5964,4.5229,4.3476,4.3108,4.2124,4.0257,4.0236,4.0281,4.0326,4.0411,4.0422,4.0366,4.0295,4.0243,4.0176,3.9914,3.9785,3.9785,3.9597,3.947,3.9389,3.9439,3.9358,3.9115,3.8257,3.793,3.7913,0.0,0.0,0.0,0.0,0.0,0.0,0.0,0.0,0.0,0.0,0.0,0.0,0.0,0.0,0.0,0.0,0.0,0.0,0.0,0.0,0.0,0.0,0.0,0.0,0.0,0.0,0.0,0.0,0.0,0.0,0.0,0.0,4.1059,4.0374,3.9756,3.9358,3.9258,3.8972,3.8701,3.846,3.8312,3.8196,3.8079,3.772,3.7488,3.7488,3.7379,3.7324,3.7324,3.7931,3.827,3.8307,3.8587,3.8785,3.8805,3.851,3.8531,3.8805,3.8848,3.9029,3.9315,3.9425,3.9462,3.9462,3.9462,3.9462,3.9299,3.7448,3.6911,3.7276,3.7826,3.8549,3.9188,0.0,0.0,0.0,0.0,0.0,0.0,0.0,4.6747,4.6196,4.6158,4.6138,4.6142,4.6142,4.6109,4.6068,4.605,4.5715,4.4938,4.3588,4.2644,4.1581,4.0329,4.0408,4.0484,4.0484,4.0547,4.0559,4.0485,4.0485,4.0462,4.0422,4.0264,4.02,4.0234,4.007,3.9939,3.9842,3.9881,3.9811,3.9626,3.9048,3.8789,3.8715,3.8511,3.8417,3.8355,3.8184,3.8202,3.835,3.8654,0.0,0.0,0.0,0.0,0.0,0.0,0.0,0.0,0.0,0.0,0.0,0.0,0.0,0.0,0.0,0.0,0.0,0.0,0.0,0.0,0.0,0.0,0.0,0.0,4.2586,4.2532,4.2405,4.132,4.0541,4.0541,4.0148,3.9884,3.9884,3.9393,3.9061,3.9061,3.8376,3.7942,3.7942,3.7788,3.7701,3.7701,3.8186,3.8473,3.8545,3.876,3.8918,3.8973,3.8725,3.8744,3.8955,3.9011,3.9157,0.0,3.946,3.9494,3.9494,3.9494,3.9494,0.0,0.0,0.0,0.0,0.0,3.9211,3.9716,0.0,0.0,0.0,0.0,0.0,0.0,0.0,4.6914,4.6328,4.6217,4.6191,4.6209,4.6209,4.6206,4.6189,4.6118,4.5313,4.4409,4.3432,4.1854,4.0825,4.0486,4.0578,4.0642,4.0649,4.0649,4.0643,4.0636,4.0636,4.0623,4.0609,4.0609,4.0639,4.069,4.0715,4.0575,4.0364,4.0352,4.0173,3.991,3.991,3.9799,3.9599,3.9611,3.9611,3.9534,3.9011,3.9039,3.9307,3.9049,0.0,0.0,0.0,0.0,0.0,0.0,0.0,0.0,0.0,0.0,0.0,0.0,0.0,0.0,0.0,0.0,0.0,0.0,0.0,0.0,0.0,0.0,0.0,0.0,4.443,4.4279,4.4279,4.2832,4.1711,4.1564,4.1456,4.1416,4.1416,4.064,4.0122,4.0122,3.9038,3.8405,3.8405,0.0,0.0,0.0,0.0,3.807,3.8174,3.8231,3.832,3.8424,3.839,3.8372,3.844,3.844,3.8457,3.849,3.849,3.849,3.849,3.849,3.849,3.8599,3.9816,4.0326,4.0343,3.967,3.9487,0.0,0.0,0.0,0.0,0.0,0.0,0.0,0.0,4.7852,4.7072,4.6376,4.623,4.619,4.619,4.6199,4.6181,4.6171,4.5388,4.4216,4.2635,4.2206,4.1677,4.0912,4.0916,4.0923,4.0928,4.0928,4.0905,4.084,4.084,4.0791,4.0674,4.0674,4.0699,4.069,4.0756,4.0756,4.0696,4.0698,4.0662,4.0618,4.0618,4.0202,3.9611,3.9664,3.9664,3.9599,3.9592,3.9599,3.9727,4.034,4.106,4.1818,4.2612,4.3357,0.0,0.0,0.0,0.0,0.0,0.0,0.0,0.0,0.0,0.0,0.0,0.0,0.0,0.0,0.0,0.0,0.0,0.0,0.0,4.4663,4.4676,4.4676,4.4676,4.4373,4.3702,4.2511,4.1835,4.1477,4.1477,4.0793,4.034,4.034,3.9466,3.8956,3.8956,3.888,0.0,3.8832,3.9516,3.9882,3.9915,4.0246,4.0412,4.0447,0.0,0.0,4.0447,4.0447,4.0627,4.091,4.091,4.091,4.091,4.091,4.091,4.0784,3.9491,3.9362,3.996,4.0117,4.0596,4.104,0.0,0.0,0.0,0.0,0.0,0.0,0.0,4.874,4.79,4.7061,4.6919,4.6731,4.6301,4.6249,4.6249,4.6205,4.5394,4.416,4.2407,4.2295,4.1907,4.1048,4.1009,4.1006,4.0996,4.0996,4.0984,4.0952,4.0952,4.0928,4.0842,4.0842,4.0869,4.0901,4.0947,4.0949,4.0951,4.0955,4.0937,4.0896,4.0896,4.0616,4.0199,4.0204,4.018,4.0136,4.0043,4.024,4.0587,4.0945,4.1613,4.2434,4.3206,4.3749,4.4147,0.0,0.0,0.0,0.0,0.0,0.0,0.0,0.0,0.0,0.0,0.0,0.0,0.0,0.0,4.4644,0.0,0.0,4.4962,4.5118,4.5063,4.5007,4.5007,4.4872,4.4525,4.3783,4.3376,4.316,4.316,4.1958,4.1193,4.1193,3.9904,3.9101,3.9101,3.9101,3.9101,3.9101,3.951,3.9751,3.9751,3.9963,4.0059,4.0059,3.9856,3.9837,4.0059,4.0059,4.0148,4.0346,4.0346,4.0346,4.0346,4.0346,4.0444,4.0443,3.9449,3.9721,4.0692,4.0469,4.0657,4.0866,0.0,0.0,0.0,0.0,0.0,0.0,0.0,0.0,4.8759,4.7938,4.782,4.7569,4.6866,4.6651,4.6389,4.5994,4.5488,4.4431,4.2694,4.2558,4.2168,4.1289,4.1094,4.1015,4.1015,4.1015,4.1015,4.1013,4.1013,4.1015,4.1015,4.1015,4.1053,4.1107,4.1107,4.1107,4.1107,4.1086,4.1054,4.1007,4.0989,4.1021,4.1071,4.1019,4.0976,4.0938,4.0641,4.106,4.1761,4.1729,4.2199,4.2903,4.3729,4.3996,4.4106,4.4635,4.4825,0.0,0.0,0.0,0.0,0.0,0.0,0.0,0.0,4.4793,4.4793,4.4793,4.4793,4.4884,4.5159,4.5201,4.5292,4.5559,4.5419,4.5292,4.5292,4.5085,4.4962,4.4962,4.4861,4.4788,4.4788,4.3152,4.2065,4.2065,4.0319,3.924,3.924,3.924,3.924,3.924,3.924,3.924,3.924,3.924,3.924,3.924,3.924,3.924,3.924,3.924,3.924,3.924,3.924,3.924,3.924,3.924,3.937,3.958,3.9549,4.0258,4.118,4.0477,4.0198,4.0048,0.0,0.0,0.0,0.0,0.0,0.0,0.0,0.0,0.0,4.8779,4.8662,4.8623,4.8525,4.7881,4.6827,4.527,4.5755,4.5396,4.3669,4.3483,4.3061,4.2187,4.1465,4.1093,4.1085,4.1085,4.1095,4.109,4.109,4.109,4.1089,4.1089,4.1089,4.1107,4.1107,4.1107,4.1107,4.1038,4.1016,4.0981,4.0948,4.1392,4.2129,4.2055,4.1997,4.1917,4.177,4.2279,4.3108,4.3728,4.4014,4.4245,4.5109,4.5378,4.5342,4.5203,4.5312,4.5438,4.5201,4.5312,4.5466,4.5419,4.5438,4.5495,0.0,4.5495,4.5495,4.5495,4.5495,4.5504,4.555,4.5531,4.5559,4.5586,4.5577,4.5559,4.5559,4.5522,4.5504,4.5504,4.5085,4.4788,4.4788,4.3249,4.2271,4.2271,4.0677,3.972,3.972,3.972,3.972,3.972,3.972,3.972,3.972,3.972,3.972,3.972,3.972,3.972,3.972,3.972,3.972,3.972,3.972,3.972,3.972,3.972,3.9765,3.9848,3.9786,3.9908,4.0056,3.9713,3.9461,3.9231,0.0,0.0,0.0,0.0,0.0,0.0,0.0,0.0,0.0,0.0,4.9558,4.9364,4.8857,4.8505,4.7994,4.7286,4.7548,4.7223,4.6,4.4932,4.3929,4.2972,4.1684,4.0956,4.0872,4.0872,4.0866,4.0875,4.0875,4.0848,4.0816,4.0816,4.0828,4.0871,4.0871,4.0912,4.1016,4.1487,4.1705,4.174,4.2214,4.2649,4.3006,4.3002,4.3318,4.3652,4.3,4.3336,0.0,4.4434,4.4834,4.5299,4.5667,4.5764,4.5736,4.5591,4.5661,4.575,4.5648,4.5599,4.5612,4.5657,4.5635,4.5594,4.5594,4.5594,4.5594,4.5594,4.5594,4.5594,4.5594,4.5594,4.5594,0.0,4.5594,4.5594,4.5594,4.5594,4.5594,4.5594,4.541,4.5282,4.5282,4.3621,4.2527,4.2527,4.0851,3.9808,3.9808,3.9808,3.9808,3.9808,3.9808,3.9808,3.9808,3.9808,3.9808,3.9808,3.9808,3.9808,3.9808,3.9829,3.9861,3.9865,3.9865,3.9865,3.9865,3.9865,3.9965,4.0129,4.0091,4.012,4.0101,3.9794,3.9602,3.9519,0.0,0.0,0.0,0.0,0.0,0.0,0.0,0.0,0.0,0.0,0.0,5.0064,4.9208,4.9095,4.8983,4.8734,4.8693,4.8417,4.7782,4.6312,4.5055,4.4084,4.2643,4.1726,4.1409,4.1377,4.1351,4.1351,4.1338,4.1299,4.1252,4.1252,4.128,4.1326,4.1326,4.1406,4.1567,4.2186,4.2489,4.2582,4.319,4.3601,4.384,4.3877,4.4463,4.5134,4.415,4.4344,4.5074,4.5046,4.5419,4.5899,4.5899,4.5899,4.5883,4.5835,4.5852,4.5899,4.5899,4.579,4.5708,4.5802,4.5747,4.5677,4.5677,4.5677,4.5688,4.566,4.5665,4.5688,4.566,4.5671,4.5671,4.5671,4.5629,4.5612,4.5643,4.5629,4.5612,4.5643,4.562,4.5594,4.5594,4.3913,4.2814,4.2814,4.1084,4.0023,4.0023,4.0024,4.0015,4.0015,4.0015,4.0015,4.0015,4.0015,4.0015,4.0015,4.0015,4.0015,4.0015,4.0063,4.0081,4.008,4.008,4.008,4.008,4.008,4.0227,4.0411,4.0383,4.0383,4.0375,4.0119,3.9935,3.9832,0.0,0.0,0.0,0.0,0.0,0.0,0.0,0.0,0.0,0.0,0.0,0.0,0.0,4.9819,4.9435,4.8588,4.8457,4.8399,4.838,4.7465,4.6552,4.567,4.4766,4.3935,4.313,4.3057,4.3036,4.3036,4.2953,4.2938,4.293,4.293,4.2938,4.2938,4.2938,4.3004,4.3131,4.3097,4.3189,4.336,4.3318,4.3858,4.4666,4.4676,4.5292,4.6049,4.5106,4.5329,4.6045,4.592,4.588,4.5899,4.5899,4.5899,4.5899,4.5899,4.5899,4.5899,4.5899,4.5899,4.5894,4.5894,4.5894,4.5894,4.5894,4.5894,4.5881,4.5808,4.5847,4.5875,4.5808,4.58,4.58,4.58,4.5684,4.5654,4.5778,4.5684,4.5654,4.5778,4.5676,4.5594,0.0,4.4085,4.3096,4.3096,4.1532,4.0573,4.0573,4.0571,4.0574,4.0574,4.0574,4.0574,4.0574,4.0574,4.0574,4.0574,4.0574,4.0574,4.0574,4.0574,4.0581,4.0581,4.0581,4.0581,4.0581,4.0581,4.0621,4.0687,4.0614,4.0621,4.0687,4.0607,4.0296,3.9907,0.0,0.0,0.0,0.0,0.0,0.0,0.0,0.0,0.0,0.0,0.0,0.0,0.0,0.0,0.0,0.0,5.0,4.9998,4.9996,4.8655,4.7697,4.7317,4.5302,4.4032,4.3675,4.3073,4.2776,4.2776,4.2757,4.2718,4.2669,4.2669,4.268,4.2728,4.2728,4.2802,4.297,4.3612,4.3929,4.4051,4.4696,4.5157,4.5441,4.5534,4.5767,4.6047,0.0,4.5956,4.6227,4.6189,4.6173,4.6173,4.6173,4.6173,4.6173,4.6173,4.6045,4.5935,4.6128,4.6041,4.592,4.6005,4.5973,4.5899,4.5899,4.5899,4.5889,4.5869,4.5872,4.5889,4.5869,4.5863,4.5863,4.5863,4.5828,4.5815,4.5858,4.5828,4.5815,4.5858,4.5821,0.0,0.0,0.0,0.0,4.3143,4.2086,4.1204,4.0626,4.0605,4.0595,4.0595,4.0595,4.0595,4.0595,4.0595,4.0595,4.0595,4.0595,4.0621,4.0661,4.0661,4.0694,4.072,4.072,4.072,4.072,4.072,4.0776,4.0832,4.0758,4.0763,4.0826,4.0707,4.0559,4.0423,0.0,0.0,0.0,0.0,0.0,0.0,0.0,0.0,0.0,0.0,0.0,0.0,0.0,0.0,0.0,0.0,0.0,5.0649,5.0661,4.9622,4.8846,4.8471,4.68,4.55,4.4669,4.4087,4.3557,4.3101,4.3077,4.3033,4.2995,4.2995,4.3095,4.3243,4.3243,4.3409,4.3694,4.4355,4.4832,4.5163,4.5584,4.5952,4.6206,4.6069,4.6003,0.0,4.6137,4.6206,4.6268,4.6267,4.6246,4.6228,4.6264,4.6263,4.6263,4.6299,4.6186,4.6086,4.6241,4.617,4.6049,4.6153,4.6109,4.6045,4.6045,4.6045,4.6037,4.5987,4.6005,4.6037,4.5983,4.5978,4.5978,4.5978,4.5925,4.5915,4.5954,4.5925,4.5915,4.5973,4.5925,4.5899,0.0,0.0,0.0,4.3301,4.2466,4.1622,4.0739,4.0717,4.0715,4.0715,4.0715,4.0715,4.0715,4.0715,4.0721,4.0732,4.0732,4.0776,4.0812,4.0812,4.0823,4.0863,4.0863,4.0863,4.0863,4.0863,4.0903,4.0932,4.0888,4.0903,4.0928,4.0849,4.0812,4.0796,0.0,0.0,0.0,0.0,0.0,0.0,0.0,0.0,0.0,0.0,0.0,0.0,0.0,0.0,0.0,0.0,0.0,0.0,5.0401,5.0344,4.9958,4.9194,4.9106,4.8145,4.6151,4.5959,4.5256,4.4057,4.3943,4.3896,4.3896,4.3896,4.408,4.4388,4.4383,4.4669,4.517,4.5192,4.5708,4.6474,4.5918,4.6179,4.6858,4.6226,4.6032,4.6106,4.6105,4.6142,4.621,4.6198,4.6157,4.6108,4.616,4.6183,4.6205,4.6269,4.6289,4.6289,4.6286,4.63,4.6295,4.6294,4.6308,4.6302,4.6302,4.63,4.6251,4.6138,4.6211,4.6269,4.6138,4.6105,4.6105,4.6105,4.6,4.5954,4.6095,4.6,4.5973,0.0,0.0,0.0,0.0,0.0,0.0,4.3603,0.0,4.189,4.1011,4.0917,4.0909,4.0909,4.0909,4.0909,4.0909,4.0909,4.0938,4.099,4.099,4.099,4.099,4.099,4.099,4.099,4.099,4.099,4.099,4.099,4.0994,4.0997,4.0994,4.0994,4.0997,4.099,4.099,4.0967,0.0,0.0,0.0,0.0,0.0,0.0,0.0,0.0,0.0,0.0,0.0,0.0,0.0,0.0,0.0,0.0,0.0,0.0,5.0325,5.0314,5.0183,4.9938,4.9125,4.8329,4.7655,4.6188,4.5233,4.4822,4.4193,4.3896,4.3896,4.3896,4.3943,4.4035,4.4285,4.4484,4.463,4.503,4.5339,4.5555,4.5605,4.5785,4.6027,4.5945,4.5997,4.6098,4.6095,4.615,4.6192,4.6194,4.6157,4.6103,4.6113,4.612,4.6132,4.6156,4.6182,4.6227,4.6228,4.6229,4.623,4.6287,4.6304,4.6301,4.6305,4.63,4.6298,4.6267,4.6275,4.6298,4.6267,4.6245,4.6245,4.6245,4.6216,0.0,4.6243,4.6216,0.0,4.6245,0.0,4.6192,4.6201,4.6201,0.0,0.0,4.3669,4.2736,4.1909,4.1245,4.0906,4.0906,4.0906,4.0906,4.0906,4.0901,4.0938,4.099,4.099,4.099,4.099,4.099,4.099,4.099,4.099,4.099,4.099,4.099,4.1039,4.1072,4.1011,4.1022,4.107,4.0961,4.0935,4.0909,0.0,0.0,0.0,0.0,0.0,0.0,0.0,0.0,0.0,0.0,0.0,0.0,0.0,0.0,0.0,0.0,0.0,0.0,0.0,5.0302,5.029,5.0255,4.9492,4.8768,4.813,4.6842,4.5716,4.4741,4.4228,4.3806,4.3474,4.3474,4.354,4.3705,4.4035,4.4256,4.4443,4.4888,4.5289,0.0,0.0,4.5827,4.6167,4.6075,4.608,4.6146,4.6146,4.6146,4.6162,4.6162,4.6128,4.6089,4.6075,4.6099,4.6136,4.6147,4.6179,4.6207,4.6195,4.6199,4.6203,4.6248,4.6269,4.6269,4.628,4.6296,4.6294,4.6303,4.63,4.63,4.63,4.63,4.63,4.63,0.0,0.0,4.63,4.63,4.63,0.0,4.63,0.0,4.6306,4.6291,4.6099,0.0,4.4309,4.3181,4.2326,4.1459,4.0994,4.0989,4.0994,4.0996,4.0996,4.1029,4.1056,4.1081,4.1081,4.1081,4.1081,4.1081,4.1081,4.1081,0.0,4.1081,4.1081,4.1081,4.1112,4.1143,4.1109,4.1112,4.1124,4.1064,4.1035,4.1033,0.0,0.0,0.0,0.0,0.0,0.0,0.0,0.0,0.0,0.0,0.0,0.0,0.0,0.0,0.0,0.0,0.0,0.0,0.0,0.0,5.0302,5.029,4.9968,4.9292,4.8239,4.7625,4.6469,4.4747,4.4448,4.39,4.3139,4.3083,4.316,4.3354,4.3738,4.4065,4.4355,4.4751,4.5331,4.5999,4.5715,4.6012,4.66,0.0,4.6192,4.6199,4.6199,4.6154,4.6098,4.6098,4.6093,4.608,4.6017,4.6084,4.6196,4.6189,4.6198,4.6206,4.6186,4.6199,4.6207,4.6189,4.6196,4.6225,4.6289,4.6307,4.6305,4.6306,4.63,4.63,4.63,4.63,4.63,4.63,4.63,4.63,4.63,4.63,4.63,4.63,4.63,4.6302,4.6302,4.6309,4.6295,4.6295,4.4797,4.349,4.2611,4.1754,4.1227,4.1108,4.109,4.1091,4.1092,4.1152,4.1191,4.1191,4.1191,4.1191,4.1191,4.1191,4.1191,4.1191,0.0,0.0,4.1191,4.1191,4.1191,4.1191,4.1191,4.1191,4.1191,4.1191,4.1191,4.1191,0.0,0.0,0.0,0.0,0.0,0.0,0.0,0.0,0.0,0.0,5.0702,5.0593,0.0,0.0,0.0,0.0,0.0,0.0,0.0,0.0,0.0,5.0212,4.9942,4.9645,4.9328,4.8091,4.7356,4.7125,4.5883,4.4964,4.438,4.4032,4.3554,4.3014,4.3623,4.3927,4.4035,4.4642,4.499,4.5152,4.541,4.5635,4.5835,4.6046,0.0,0.0,4.6199,4.6154,4.6098,4.6098,4.6071,4.6012,4.6002,4.6042,4.613,4.6119,4.6162,4.6183,4.6138,4.6157,4.6183,4.6139,4.616,4.6228,4.6289,4.6307,4.6305,4.6306,4.63,4.63,4.63,4.63,4.63,4.63,4.63,4.63,4.63,4.63,4.63,0.0,4.63,4.6303,4.629,4.6297,0.0,0.0,0.0,4.4393,4.3528,4.265,4.183,4.1126,4.1108,4.1109,4.1092,4.1112,4.1152,4.1191,4.1191,4.1191,4.1191,4.1191,4.1191,4.1191,4.1191,0.0,4.1191,4.1191,4.1191,4.1191,4.1191,4.1191,4.1191,4.1191,4.1191,4.1191,0.0,0.0,0.0,0.0,0.0,0.0,0.0,5.1161,5.1023,5.093,5.0847,5.0692,5.0427,5.0393,5.0382,0.0,0.0,0.0,0.0,0.0,0.0,0.0,0.0,0.0,4.9712,4.8852,4.8199,4.7863,0.0,4.6316,4.5638,4.5399,4.5092,4.4742,4.5239,4.5458,4.5488,4.5997,4.6203,4.6234,4.6676,4.6863,4.6943,0.0,0.0,0.0,4.754,4.7225,4.6783,4.6824,4.6472,4.6042,4.6042,4.6093,4.615,4.615,4.615,4.6142,4.6102,4.6093,4.6098,4.6067,4.6103,4.617,4.6186,4.6218,4.6267,4.6284,4.6299,4.6295,4.6303,4.63,4.63,4.63,4.63,4.63,4.63,4.63,4.63,4.63,4.63,4.6308,4.6301,4.6268,4.6249,0.0,0.0,4.5057,4.3766,4.2438,4.1559,4.1151,4.1151,4.1151,4.1152,4.1152,4.1172,4.1191,4.1191,4.1191,4.1191,4.1191,4.1191,4.1191,4.1191,0.0,4.1191,4.1191,4.1191,4.1191,4.1191,4.1191,4.1191,4.1191,4.1191,4.1191,0.0,0.0,0.0,0.0,0.0,0.0,0.0,5.1291,5.117,5.1039,5.0937,5.0814,5.0625,5.0451,5.0348,0.0,0.0,0.0,0.0,0.0,0.0,0.0,0.0,0.0,0.0,0.0,0.0,4.8483,4.8172,0.0,0.0,0.0,0.0,0.0,4.6802,4.6953,4.6967,4.734,4.7516,0.0,0.0,4.8164,0.0,0.0,0.0,0.0,0.0,4.8203,4.7419,4.7474,4.6898,4.6111,4.6111,4.6154,4.6199,4.6199,4.615,4.6093,4.6084,4.6042,4.6012,4.5986,4.6042,4.6127,4.6096,4.615,4.6202,4.6269,4.6288,4.6305,4.6293,4.6305,4.63,4.63,4.63,4.63,4.63,4.63,4.6303,4.6308,4.6308,0.0,4.6289,4.6228,0.0,0.0,0.0,0.0,4.3769,4.2069,4.1152,4.1191,4.1191,4.1191,4.1191,4.1191,4.1191,4.1191,4.1191,4.1191,4.1191,4.1191,4.1191,4.1191,4.1191,0.0,0.0,4.1191,4.1191,4.1191,4.1171,4.1171,4.1171,4.1168,4.1167,4.1167,0.0,0.0,0.0,0.0,0.0,0.0,0.0,5.1291,5.1172,5.1102,5.094,5.084,5.0945,5.0681,5.0446,0.0,0.0,0.0,0.0,0.0,0.0,0.0,0.0,0.0,0.0,0.0,0.0,4.9993,4.9359,0.0,0.0,0.0,0.0,0.0,0.0,4.7084,4.7111,4.7621,0.0,0.0,0.0,0.0,0.0,0.0,0.0,0.0,0.0,4.8241,4.7497,4.7501,4.6917,4.6192,4.6192,4.6196,4.6199,4.6199,4.615,4.6089,4.6022,4.6061,4.6071,4.5947,4.6042,4.618,4.6102,4.615,4.6197,4.6203,4.6269,4.6307,4.6306,4.6295,4.63,4.63,4.63,4.63,4.63,4.63,4.6309,4.6305,0.0,0.0,4.6226,4.6201,0.0,0.0,0.0,0.0,4.3691,4.2109,4.1191,4.1191,4.1191,4.1191,4.1191,4.1191,4.1191,4.1191,4.1191,4.1191,4.1191,4.1191,4.1191,4.1191,4.1191,0.0,0.0,4.1191,4.1191,4.1191,4.1122,4.1114,4.1109,4.105,4.1028,4.1028,0.0,0.0,0.0,0.0,0.0,0.0,5.1391,5.1352,5.128,5.1178,5.1081,5.1017,5.0946,5.0825,5.0687,5.0558,0.0,0.0,0.0,0.0,0.0,0.0,0.0,0.0,0.0,0.0,5.0144,5.0267,4.9961,0.0,0.0,0.0,0.0,0.0,0.0,4.9082,4.9105,4.9393,0.0,0.0,0.0,0.0,0.0,0.0,0.0,0.0,0.0,0.0,4.8923,4.8456,4.7696,4.6901,4.6375,4.6199,4.6199,4.6199,4.6111,4.6027,4.6007,4.5964,4.5923,4.5892,4.5991,4.6074,4.6107,4.6144,4.6203,4.62,4.6213,4.6241,4.6248,4.6268,4.6301,4.6301,4.6291,4.63,4.63,4.63,4.629,4.6306,4.6307,0.0,0.0,0.0,0.0,0.0,0.0,0.0,4.3669,4.2001,4.1076,4.1076,4.1076,4.1076,4.1076,4.1076,4.1076,4.1076,4.1076,4.1076,4.1076,4.1076,4.1076,4.1076,4.1076,0.0,0.0,4.1076,4.1076,4.1074,4.1057,4.105,4.1047,4.1003,4.1006,4.1003,0.0,0.0,0.0,0.0,0.0,5.1394,5.1394,5.1394,5.1362,5.1265,5.1219,5.1152,5.1064,5.0966,5.0884,5.082,5.0596,0.0,0.0,0.0,0.0,0.0,0.0,0.0,0.0,0.0,5.0302,5.0302,5.0317,5.031,0.0,0.0,5.0306,5.0317,0.0,0.0,0.0,0.0,0.0,0.0,0.0,0.0,0.0,0.0,0.0,0.0,0.0,0.0,0.0,0.0,0.0,4.7345,4.6472,4.6199,4.6199,4.6199,4.613,4.6022,4.6022,4.5964,4.5905,4.591,4.5997,4.6071,4.6093,4.615,4.6209,4.6203,4.6199,4.6195,4.6194,4.6247,4.6289,4.6307,4.6284,4.6279,4.6293,4.6277,4.6265,4.6269,0.0,4.6535,0.0,4.615,0.0,0.0,0.0,0.0,0.0,4.1912,4.099,4.099,4.099,4.099,4.099,4.099,4.099,4.099,4.099,4.099,4.099,4.099,4.099,4.099,0.0,0.0,0.0,4.099,4.099,4.101,4.0986,4.0979,4.0979,4.0949,4.0944,4.0948,0.0,0.0,0.0,0.0,0.0,0.0,5.1394,5.1394,5.1394,5.1394,5.1288,5.1248,5.1385,5.1095,5.0946,5.1079,5.0908,0.0,0.0,0.0,0.0,0.0,0.0,0.0,0.0,0.0,5.0302,5.0302,5.0495,5.0606,5.0587,5.0728,5.079,5.079,0.0,0.0,0.0,0.0,0.0,0.0,0.0,0.0,0.0,0.0,0.0,0.0,0.0,0.0,0.0,0.0,0.0,0.0,0.0,4.6199,4.6199,4.6199,4.615,4.6093,4.6093,4.6093,4.6084,4.6012,4.6098,4.6189,4.6106,4.615,4.6199,4.6199,4.6198,4.6206,4.6208,4.6192,4.6228,4.6288,4.6249,4.6228,4.6288,4.6249,4.6199,0.0,0.0,4.7148,4.6281,4.6199,0.0,0.0,0.0,0.0,0.0,4.184,4.0932,4.101,4.099,4.099,4.099,4.099,4.099,4.099,4.099,4.099,4.099,4.099,4.099,0.0,0.0,0.0,0.0,4.099,4.099,4.0984,4.0924,4.0907,4.0883,4.0833,4.0793,4.0798,0.0,0.0,0.0,0.0,0.0,0.0,0.0,5.1339,5.1323,5.1336,5.1285,5.1277,5.1336,5.1281,5.1241,5.1242,5.0977,0.0,0.0,0.0,0.0,0.0,0.0,0.0,0.0,0.0,5.0641,5.0641,5.0703,5.0745,5.0731,5.0782,5.0805,5.0816,5.0933,5.1005,0.0,0.0,0.0,0.0,0.0,0.0,0.0,0.0,0.0,0.0,0.0,0.0,0.0,0.0,0.0,0.0,0.0,0.0,0.0,4.6199,4.615,4.6098,4.6098,4.6071,4.6032,4.6071,4.6098,4.6142,4.6158,4.6189,4.6199,4.6199,4.6193,4.6203,4.6203,4.6199,4.6206,4.6233,4.62,4.6205,4.6228,0.0,0.0,4.6191,4.6437,4.6508,0.0,0.0,0.0,0.0,0.0,0.0,0.0,4.2417,4.1505,4.0883,4.0864,4.0864,4.0864,4.0864,4.0864,4.0864,4.0864,4.0864,4.0867,4.0867,0.0,0.0,0.0,0.0,0.0,4.0867,4.0867,4.0853,4.0833,4.0833,4.0839,4.0859,4.0907,4.0935,0.0,0.0,0.0,0.0,0.0,0.0,0.0,5.13,5.1304,5.13,5.1308,5.1304,5.13,5.1336,5.1366,5.1343,5.1156,0.0,0.0,0.0,0.0,0.0,0.0,0.0,5.0843,5.0843,5.0843,5.0843,5.09,5.0914,5.0914,5.0984,5.1027,5.1025,5.1157,5.122,0.0,0.0,0.0,0.0,0.0,0.0,5.1299,0.0,0.0,0.0,0.0,0.0,0.0,0.0,0.0,0.0,0.0,0.0,0.0,0.0,4.6162,4.6142,4.6142,4.6102,4.6084,4.6134,4.6142,4.6146,4.6192,4.6199,4.6199,4.6199,4.6199,4.6199,4.6199,4.6206,4.6209,4.6204,4.6195,4.6202,4.6192,0.0,0.0,4.6655,0.0,0.0,0.0,0.0,0.0,0.0,0.0,0.0,0.0,4.2412,4.1518,4.0888,4.0849,4.0839,4.0839,4.0839,4.0839,4.0839,4.0839,4.0812,4.0794,4.0837,0.0,0.0,0.0,0.0,0.0,4.0848,4.0848,4.0848,4.0848,4.0839,4.0844,4.0917,4.0952,4.0996,0.0,0.0,0.0,0.0,0.0,0.0,0.0,5.13,5.13,5.13,5.13,5.13,5.13,5.13,5.134,5.1391,0.0,0.0,0.0,0.0,0.0,0.0,0.0,0.0,5.094,5.094,5.094,5.094,5.1053,5.1123,5.1128,5.1307,5.1397,5.1383,5.138,5.1383,0.0,0.0,0.0,0.0,0.0,0.0,0.0,0.0,0.0,0.0,0.0,0.0,0.0,0.0,0.0,0.0,0.0,0.0,0.0,0.0,0.0,0.0,0.0,4.6199,4.6199,4.6199,4.6199,4.6199,4.6199,4.6199,0.0,4.6199,4.6199,4.6199,4.6199,4.6199,4.6193,4.6197,4.6209,4.6196,0.0,4.6209,0.0,0.0,4.6686,0.0,0.0,0.0,0.0,0.0,0.0,0.0,0.0,4.2003,4.1075,4.1019,4.0939,4.0917,4.0912,4.0912,4.0912,4.0912,4.0912,4.0869,4.0818,4.0864,0.0,0.0,0.0,0.0,0.0,4.0907,4.0907,4.0907,4.0912,4.0912,4.0917,4.0984,4.1019,4.1023,0.0,0.0,0.0,0.0,0.0,0.0,0.0,0.0,0.0,0.0,5.13,5.13,5.13,5.13,5.134,0.0,0.0,0.0,0.0,0.0,0.0,0.0,0.0,0.0,5.1285,5.1285,5.1285,5.1285,5.1303,5.134,5.1333,5.1375,5.1364,5.1318,5.1313,5.1302,0.0,0.0,0.0,0.0,0.0,0.0,0.0,0.0,0.0,0.0,5.1301,5.1299,0.0,0.0,0.0,0.0,0.0,0.0,0.0,0.0,4.6198,4.6199,4.6196,0.0,4.6199,4.6199,4.6199,4.6199,0.0,4.6199,4.6199,4.6199,4.6199,4.6199,4.6199,4.6199,4.6203,4.6196,4.6206,4.6203,4.6196,4.6206,0.0,4.6472,4.6316,0.0,0.0,0.0,0.0,0.0,0.0,0.0,0.0,4.2003,4.1085,4.1078,4.1068,4.103,4.098,4.098,4.098,4.098,4.098,4.0935,4.0869,4.0883,0.0,0.0,0.0,0.0,4.0907,4.0907,4.0907,4.0912,4.0967,4.098,4.0984,4.1045,4.1078,4.1078,0.0,0.0,0.0,0.0,0.0,0.0,0.0,0.0,0.0,0.0,0.0,0.0,0.0,0.0,0.0,0.0,0.0,0.0,0.0,0.0,0.0,0.0,0.0,5.1403,5.1394,5.1394,5.1394,5.1394,5.1394,5.139,5.1393,5.1407,5.1362,5.1305,5.1307,5.1284,0.0,0.0,0.0,0.0,5.1191,0.0,0.0,0.0,0.0,0.0,5.1277,5.1263,0.0,4.9289,4.8708,4.8398,0.0,0.0,0.0,0.0,4.6143,4.6168,4.6197,4.6201,4.6199,4.6199,4.6199,4.6199,4.6199,4.6199,4.6199,4.6199,4.6199,4.6199,4.6199,4.6199,4.6199,4.6199,4.6199,0.0,0.0,0.0,4.6803,4.6803,4.6433,0.0,0.0,0.0,0.0,0.0,0.0,0.0,0.0,4.2003,4.1107,4.1107,4.1107,4.1081,4.1041,4.1041,4.1041,4.1041,4.1041,4.1,4.0939,4.098,4.098,0.0,0.0,0.0,4.0988,4.0988,4.0988,4.0992,4.1034,4.1041,4.1045,4.1081,4.1107,4.1107,0.0,0.0,0.0,0.0,0.0,0.0,0.0,0.0,0.0,0.0,0.0,0.0,0.0,0.0,0.0,0.0,0.0,0.0,0.0,0.0,0.0,0.0,5.138,5.14,5.1372,5.1385,5.1385,5.1372,5.1372,5.1381,5.1386,5.1386,5.1359,5.1286,5.1277,5.1274,0.0,0.0,0.0,0.0,5.1196,0.0,0.0,0.0,0.0,0.0,0.0,0.0,0.0,4.9224,4.8607,4.8226,4.6604,0.0,0.0,0.0,0.0,0.0,4.6171,4.6181,4.6196,4.6206,4.6199,4.6199,4.6203,4.6203,4.6203,4.6206,4.6203,4.6203,4.6203,4.6199,4.6199,0.0,0.0,0.0,4.7189,4.7306,4.7306,4.7306,0.0,0.0,0.0,0.0,0.0,0.0,0.0,0.0,0.0,4.1945,4.1107,4.1107,4.1107,4.1107,4.1107,4.1107,4.1107,4.1107,4.1107,4.1075,4.1023,4.1075,4.1075,0.0,0.0,0.0,4.1107,4.1107,4.1107,4.1107,4.1107,4.1107,4.1107,4.1107,4.1107,4.1107,0.0,0.0,0.0,0.0,0.0,0.0,0.0,0.0,0.0,0.0,0.0,0.0,0.0,0.0,0.0,0.0,0.0,0.0,0.0,0.0,0.0,5.1313,5.1362,5.136,5.1315,5.1367,5.1367,5.1313,5.1313,5.131,5.1325,5.1325,5.1282,5.1218,5.122,5.1219,5.1214,5.1197,0.0,0.0,0.0,0.0,0.0,0.0,0.0,0.0,0.0,0.0,0.0,4.8943,4.8152,4.7431,4.6422,0.0,0.0,0.0,0.0,0.0,4.6105,4.6151,4.6199,4.6195,4.6209,4.6203,4.6196,4.62,4.6206,4.6198,4.6189,4.62,4.62,4.6209,4.6199,0.0,0.0,4.6258,0.0,0.0,4.6394,0.0,0.0,0.0,0.0,0.0,0.0,0.0,0.0,0.0,0.0,4.1614,4.1107,4.1107,4.1107,4.1107,4.1107,4.1107,4.1107,4.1107,4.1107,4.1088,4.1081,4.1107,4.1088,0.0,0.0,4.1107,4.1107,4.1107,4.1107,4.1107,4.1107,4.1107,4.1107,4.1107,4.1107,4.1081,0.0,0.0,0.0,0.0,0.0,0.0,0.0,0.0,0.0,0.0,0.0,0.0,0.0,0.0,0.0,0.0,0.0,0.0,0.0,0.0,5.1286,5.1255,5.1317,5.1324,5.1297,5.1333,5.1333,5.1297,5.1297,5.1284,5.1252,5.1253,5.1228,5.1201,5.1206,5.1202,5.1202,5.1202,5.1202,0.0,0.0,0.0,0.0,0.0,0.0,0.0,0.0,0.0,0.0,0.0,4.8034,4.7198,4.6319,0.0,0.0,0.0,0.0,0.0,4.6089,4.6117,4.6152,4.6189,4.6203,4.6199,4.6209,4.619,4.6193,4.62,4.6196,4.619,4.619,4.6203,4.6199,4.6199,0.0,4.6897,4.6897,4.6897,0.0,0.0,0.0,0.0,0.0,0.0,0.0,0.0,0.0,0.0,0.0,0.0,4.1107,4.1107,4.1107,4.1107,4.1107,4.1107,4.1107,4.1107,4.1107,4.1107,4.1107,4.1107,4.1107,4.1107,0.0,4.1107,4.1107,4.1107,4.1107,4.1107,4.1107,4.1107,4.1107,4.1107,4.1107,4.1075,0.0,0.0,0.0,0.0,0.0,0.0,0.0,0.0,0.0,0.0,0.0,0.0,0.0,0.0,0.0,0.0,0.0,0.0,0.0,5.1274,5.1255,5.1194,5.1252,5.128,5.128,5.1274,5.1274,5.128,5.128,5.1252,5.1209,5.1203,5.1202,5.1202,5.1202,5.1202,5.1202,5.1202,5.1202,0.0,0.0,0.0,0.0,0.0,0.0,0.0,0.0,0.0,0.0,0.0,0.0,0.0,0.0,0.0,0.0,4.6002,4.6002,4.6017,4.6056,4.6098,4.6116,4.6152,4.6199,4.6203,4.6203,4.6203,4.6206,4.6209,4.6206,4.6203,4.6203,4.6199,0.0,4.6199,4.6764,4.7189,4.7189,0.0,0.0,0.0,0.0,0.0,0.0,0.0,0.0,0.0,0.0,0.0,0.0,0.0,4.1107,4.1107,4.1107,4.1107,4.1107,4.1107,4.1107,4.1107,4.1107,4.1107,4.1107,4.1107,4.1107,4.1107,4.1107,4.1107,4.1107,4.1107,4.1107,4.1107,4.1107,4.1107,4.1088,4.1048,4.1158,4.1295,0.0,0.0,0.0,0.0,0.0,0.0,0.0,0.0,0.0,0.0,0.0,0.0,0.0,0.0,0.0,0.0,0.0,0.0,0.0,5.1211,5.1206,5.1194,5.12,5.1206,5.1206,5.1209,5.1209,5.1206,5.1206,5.12,5.1194,5.1202,5.1202,5.1202,5.1202,5.1202,5.1202,5.1202,5.1202,5.1202,5.1202,0.0,0.0,0.0,0.0,0.0,0.0,0.0,0.0,0.0,0.0,0.0,0.0,0.0,4.6002,4.6002,4.6002,4.6002,4.6012,4.6041,4.6108,4.6114,4.6143,4.6203,4.6203,4.6203,4.6206,4.6201,4.6192,4.6203,4.6203,4.6209,4.6199,4.6199,4.6258,4.6297,0.0,0.0,0.0,0.0,0.0,0.0,0.0,0.0,0.0,0.0,0.0,0.0,0.0,0.0,0.0,4.1107,4.1107,4.1107,4.1107,4.1107,4.1107,4.1107,4.1107,4.1107,4.1107,4.1107,4.1107,4.1107,4.1107,4.1107,4.1107,4.1107,4.1107,4.1107,4.1107,4.1107,4.1081,4.0891,4.132,4.2004,0.0,0.0,0.0,0.0,0.0,0.0,0.0,0.0,0.0,0.0,0.0,0.0,0.0,0.0,0.0,0.0,0.0,0.0,0.0,5.1206,5.1202,5.1202,5.1202,5.1202,5.1202,5.1208,5.1208,5.1202,5.1202,5.1202,5.1202,5.1202,5.1202,5.1202,5.1202,5.1202,5.1202,5.1202,5.1202,5.1202,5.1202,0.0,0.0,0.0,0.0,0.0,0.0,0.0,0.0,0.0,4.7434,4.6002,4.6002,4.6002,4.6002,4.6002,4.6002,4.6002,4.6002,4.6052,4.6101,4.6095,4.6147,4.6198,4.6206,4.6206,4.6203,4.62,4.6193,4.6209,4.6209,0.0,4.6199,4.6199,4.6199,4.6199,0.0,0.0,0.0,0.0,0.0,0.0,0.0,0.0,0.0,0.0,0.0,0.0,0.0,0.0,0.0,4.1107,4.1107,4.1068,4.098,4.1068,4.1068,4.098,4.1068,4.1107,4.1107,4.1107,4.1107,4.1107,4.1107,4.1107,4.1085,4.1,4.098,4.0975,4.0874,4.0849,4.0902,4.1327,4.1691,4.2047,0.0,0.0,0.0,0.0,0.0,0.0,0.0,0.0,0.0,0.0,0.0,0.0,0.0,0.0,0.0,0.0,0.0,0.0,5.1202,5.1202,5.1202,5.1202,5.1202,5.1202,5.1202,5.1202,5.1202,5.1202,5.1202,5.1202,5.1202,5.1202,5.1202,5.1202,5.1202,5.1202,5.1202,5.1202,5.1202,5.1202,5.1202,5.1202,0.0,0.0,0.0,0.0,0.0,0.0,0.0,0.0,4.7201,4.6002,4.6002,4.6002,4.6002,4.6002,4.6013,4.6022,4.6022,4.6075,4.6102,4.6128,4.6167,4.6204,4.6192,4.6206,4.62,4.6203,4.6199,4.6199,4.6199,0.0,0.0,0.0,4.6199,0.0,0.0,0.0,0.0,0.0,0.0,0.0,0.0,0.0,0.0,0.0,0.0,0.0,0.0,0.0,0.0,0.0,4.0992,4.093,4.0839,4.0926,4.0926,4.0839,4.093,4.0992,4.1038,4.1038,4.1003,4.098,4.098,4.098,4.0971,4.0869,4.0839,4.0833,4.073,4.0868,4.1145,4.1626,4.2145,4.2698,0.0,0.0,0.0,0.0,0.0,0.0,0.0,0.0,0.0,0.0,0.0,0.0,0.0,0.0,0.0,0.0,0.0,0.0,5.1202,5.1196,5.1196,5.1196,5.1196,5.1196,5.1196,5.1196,5.1196,5.1202,5.1202,5.1196,5.1196,5.1196,5.1196,5.1196,5.1196,5.1202,5.1202,5.1202,5.1202,5.1202,5.1202,5.1202,5.1202,0.0,0.0,0.0,0.0,0.0,0.0,0.0,4.6715,4.6002,4.6002,4.6002,4.6002,4.6002,4.6052,4.6108,4.6108,4.6097,4.611,4.6188,4.6204,4.6196,4.6203,4.6206,4.62,4.6203,4.6199,4.6199,4.6199,4.6199,0.0,4.6199,0.0,0.0,0.0,0.0,0.0,0.0,0.0,0.0,0.0,0.0,0.0,0.0,0.0,0.0,0.0,0.0,0.0,0.0,4.0759,4.0694,4.0694,4.0694,4.0694,4.0694,4.0694,4.0759,4.0907,4.0907,4.0828,4.0694,4.0694,4.0694,4.0694,4.0694,4.0694,4.0694,4.0694,4.119,4.1873,4.17,4.2719,4.4168,0.0,0.0,0.0,0.0,0.0,0.0,0.0,0.0,0.0,0.0,0.0,0.0,0.0,0.0,0.0,0.0,0.0,0.0,5.1062,5.1055,5.1,5.0859,5.0859,5.0859,5.0859,5.0859,5.0954,5.1202,5.1115,5.1055,5.1055,5.0917,5.0917,5.1055,5.1055,5.1115,5.1202,5.1202,5.1202,5.1202,5.1202,5.1202,5.1202,0.0,0.0,0.0,0.0,0.0,0.0,0.0,0.0,0.0,4.6002,4.6032,4.6064,4.6064,4.6122,4.6152,4.6101,4.6127,4.619,4.6205,4.6206,4.6192,4.6209,4.6206,4.62,4.6203,4.6199,4.6199,4.6199,4.6199,0.0,0.0,0.0,0.0,0.0,0.0,0.0,0.0,0.0,0.0,0.0,0.0,0.0,0.0,0.0,0.0,0.0,0.0,0.0,0.0,4.0718,4.0649,4.0564,4.0649,4.0649,4.0564,4.0649,4.0718,4.0754,4.0754,4.073,4.0694,4.0694,4.0694,4.0687,4.0588,4.0496,4.0479,4.1036,4.1419,4.1747,4.2881,4.3627,4.4144,0.0,0.0,0.0,0.0,0.0,0.0,0.0,0.0,0.0,0.0,5.1228,5.1147,0.0,0.0,0.0,0.0,0.0,0.0,0.0,5.0879,5.0827,5.0705,5.0705,5.0705,5.0705,5.0705,5.08,5.1002,5.091,5.0879,5.0879,5.0758,5.0811,5.1005,5.1005,5.1069,5.1202,5.1202,5.1202,5.1202,5.1202,5.1202,5.1163,0.0,0.0,0.0,0.0,0.0,0.0,0.0,0.0,0.0,4.6002,4.605,4.6102,4.6109,4.6152,4.6187,4.6151,4.6166,4.6197,4.6197,4.6209,4.6193,4.6193,4.6193,4.619,4.6199,4.6199,4.6199,4.6199,4.6199,0.0,0.0,0.0,0.0,0.0,0.0,0.0,0.0,0.0,0.0,0.0,0.0,0.0,0.0,0.0,0.0,0.0,0.0,0.0,0.0,4.0571,4.0489,4.043,4.0508,4.0508,4.043,4.0489,4.0542,4.0542,4.0607,4.0581,4.0542,4.0542,4.0542,4.0534,4.0452,4.0572,4.0826,4.1304,4.1915,4.2622,4.3624,4.4216,4.459,0.0,0.0,0.0,0.0,0.0,0.0,0.0,0.0,0.0,0.0,5.092,5.085,0.0,0.0,0.0,0.0,0.0,0.0,0.0,5.0678,5.0678,5.0661,5.0661,5.0661,5.0661,5.0661,5.0661,5.0661,5.0678,5.0678,5.0678,5.067,5.0778,5.0956,5.0956,5.1041,5.1153,5.1153,5.1159,5.119,5.119,5.1132,5.1008,5.0198,0.0,0.0,0.0,0.0,0.0,0.0,0.0,0.0,4.6012,4.6063,4.6115,4.6114,4.6163,4.6201,4.6194,4.6197,4.6199,4.6199,4.6199,4.6199,4.6199,4.6199,4.6199,4.6199,0.0,4.6199,4.6199,4.6199,0.0,0.0,0.0,0.0,0.0,0.0,0.0,0.0,0.0,0.0,0.0,0.0,0.0,0.0,0.0,0.0,0.0,0.0,0.0,4.0484,4.0363,4.0301,4.0301,4.0301,4.0301,0.0,4.0301,4.0301,4.0291,4.0438,4.0422,4.0301,4.0301,4.0301,4.0301,4.0377,4.0845,4.1514,4.1667,4.266,4.4006,4.4083,4.4628,4.5307,0.0,0.0,0.0,0.0,0.0,0.0,0.0,0.0,0.0,0.0,0.0,0.0,0.0,0.0,0.0,0.0,0.0,0.0,0.0,5.0538,5.0497,5.0388,5.0377,5.0377,5.0377,5.0377,5.0377,5.0377,5.0497,5.0538,5.0528,5.0442,5.0474,5.0606,5.0606,5.0671,5.0808,5.0808,5.0902,5.1041,5.1041,5.0707,5.0159,4.9965,4.9479,0.0,0.0,0.0,0.0,0.0,0.0,0.0,4.6052,4.6125,4.6177,4.6183,4.6228,4.6273,4.6204,4.6201,4.6196,4.6203,4.6199,4.6199,4.6199,4.6199,4.6199,4.6199,4.6199,4.6199,4.6199,4.6199,0.0,0.0,0.0,0.0,0.0,0.0,0.0,0.0,0.0,0.0,0.0,0.0,0.0,0.0,0.0,0.0,0.0,0.0,0.0,4.0346,4.0329,4.0301,4.0301,4.0301,4.0301,0.0,4.0301,4.0301,4.0301,4.0328,4.0328,4.0301,4.0301,4.0301,4.0339,4.0979,4.1342,4.1628,4.2947,4.3682,4.4083,4.4762,4.5144,4.5307,0.0,0.0,0.0,0.0,0.0,0.0,0.0,0.0,0.0,0.0,0.0,0.0,0.0,0.0,0.0,0.0,0.0,0.0,0.0,0.0,5.0374,5.0302,5.0302,5.0302,5.0302,5.0302,5.0302,5.0302,5.0374,5.0399,5.0399,5.0329,5.0374,5.0497,5.0497,5.0577,5.0705,5.0705,5.0758,5.0824,5.0438,5.008,4.9718,4.8884,4.8313,4.7861,4.6987,0.0,0.0,0.0,0.0,0.0,0.0,0.0,4.6191,4.6191,4.6216,4.6233,4.6201,4.6206,4.6209,4.6199,4.6199,4.6199,4.6199,4.6199,4.6199,4.6199,4.6199,4.6199,4.6199,0.0,0.0,0.0,0.0,0.0,0.0,0.0,0.0,0.0,0.0,0.0,0.0,0.0,0.0,0.0,0.0,0.0,0.0,4.0346,4.0301,4.0301,4.0301,4.0301,4.0301,4.0301,4.0301,4.0301,4.0301,4.0301,4.0301,4.0301,4.0301,4.0301,4.0301,4.0511,4.0903,4.1323,4.1972,4.2775,4.3663,4.4255,4.4685,4.5125,4.5307,4.5307,0.0,0.0,0.0,0.0,0.0,0.0,0.0,0.0,0.0,0.0,0.0,0.0,0.0,0.0,0.0,0.0,0.0,0.0,0.0,0.0,0.0,5.0302,5.0302,5.0302,5.0302,5.0302,5.0302,5.0302,5.0302,5.0302,5.0302,5.0302,5.0363,5.0474,5.0474,5.0537,5.0624,5.047,5.043,5.04,4.9571,4.9249,4.9081,4.7655,4.71,4.6987,4.6249,4.6002,4.6002,4.6002,0.0,0.0,0.0,0.0,4.6192,4.6211,4.6228,4.6209,4.6192,4.6193,4.6199,4.6199,4.6199,4.6199,4.6199,4.6199,4.6196,4.6162,4.6189,4.6192,0.0,0.0,0.0,0.0,0.0,0.0,0.0,0.0,0.0,0.0,0.0,0.0,0.0,0.0,0.0,0.0,0.0,0.0,4.0301,4.0301,4.0301,4.0301,4.0301,4.0301,4.0301,4.0301,4.0301,4.0301,4.0301,4.0301,4.0301,4.0301,4.0301,4.0301,4.0454,4.0883,4.1514,4.18,4.2756,4.4006,4.4159,4.4666,4.5307,4.5307,4.5307,4.5307,0.0,0.0,0.0,0.0,0.0,0.0,0.0,0.0,0.0,0.0,5.0314,5.0302,0.0,0.0,0.0,0.0,0.0,0.0,5.0302,0.0,0.0,5.0302,5.0302,5.0302,5.0302,5.0302,5.0302,5.0302,5.0302,5.0302,5.0302,5.0302,5.0314,5.0337,5.0337,5.0329,5.0313,4.9617,4.9378,4.9413,4.8558,4.7902,4.7423,4.719,4.6712,4.6157,4.6041,4.6002,4.6002,4.6002,4.6002,0.0,0.0,0.0,4.6215,4.6261,4.6296,4.626,4.6228,4.6203,4.6199,4.6199,4.6199,4.6199,4.6199,4.6199,4.6177,0.0,4.613,4.6158,0.0,0.0,0.0,0.0,0.0,0.0,0.0,0.0,0.0,0.0,0.0,0.0,0.0,0.0,0.0,0.0,0.0,0.0,4.0301,4.0301,4.0301,4.0301,4.0301,4.0301,4.0301,4.0301,4.0301,4.0301,4.0301,4.0301,4.0301,4.0301,4.0301,4.0339,4.1036,4.1399,4.1609,4.308,4.3796,4.4083,4.4838,4.5201,4.5307,4.5307,4.5307,4.5307,0.0,0.0,0.0,0.0,0.0,0.0,0.0,0.0,0.0,0.0,0.0,5.0302,0.0,0.0,0.0,5.0302,5.0302,5.0302,5.0302,5.0302,5.0302,5.0302,5.0302,5.0302,5.0302,5.0302,5.0302,5.0302,5.0302,5.0302,5.0302,5.0302,5.0302,5.0302,5.0302,5.0302,5.0245,4.9442,4.9135,4.9067,4.7707,4.706,4.6841,4.6449,4.6163,4.5955,4.598,4.6002,4.6002,4.6002,4.6002,4.6027,4.6115,0.0,0.0,0.0,4.627,4.6282,4.622,4.6196,4.6199,4.6199,4.6146,4.6089,4.6089,4.6003,4.5906,4.5834,4.5883,0.0,0.0,0.0,0.0,0.0,0.0,0.0,0.0,0.0,0.0,0.0,0.0,0.0,0.0,0.0,0.0,0.0,0.0,4.0301,4.0301,4.0301,4.0301,4.0301,4.0301,4.0301,4.0301,4.0301,4.0301,4.0301,4.0301,4.0301,4.0301,4.0301,4.0301,4.0339,4.1151,4.1781,4.2316,4.351,4.4293,4.4762,4.5144,4.5307,4.5307,4.5307,4.5307,4.5307,0.0,0.0,0.0,0.0,0.0,0.0,0.0,0.0,0.0,0.0,0.0,0.0,0.0,0.0,0.0,0.0,5.0302,5.0302,5.0302,5.0302,5.0302,5.0302,5.0302,5.0302,5.0302,5.0302,5.0302,5.0302,5.0302,5.0302,5.0302,5.0302,5.0302,5.0302,5.0302,5.0164,4.9892,4.9064,4.8583,4.8235,4.6732,4.6209,4.6302,4.5855,4.5783,4.5912,4.5989,4.6002,4.6002,4.6002,4.6002,4.6017,4.6076,4.6145,0.0,0.0,0.0,4.6255,4.6212,4.6193,4.6192,4.6154,4.6075,4.5991,4.5944,0.0,4.5696,0.0,0.0,0.0,0.0,0.0,0.0,0.0,0.0,0.0,0.0,0.0,0.0,0.0,0.0,0.0,0.0,0.0,0.0,0.0,0.0,4.0511,4.0301,4.0301,4.0301,4.0301,4.0301,4.0301,4.0301,4.0301,4.0301,4.0301,4.0301,4.0301,4.0301,4.0301,4.0416,4.0654,4.1476,4.2316,4.3176,4.3997,4.4704,4.5307,4.5307,4.5307,4.5307,4.5307,4.5307,4.5307,0.0,0.0,0.0,0.0,0.0,0.0,0.0,0.0,0.0,0.0,0.0,0.0,5.0302,5.0302,5.0302,5.0302,5.0302,5.0302,5.0302,5.0302,5.0302,5.0302,5.0302,0.0,5.0302,5.0302,5.0302,5.0302,5.0302,5.0302,5.0302,5.0302,5.0302,5.0302,5.0302,4.9804,4.8914,4.8038,4.7148,4.6278,4.5487,4.5262,4.54,4.5627,4.5783,4.5912,4.5989,4.6002,4.6002,0.0,0.0,4.6017,4.6076,4.6145,4.6209,0.0,0.0,0.0,4.6209,4.6193,4.6162,4.6032,4.6007,4.595,4.577,0.0,4.5667,4.5541,0.0,0.0,0.0,0.0,0.0,0.0,0.0,0.0,0.0,0.0,0.0,0.0,0.0,0.0,0.0,0.0,0.0,0.0,0.0,4.1094,4.0339,4.0301,4.0301,4.0301,4.0301,4.0301,4.0301,4.0301,4.0301,4.0301,4.0301,4.0301,4.0301,4.0301,4.0731,4.1495,4.2354,4.3195,4.4006,4.4876,4.5269,4.5307,4.5307,4.5307,4.5307,4.5307,4.5307,4.5307,0.0,0.0,0.0,0.0,0.0,0.0,0.0,0.0,0.0,0.0,0.0,0.0,0.0,5.0302,5.0302,5.0302,5.0302,5.0302,5.0302,5.0302,5.0302,5.0302,5.0302,5.0302,5.0302,5.0302,5.0302,5.0302,5.0302,5.0302,5.0302,5.0302,5.0302,5.0283,4.9767,4.9308,4.8819,4.7417,4.6604,4.6139,4.5399,4.5129,4.5197,4.5466,4.564,4.5783,4.5899,0.0,0.0,0.0,0.0,0.0,0.0,4.6112,4.6215,4.6245,4.6234,4.6203,4.6209,4.6193,4.6177,4.6027,4.5902,4.5764,4.5611,4.5498,4.5428,4.5381,0.0,0.0,0.0,0.0,0.0,0.0,0.0,0.0,0.0,0.0,0.0,0.0,0.0,0.0,0.0,0.0,0.0,0.0,0.0,0.0,4.1113,4.1074,4.0826,4.032,4.0301,4.0301,4.0301,4.0301,4.0301,4.0301,4.0301,4.0301,4.032,4.0826,4.1533,4.2374,4.3214,4.372,4.4064,4.4934,4.5307,4.5307,4.5307,4.5307,4.5307,4.5307,4.5307,4.5307,0.0,0.0,0.0,0.0,0.0,0.0,0.0,0.0,0.0,5.0144,0.0,0.0,0.0,0.0,4.9968,4.9968,5.0063,5.0132,5.0132,5.0236,5.0302,5.0302,5.0302,5.0302,5.0302,5.0302,5.0302,5.0302,5.0302,5.0302,5.0302,5.0302,5.0302,5.0245,4.9156,4.8559,4.8308,4.6908,4.6094,4.566,4.5214,4.5068,4.5136,4.54,4.5558,4.566,0.0,0.0,0.0,0.0,0.0,0.0,0.0,0.0,4.6215,4.6242,4.623,4.6203,4.6209,4.6193,4.6177,4.6027,4.5847,4.5667,4.5533,4.54,4.5307,4.5307,0.0,0.0,0.0,0.0,0.0,0.0,0.0,0.0,0.0,0.0,0.0,0.0,0.0,0.0,0.0,0.0,0.0,0.0,0.0,0.0,4.1972,4.1934,4.1552,4.0731,4.0711,4.0578,4.0301,4.0301,4.0301,4.0301,4.0301,4.0435,4.0731,4.1266,4.2125,4.3233,4.3758,4.4159,4.4475,4.5048,4.5307,4.5307,4.5307,4.5307,4.5307,4.5307,4.5307,4.5307,0.0,0.0,0.0,0.0,0.0,0.0,0.0,0.0,5.0156,4.983,0.0,0.0,0.0,0.0,0.0,4.9299,4.9584,4.9803,4.9803,5.01,5.029,5.0302,5.0302,5.0302,5.0302,5.0302,5.0302,5.0302,5.0302,5.0302,5.0302,5.0302,5.0302,5.0225,4.8552,4.7655,4.7346,4.6518,4.5597,4.4725,4.4852,4.4986,4.5117,4.54,4.5495,0.0,4.5798,4.5893,0.0,4.5969,0.0,0.0,0.0,4.6091,4.6191,4.6191,4.6191,4.6203,0.0,0.0,0.0,4.6027,4.5853,4.5675,4.5533,0.0,4.5288,4.5307,0.0,0.0,0.0,0.0,0.0,0.0,0.0,0.0,0.0,0.0,0.0,0.0,0.0,0.0,0.0,0.0,0.0,0.0,0.0,4.3682,4.2889,4.2813,4.2412,4.1571,4.1533,4.1151,4.0377,4.0358,4.0358,4.0358,4.0339,4.0769,4.1533,4.1533,4.245,4.4006,4.4025,4.4532,4.5307,4.5307,4.5307,4.5307,4.5307,4.5307,4.5307,4.5307,4.5307,4.5307,0.0,0.0,0.0,0.0,0.0,0.0,4.9942,4.973,4.9541,0.0,0.0,0.0,4.9299,4.9299,4.9299,4.9299,4.9375,4.9541,4.9771,4.9884,5.0051,5.029,5.0302,5.0302,5.0302,5.0302,5.0302,5.0302,5.0302,5.0302,5.0302,5.0302,5.0302,5.0225,4.8552,4.7701,4.7445,4.5911,4.5048,4.4725,4.4852,4.4919,4.4979,4.5237,0.0,0.0,0.0,4.5812,4.5912,0.0,4.6002,4.6012,0.0,4.6131,4.6191,4.6191,4.6234,4.6255,4.6212,0.0,0.0,0.0,0.0,0.0,0.0,0.0,4.541,4.5319,0.0,0.0,0.0,0.0,0.0,0.0,0.0,0.0,0.0,0.0,0.0,0.0,0.0,0.0,0.0,0.0,0.0,0.0,4.4934,4.4571,4.3701,4.3119,4.2698,4.245,4.2431,4.2335,4.2106,4.2106,4.2106,4.2106,4.1476,4.1609,4.2431,4.2431,4.3004,4.4045,4.4666,4.5067,4.5307,4.5307,4.5307,4.5307,4.5307,4.5307,4.5307,4.5307,4.5307,4.5307,0.0,0.0,0.0,0.0,0.0,4.9584,4.9584,4.9439,4.9237,0.0,0.0,0.0,4.89,4.8864,4.8864,4.8864,4.9015,4.9177,4.9363,4.9646,4.9884,5.0076,5.0224,5.0302,5.0302,5.0302,5.0302,5.0302,5.0302,5.0302,5.0302,5.0302,5.013,4.9729,4.8411,4.7544,4.7049,4.5608,4.4931,4.487,4.4943,4.5033,4.5072,4.5235,4.5339,0.0,0.0,0.0,4.5833,4.5958,4.6002,0.0,0.0,0.0,4.6167,4.6184,4.6229,4.6245,4.6209,4.6209,4.617,4.6102,0.0,0.0,4.565,4.5549,4.5455,0.0,0.0,0.0,0.0,0.0,0.0,0.0,0.0,0.0,0.0,0.0,0.0,0.0,0.0,0.0,0.0,0.0,0.0,4.5307,4.5307,4.5067,4.4571,4.4093,4.3673,4.331,4.331,4.3138,4.2794,4.2794,4.2794,4.2794,4.2297,4.2488,4.331,4.331,4.3749,4.4571,4.5067,4.5307,4.5307,4.5307,4.5307,4.5307,4.5307,4.5307,4.5307,4.5307,4.5307,4.5307,0.0,0.0,4.9237,4.9237,4.9237,4.9237,4.9237,4.9206,4.908,0.0,4.8746,4.8641,4.8344,4.8306,4.8306,4.8306,4.8568,4.8764,4.8799,4.9394,4.9757,4.9803,5.0132,5.0302,5.0302,5.0302,5.0302,5.0302,5.0302,5.0302,5.0302,5.0302,4.9862,4.9071,4.82,4.7311,4.6432,4.5513,4.5125,4.5125,4.5114,4.517,0.0,0.0,4.5307,4.5329,4.5593,4.5692,4.5727,4.5922,4.6002,0.0,0.0,0.0,0.0,0.0,4.6185,4.6207,4.6193,4.6203,4.6203,4.6206,4.6106,0.0,4.5783,4.5642,4.5518,0.0,0.0,0.0,0.0,0.0,0.0,0.0,0.0,0.0,0.0,0.0,0.0,0.0,0.0,0.0,0.0,4.5307,4.5307,4.5307,4.5307,4.5307,4.5307,4.5307,4.4934,4.4159,4.414,4.3796,4.308,4.308,4.308,4.308,4.2985,4.3367,4.414,4.4045,4.4475,4.5307,4.5307,4.5307,4.5307,4.5307,4.5307,4.5307,4.5307,4.5307,4.5307,4.5307,4.5307,4.5307,0.0,4.89,4.89,4.89,4.89,4.89,4.89,4.8658,4.8477,4.8402,4.8402,4.8364,4.8306,4.8306,4.8306,4.8306,4.8345,4.8514,4.8781,4.9177,4.9512,4.9803,5.0132,5.0302,5.0302,5.0302,5.0302,5.0302,5.0302,5.0302,5.0302,5.0302,4.9862,4.9071,4.82,4.7311,4.6462,4.56,4.5265,4.5246,4.5148,4.5114,4.5148,4.5265,4.5307,4.5328,4.5476,4.5618,4.5727,4.5922,4.6002,4.6002,0.0,0.0,0.0,4.6115,0.0,0.0,0.0,0.0,0.0,0.0,0.0,0.0,4.5972,4.5927,4.5822,0.0,4.5455,0.0,0.0,0.0,0.0,0.0,0.0,0.0,0.0,0.0,0.0,0.0,0.0,0.0,0.0,4.5307,4.5307,4.5307,4.5307,4.5307,4.5307,4.5307,4.522,4.5048,4.5048,4.4972,4.48,4.48,4.48,4.48,4.4112,4.4227,4.501,4.4312,4.4475,4.5307,4.5307,4.5307,4.5307,4.5307,4.5307,4.5307,4.5307,4.5307,4.5307,4.5307,4.5307,4.5307,4.8514,4.855,4.855,4.855,4.855,4.855,4.855,4.842,4.8306,4.8306,4.8306,4.8306,4.8306,4.8306,4.8306,4.8306,4.8306,4.8364,4.855,4.8866,4.9209,4.9541,4.987,5.0132,5.0302,5.0302,5.0302,5.0302,5.0302,5.0302,5.0302,5.0302,4.9633,4.843,4.7979,4.7092,4.587,4.5468,4.5307,4.5297,4.5243,0.0,4.5203,4.5256,4.5307,4.5328,4.5448,4.5635,4.5819,4.5958,4.6002,0.0,0.0,4.6018,4.6067,0.0,4.6128,4.6153,0.0,0.0,0.0,4.6198,0.0,0.0,0.0,4.6002,4.5914,4.5657,4.5558,4.5482,4.54,0.0,0.0,0.0,0.0,0.0,0.0,0.0,0.0,0.0,0.0,0.0,0.0,4.5307,4.5307,4.5307,4.5307,4.5307,4.5307,4.5307,4.5307,4.5307,4.5307,4.5307,4.5307,4.5307,4.5307,4.5288,4.4857,4.4876,4.5288,4.4857,4.4895,4.5307,4.5307,4.5307,4.5307,4.5307,4.5307,4.5307,4.5307,4.5307,4.5307,4.5307,4.5307,4.5307,4.8306,4.8306,4.8306,4.8306,4.8306,4.8306,4.8306,4.8306,4.8306,4.8306,4.8306,4.8306,4.8306,4.8306,4.8306,4.8306,4.8306,4.8306,4.8306,4.8623,4.8951,4.9302,4.9613,4.9955,5.029,5.0302,5.0302,5.0302,5.0302,5.0302,5.0302,5.0302,4.9404,4.7788,4.7788,4.6882,4.5307,4.5307,4.5307,4.5307,0.0,4.5307,4.5307,4.5307,4.5307,4.5328,4.5476,4.568,4.5912,4.5969,4.6002,4.6002,4.6002,4.6002,0.0,0.0,0.0,0.0,0.0,0.0,0.0,0.0,0.0,4.6167,0.0,0.0,0.0,4.5796,4.5672,0.0,0.0,0.0,0.0,0.0,0.0,0.0,0.0,0.0,0.0,0.0,0.0,0.0,0.0,4.5307,4.5307,4.5307,4.5307,4.5307,4.5307,4.5307,4.5307,4.5307,4.5307,4.5307,4.5307,4.5307,4.5307,4.5307,4.5307,4.5307,4.5307,4.5307,4.5307,4.5307,4.5307,4.5307,4.5307,4.5307,4.5307,4.5307,4.5307,4.5307,4.5307,4.5307,4.5307,4.5307,4.8325,4.8306,4.8306,4.8306,4.8306,4.8306,4.8306,4.8306,4.8306,4.8306,4.8306,4.8306,4.8306,4.8306,4.8306,4.8306,4.8306,4.8306,4.8306,4.8623,4.8951,4.9302,4.9613,4.9955,5.029,5.0302,5.0302,5.0302,5.0302,5.0302,5.0302,5.0302,4.9404,4.7788,4.7788,4.6882,4.5307,4.5307,4.5307,0.0,4.5307,4.5307,0.0,4.5307,4.5307,4.5329,4.5593,4.5776,4.5912,0.0,4.6002,4.6002,0.0,4.6002,4.6002,4.6017,0.0,0.0,0.0,0.0,0.0,0.0,4.6191,0.0,0.0,0.0,4.6142,4.6002,0.0,0.0,0.0,0.0,0.0,0.0,0.0,0.0,0.0,0.0,0.0,0.0,0.0,0.0,0.0,0.0,4.5307,4.5307,4.5307,4.5307,4.5307,4.5307,4.5307,4.5307,4.5307,4.5307,4.5307,4.5307,4.5307,4.5307,4.5307,4.5307,4.5307,4.5307,4.5307,4.5307,4.5307,4.5307,4.5307,4.5307,4.5307,4.5307,4.5307,4.5307,4.5307,4.5307,4.5307,4.5307,4.8325,4.8306,4.8306,4.8306,4.8306,4.8306,4.8306,4.8306,4.8306,4.8306,4.8306,4.8306,4.8306,4.8306,4.8306,4.8306,0.0,4.8306,0.0,0.0,4.8746,4.9287,4.942,4.9757,5.029,5.0302,5.0302,5.0302,5.0302,5.0302,5.0302,5.0302,4.9404,4.7799,4.7878,4.6929,4.5307,4.539,4.537,0.0,0.0,0.0,0.0,4.5307,4.5307,4.5348,4.559,4.5739,4.5812,0.0,4.6002,0.0,0.0,0.0,0.0,0.0,0.0,0.0,0.0,0.0,0.0,0.0,0.0,0.0,4.6209,0.0,4.6189,0.0,0.0,0.0,0.0,0.0,0.0,0.0,4.5446,0.0,0.0,0.0,0.0,0.0,0.0,0.0,0.0,0.0,0.0,0.0,4.5307,4.5307,4.5307,4.5307,4.5307,4.5307,4.5307,4.5307,4.5307,4.5307,4.5307,4.5307,4.5307,4.5307,4.5307,4.5307,4.5307,4.5307,4.5307,4.5307,4.5307,4.5307,4.5307,4.5307,4.5307,4.5307,4.5307,4.5307,4.5307,4.5307,4.8344,4.8306,4.8306,4.8306,4.8306,4.8306,4.8306,4.8306,4.8306,4.8306,4.8306,4.8306,4.8306,4.8306,0.0,0.0,4.8306,4.8344,0.0,0.0,4.864,0.0,0.0,0.0,0.0,5.0302,5.0302,5.0302,5.0302,5.0302,5.0302,5.0302,4.9404,4.7799,4.7899,4.698,4.536,4.5429,4.5419,4.535,4.5298,4.5307,4.5307,4.5307,4.5359,4.5448,4.5635,4.5746,4.5787,4.5958,4.6002,0.0,4.6002,0.0,0.0,0.0,0.0,0.0,4.6052,0.0,0.0,0.0,0.0,0.0,0.0,0.0,0.0,0.0,0.0,0.0,0.0,0.0,0.0,0.0,0.0,4.5507,0.0,0.0,0.0,0.0,0.0,0.0,0.0,0.0,0.0,4.5307,4.5307,4.5307,4.5307,4.5307,4.5307,4.5307,4.5307,4.5307,4.5307,4.5307,4.5307,4.5307,4.5307,4.5307,4.5307,4.5307,4.5307,4.5307,4.5307,4.5307,4.5307,4.5307,4.5307,4.5307,4.5307,4.5307,4.5307,4.5307,4.5307,4.5307,4.8344,4.8306,4.8306,4.8306,4.8306,4.8306,4.8306,4.8306,4.8306,4.8306,4.8306,0.0,0.0,0.0,0.0,0.0,0.0,4.8439,4.8764,0.0,4.8728,0.0,0.0,4.9613,0.0,0.0,5.0302,5.0302,5.0302,5.0302,5.0302,5.0302,4.9404,4.7788,4.7799,4.6959,4.5485,4.536,4.538,4.5485,4.535,4.5307,4.5307,0.0,4.5457,4.5692,4.57,0.0,0.0,4.5997,4.6002,0.0,0.0,0.0,0.0,0.0,0.0,0.0,0.0,0.0,0.0,4.6105,0.0,0.0,0.0,0.0,4.6209,0.0,0.0,0.0,0.0,0.0,0.0,0.0,0.0,0.0,0.0,0.0,0.0,0.0,0.0,0.0,0.0,0.0,0.0,4.5307,4.5307,4.5307,4.5307,4.5307,4.5307,4.5307,4.5307,4.5307,4.5307,4.5307,4.5307,4.5307,4.5307,4.5307,4.5307,4.5307,4.5307,4.5307,4.5307,4.5307,4.5307,4.5307,4.5307,4.5307,4.5307,4.5307,4.5307,4.5307,4.5307,4.5307,4.8457,4.8363,4.8306,4.8306,4.8306,4.8306,4.8306,4.8306,4.8383,0.0,4.8641,0.0,0.0,4.8965,4.8883,0.0,0.0,4.8694,4.8799,4.8477,0.0,0.0,0.0,4.9613,0.0,0.0,0.0,5.0302,5.0302,5.0302,5.0283,4.9748,4.8907,4.778,4.7294,4.6494,4.5496,0.0,0.0,0.0,0.0,4.5513,4.541,0.0,0.0,4.5584,4.5676,4.5812,0.0,4.598,4.6002,4.6002,4.6002,4.6002,4.6002,4.6002,4.6002,0.0,0.0,0.0,4.605,4.6134,0.0,0.0,0.0,0.0,0.0,0.0,0.0,0.0,0.0,0.0,0.0,0.0,0.0,0.0,0.0,0.0,0.0,0.0,0.0,0.0,0.0,0.0,0.0,4.5307,4.5307,4.5307,0.0,4.5307,4.5307,4.5307,4.5307,4.5307,4.5307,4.5307,4.5307,4.5307,4.5307,4.5307,4.5307,4.5307,4.5307,4.5307,4.5307,4.5307,4.5307,4.5307,4.5307,4.5307,4.5307,4.5307,4.5307,4.5307,4.5307,4.5449,4.8457,4.8363,4.8306,4.8306,4.8306,4.8306,4.8306,4.8402,0.0,0.0,4.89,0.0,4.9287,0.0,4.9206,0.0,4.8984,4.9034,4.9145,4.8849,0.0,4.9942,4.966,0.0,0.0,0.0,0.0,0.0,5.0302,5.0302,5.0283,4.948,4.8621,4.778,4.6988,4.6233,4.5573,4.5615,4.5706,0.0,0.0,4.5665,0.0,0.0,4.5519,4.5593,0.0,4.5847,4.5943,4.598,4.6002,4.6002,4.6002,4.6002,4.6002,4.6002,4.6002,4.6002,4.6002,4.6002,0.0,4.6102,4.6119,0.0,4.6182,0.0,0.0,0.0,0.0,0.0,0.0,0.0,0.0,0.0,0.0,0.0,0.0,4.5627,0.0,0.0,0.0,0.0,0.0,0.0,4.5307,4.5307,4.5307,4.5307,0.0,0.0,4.5307,4.5307,4.5307,4.5307,4.5307,4.5307,4.5307,4.5307,4.5307,4.5307,4.5307,4.5307,4.5307,4.5307,4.5307,4.5307,4.5307,4.5307,4.5307,4.5307,4.5307,4.5307,4.5307,4.5307,4.5468,4.5927,4.8344,4.8306,4.8306,4.8306,4.8306,0.0,0.0,0.0,4.8816,0.0,4.9129,4.9329,4.9363,4.9345,4.9329,4.9333,4.9314,4.9468,4.9771,4.9483,0.0,0.0,4.9981,4.9955,5.029,0.0,0.0,0.0,0.0,5.0283,5.0225,4.9404,4.8563,4.7693,4.6825,4.6157,4.5696,4.5557,4.5698,4.5998,4.5875,4.5764,4.5731,4.5783,4.5783,4.5719,4.5866,4.5949,4.6002,4.6002,4.6002,4.6002,4.6002,4.6002,4.6002,4.6002,4.6002,4.6002,4.6002,4.6002,4.6002,4.6002,0.0,0.0,0.0,0.0,4.6203,0.0,0.0,0.0,0.0,0.0,0.0,0.0,0.0,0.0,0.0,0.0,0.0,0.0,0.0,0.0,0.0,4.5307,4.5307,4.5307,4.5307,4.5307,0.0,0.0,4.5307,4.5307,4.5307,4.5307,4.5307,4.5307,4.5307,4.5307,4.5307,4.5307,4.5307,4.5307,4.5307,4.5307,4.5307,4.5307,4.5307,4.5307,4.5307,4.5307,4.5307,4.5307,4.5307,4.5307,4.5831,4.6691,4.8325,4.8306,4.8306,0.0,4.8306,4.8306,0.0,0.0,0.0,0.0,4.9512,4.9811,5.0006,5.0051,4.9942,4.9702,4.9674,0.0,0.0,0.0,0.0,5.0278,4.9981,4.9955,5.029,5.0302,0.0,5.0302,0.0,4.9996,4.9396,4.8525,4.7665,4.6806,4.5965,4.5648,4.5703,4.5654,4.5809,4.6065,4.6047,4.5978,0.0,0.0,4.6022,4.5925,4.5902,4.5972,4.6071,4.6012,4.6002,4.6002,4.6002,4.6002,4.6002,4.6002,4.6002,4.6002,4.6002,4.6002,4.6012,4.6071,4.6089,4.6126,0.0,0.0,0.0,0.0,0.0,0.0,0.0,0.0,0.0,0.0,0.0,0.0,0.0,0.0,0.0,4.5524,0.0,0.0,0.0,4.5307,4.5307,4.5307,4.5307,0.0,0.0,0.0,0.0,4.5307,4.5307,4.5307,4.5307,4.5307,4.5307,4.5307,4.5307,4.5307,4.5307,4.5307,4.5307,4.5307,4.5307,4.5307,4.5307,4.5307,4.5307,4.5307,4.5307,4.5307,4.5307,4.5307,4.6214,4.7502,4.8458,4.855,0.0,4.8605,0.0,0.0,4.8586,4.8728,0.0,4.9299,4.9641,0.0,5.0063,5.0212,5.0224,5.0038,5.0025,0.0,5.0025,0.0,0.0,5.029,5.0132,5.012,5.0302,5.0302,0.0,5.0302,0.0,4.9882,4.9091,4.822,4.733,4.6462,4.566,4.5419,4.5619,4.5769,4.5914,4.6059,4.6119,0.0,0.0,4.6206,4.6206,4.6118,4.6056,4.6072,4.6138,4.6071,4.6037,4.6032,4.6007,4.6002,4.6002,4.6002,4.6017,4.6037,4.6037,4.6037,4.6042,4.6089,4.6098,4.6102,4.6146,4.6181,4.6192,0.0,0.0,0.0,0.0,0.0,0.0,0.0,0.0,0.0,0.0,0.0,0.0,0.0,4.5591,0.0,0.0,4.532,4.5307,4.5307,0.0,0.0,0.0,0.0,0.0,4.5307,4.5307,4.5307,4.5307,4.5307,4.5307,4.5307,4.5307,4.5307,4.5307,4.5307,4.5307,4.5307,4.5307,4.5307,4.5307,4.5307,4.5307,4.5307,4.5307,4.5307,4.5345,4.5679,4.6653,4.7845,4.8678,4.8937,0.0,0.0,0.0,0.0,0.0,4.8996,0.0,4.9435,0.0,4.9897,4.987,5.0144,5.0314,5.0302,0.0,5.0302,5.0302,5.0302,5.0302,5.0302,5.0302,5.0302,5.0302,5.0302,5.0302,0.0,0.0,4.9729,4.8907,4.8048,4.7169,4.6309,4.5602,4.5381,4.5549,4.5863,4.6002,4.6041,4.6147,4.6209,4.6216,4.6275,4.63,4.6298,4.6221,4.6215,4.6199,4.6119,4.6106,4.6098,4.6037,4.6022,4.6022,4.6012,4.6042,4.6093,4.6089,4.6089,4.6089,4.6089,4.6093,4.6098,4.6102,4.615,4.6194,4.6191,4.6202,4.6191,0.0,0.0,0.0,0.0,0.0,0.0,0.0,0.0,0.0,0.0,0.0,0.0,0.0,0.0,0.0,0.0,0.0,0.0,0.0,0.0,0.0,4.5307,4.5307,0.0,4.5307,0.0,4.5307,4.5307,4.5307,4.5307,4.5307,4.5307,4.5307,4.5307,4.5307,4.5307,4.5307,4.5307,4.5307,4.5307,4.5307,4.5354,4.5564,4.6366,4.7226,4.8086,4.8971,0.0,0.0,0.0,0.0,4.9508,4.976,4.984,4.9885,4.9898,5.0214,5.0416,5.0314,5.0348,5.0348,5.0302,5.0302,0.0,0.0,0.0,0.0,5.0302,5.0302,5.0302,5.0302,5.0302,5.0302,0.0,0.0,0.0,4.8009,4.715,4.629,4.5488,4.5354,4.5447,4.5689,4.5889,0.0,4.6173,4.6184,4.6221,4.6277,4.63,4.63,4.63,4.6296,4.6243,4.6195,4.618,4.6189,4.6185,4.6162,4.6158,4.615,4.6093,4.6089,4.6089,4.6027,4.6012,4.6012,4.6012,4.6066,4.6106,4.6162,4.6187,4.6196,4.6209,4.6196,4.6191,4.6193,0.0,0.0,0.0,0.0,0.0,0.0,0.0,0.0,0.0,0.0,4.5615,0.0,0.0,0.0,0.0,0.0,0.0,0.0,0.0,0.0,0.0,4.5307,0.0,0.0,0.0,4.5307,4.5307,4.5307,4.5307,4.5307,4.5307,4.5307,4.5307,4.5307,4.5307,4.5307,4.5307,4.5307,4.5307,4.5307,4.5698,4.6385,4.7264,4.8124,4.8888,4.9442,0.0,0.0,0.0,0.0,0.0,0.0,5.0377,0.0,5.0031,5.0178,5.0256,5.0197,5.0317,5.039,5.0348,5.0314,5.0302,5.0302,5.0302,5.0302,5.0302,4.9901,0.0,4.9671,4.9232,4.9003,4.9003,0.0,0.0,4.7131,4.671,4.6061,4.5307,4.5371,4.5505,0.0,0.0,0.0,4.6147,4.6181,4.6243,4.63,4.63,4.63,4.63,4.63,4.6275,4.6243,4.6215,4.6206,4.62,4.6162,4.6146,4.6138,4.6075,4.6075,4.6093,4.6066,4.6042,4.6042,4.6042,4.608,4.6102,4.6142,4.6178,4.6191,4.6209,4.6205,4.6191,4.6193,4.6199,0.0,0.0,0.0,0.0,0.0,0.0,0.0,0.0,0.0,0.0,0.0,0.0,0.0,0.0,0.0,0.0,0.0,0.0,0.0,0.0,0.0,0.0,0.0,0.0,0.0,4.5307,4.5307,4.5307,4.5307,4.5307,4.5307,4.5307,4.5307,4.5307,4.5307,4.5307,4.5307,4.5307,4.5307,4.5793,4.6615,4.7483,4.8353,4.9167,0.0,4.973,0.0,0.0,4.9935,0.0,5.0046,5.0086,5.0141,5.0121,4.9971,4.9844,4.982,4.9843,4.9865,4.9854,4.9809,4.9767,4.9767,4.9767,4.9767,4.9767,4.9156,4.8834,4.8868,4.8187,4.7865,0.0,0.0,0.0,0.0,0.0,0.0,0.0,0.0,0.0,0.0,0.0,4.6068,4.6144,4.6206,4.6247,4.63,4.63,4.63,4.63,4.63,4.63,4.6298,4.6243,4.6216,4.6209,4.6157,4.6138,4.6131,4.6065,4.6078,4.6123,4.6115,4.6111,4.6111,4.6111,4.6111,4.6115,4.6123,4.6153,4.6202,4.6217,4.6209,4.6206,4.619,4.6199,0.0,0.0,0.0,0.0,0.0,0.0,0.0,0.0,0.0,0.0,4.571,0.0,0.0,0.0,0.0,0.0,0.0,0.0,0.0,0.0,0.0,4.5307,4.5307,0.0,4.5307,0.0,4.5307,4.5307,4.5307,4.5307,4.5307,4.5307,4.5307,4.5307,4.5307,4.5307,4.5307,4.5307,4.5307,4.5908,4.6863,4.754,4.8468,4.9442,0.0,0.0,0.0,0.0,0.0,0.0,4.8241,4.8241,4.8798,5.0331,4.9862,4.9322,4.9196,4.8564,4.8113,4.8059,4.8048,4.8036,4.8036,4.8036,4.8036,4.8036,4.796,4.7979,4.8105,4.8029,4.8039,0.0,0.0,0.0,0.0,0.0,0.0,0.0,0.0,0.0,0.0,4.6064,4.615,4.6275,4.6296,4.6298,4.63,4.63,4.63,4.63,4.63,4.63,4.63,4.6298,4.6298,4.6298,4.6275,4.6273,4.6269,4.6203,4.6198,4.6192,4.6183,4.6192,4.6192,4.6192,4.6192,4.6183,4.6192,4.6206,4.6228,4.6284,4.6243,4.6197,4.6209,4.6199,4.6199,0.0,0.0,0.0,0.0,0.0,4.6199,4.6199,0.0,0.0,0.0,4.5563,0.0,0.0,0.0,0.0,0.0,0.0,0.0,4.5307,0.0,4.5307,4.5307,4.5307,0.0,4.5307,4.5307,4.5307,4.5307,4.5307,4.5307,4.5307,4.5307,4.5307,4.5307,4.5307,4.5307,4.5307,4.5307,4.6271,4.7693,4.7769,4.8812,5.0206,0.0,0.0,0.0,0.0,0.0,0.0,0.0,4.8058,4.8289,4.8951,4.8759,4.8557,4.8507,4.8139,4.7886,4.7854,4.7821,4.7788,4.7788,4.7886,4.7919,4.7919,4.7492,4.7279,4.7342,4.6861,4.6645,0.0,0.0,0.0,0.0,0.0,0.0,0.0,0.0,4.5919,4.6068,4.6173,4.6247,4.63,4.63,4.63,4.63,4.63,4.63,4.63,4.63,4.63,4.63,4.63,4.63,4.6298,4.6247,4.6243,4.6238,4.6209,4.62,4.6196,4.6203,4.6199,4.6199,4.6199,4.6193,4.6192,4.6203,4.6236,4.6277,4.6286,4.6242,4.6194,4.6209,4.6199,4.6199,0.0,0.0,0.0,0.0,0.0,0.0,4.6199,0.0,4.5914,0.0,0.0,0.0,0.0,0.0,0.0,0.0,0.0,0.0,4.5307,0.0,4.5307,4.5307,4.5307,4.5307,4.5307,4.5307,4.5307,4.5307,4.5307,4.5307,4.5307,4.5307,4.5307,4.5307,4.5307,4.5307,4.5364,4.5831,4.6748,4.7865,4.8391,4.9308,5.0302,4.7474,0.0,4.7761,0.0,4.7452,4.7452,4.7452,4.7452,4.7444,4.7392,4.7414,4.7516,4.7674,4.7414,4.7222,4.7222,4.7201,4.7172,4.7172,4.7281,4.7318,4.7318,4.6818,0.0,4.6615,4.6043,4.5776,4.5793,4.5673,0.0,0.0,0.0,0.0,0.0,4.5938,4.6048,4.6138,4.6247,4.63,4.63,4.63,4.63,4.63,4.63,4.63,4.63,4.63,4.63,4.63,4.63,4.63,4.6298,4.6243,4.6238,4.6236,4.6234,4.6228,4.6228,4.6228,4.6228,4.6228,4.6228,4.6226,4.6238,4.6238,4.6272,4.6288,4.6269,4.6234,4.6194,4.6209,4.6199,4.6199,4.6199,0.0,0.0,0.0,0.0,0.0,0.0,4.6126,4.5952,4.5724,4.5607,0.0,0.0,0.0,0.0,0.0,0.0,0.0,0.0,0.0,0.0,0.0,4.5307,4.5307,4.5307,4.5307,4.5307,4.5307,4.5307,4.5307,4.5307,4.5307,4.5307,4.5307,4.5307,4.5307,4.5373,4.6194,4.7035,4.7903,4.8774,4.9614,5.0302,4.5974,4.6564,4.6932,4.6069,4.5938,4.5938,4.5938,4.5938,4.5938,4.5938,4.5931,4.6125,4.6657,4.607,4.5624,4.5624,4.569,4.5738,4.5738,4.5719,4.5719,0.0,0.0,4.5781,4.5912,4.59,4.5925,4.5997,0.0,0.0,4.5893,0.0,4.5773,4.59,4.5978,4.6064,4.6209,4.6273,4.63,4.63,4.63,4.63,4.63,4.63,4.63,4.63,4.63,4.63,4.63,4.63,4.63,4.63,4.63,4.63,4.63,4.63,4.63,4.63,4.63,4.63,4.63,4.63,4.63,4.63,4.63,4.6299,4.6289,4.62,4.6208,4.6194,4.6209,4.6199,4.6199,4.6199,0.0,0.0,0.0,0.0,0.0,0.0,4.6196,4.6069,4.5737,0.0,0.0,0.0,0.0,0.0,0.0,0.0,0.0,4.5307,4.5307,0.0,4.5307,4.5307,4.5307,4.5307,4.5307,4.5307,4.5307,4.5307,4.5307,4.5307,4.5307,4.5307,4.5307,4.5307,4.5307,4.5373,4.6194,4.7035,4.7903,4.8774,4.9614,5.0302,4.5922,4.6105,4.623,4.5938,4.5899,4.5899,4.5899,4.5899,4.5899,4.5899,4.5894,4.5972,4.6145,4.5898,4.5729,0.0,4.5708,4.5706,0.0,4.5793,4.5845,4.5845,4.588,4.5929,4.5978,4.5978,4.5975,4.6002,0.0,0.0,0.0,4.5866,4.5923,4.6111,4.6123,4.6196,4.6273,4.6298,4.6291,4.6302,4.6302,4.6267,4.623,4.623,4.623,4.623,4.623,4.623,4.623,4.623,4.623,4.623,4.623,4.6268,4.6284,4.625,4.623,4.623,4.623,4.623,4.623,4.623,4.623,4.623,4.623,4.6226,4.6225,4.6195,4.6203,4.62,4.6203,4.6199,4.6199,4.6199,4.6199,0.0,0.0,0.0,0.0,0.0,4.6199,4.6119,0.0,4.5783,0.0,0.0,0.0,0.0,0.0,0.0,0.0,0.0,4.5307,0.0,4.5307,4.5307,4.5307,4.5307,4.5307,4.5307,4.5307,4.5307,4.5307,4.5307,4.5307,4.5307,4.5307,4.5307,4.5621,4.6194,4.7043,4.7914,4.8793,4.9614,5.0073,5.0302,4.5983,4.6028,4.6053,4.6053,4.6053,4.6053,4.6053,4.6053,4.6053,4.6053,4.6053,4.6053,4.6053,4.6009,0.0,4.5889,4.5886,4.5889,4.5846,4.5922,4.596,4.5937,4.5969,4.6002,4.6002,0.0,0.0,4.6002,4.5966,4.5937,4.5937,4.596,4.6066,4.6199,4.6193,4.6233,4.6294,4.6294,4.6284,4.6269,4.6269,4.6249,4.6204,4.6204,4.6204,4.6204,4.6204,4.6204,4.6204,4.6204,4.6204,4.6203,4.6196,4.6221,4.6247,4.6205,4.6204,4.6204,4.6204,4.6204,4.6204,4.6204,4.6204,4.6203,4.6196,4.62,4.6197,4.6209,4.6199,4.6199,4.6199,4.6199,4.6199,4.6199,4.6199,4.6199,4.6199,0.0,0.0,0.0,0.0,0.0,0.0,4.5828,0.0,0.0,0.0,0.0,0.0,0.0,0.0,4.5307,4.5307,0.0,4.5307,4.5307,4.5307,4.5307,4.5307,4.5307,4.5307,4.5307,4.5307,4.5307,4.5307,4.5307,4.5307,4.5307,4.5774,4.6596,4.7463,4.8334,4.9205,4.9996,5.0302,5.0302,4.6109,4.6214,0.0,0.0,4.63,0.0,4.63,4.63,4.63,4.63,4.63,4.63,4.63,4.63,4.6216,4.6041,0.0,0.0,0.0,4.6098,4.6075,4.6007,4.6002,4.6002,4.6002,4.6002,4.6002,4.6002,4.6002,4.6002,4.6002,4.608,4.6127,4.6187,4.6201,4.6225,4.6288,4.6288,4.6269,4.6202,4.6202,4.6202,4.6201,4.6201,4.6201,4.6201,4.6201,4.6201,4.6201,4.6201,4.6201,4.6198,4.6193,4.6204,4.621,4.6195,4.6201,4.6201,4.6201,4.6201,4.6201,4.6201,4.6201,4.6196,4.6191,4.6204,4.6192,4.6209,4.6199,4.6199,4.6199,4.6199,4.6199,4.6199,4.6199,4.6199,4.6199,0.0,0.0,0.0,0.0,0.0,0.0,4.5828,4.5696,0.0,0.0,0.0,0.0,0.0,4.5364,4.5307,4.5307,4.5307,4.5307,4.5307,4.5307,4.5307,4.5307,4.5307,4.5307,4.5307,4.5307,4.5307,4.5307,4.5307,4.5307,4.5364,4.5851,4.6691,4.754,4.843,4.9282,5.0015,5.0302,5.0302,0.0,0.0,4.63,4.63,4.63,4.63,4.63,4.63,4.63,4.63,4.63,4.63,4.63,4.63,4.6275,4.6221,4.6206,4.6195,4.6186,4.6135,4.6093,4.608,4.6022,4.6002,4.6002,4.6002,4.6002,4.6002,4.6002,4.6002,4.6002,4.6068,4.6105,4.6138,4.6179,4.6211,4.6228,4.6228,4.6201,4.6199,4.6199,4.6204,4.6195,4.6195,4.6195,4.6195,4.6195,4.6195,4.6195,4.6195,4.6195,4.6192,4.62,4.6196,4.62,4.6192,4.6195,4.6195,4.6195,4.6195,4.6195,4.6195,4.6195,4.6192,4.62,4.6196,4.6193,4.6199,4.6199,4.6199,4.6199,4.6199,4.6199,4.6199,4.6199,4.6199,4.6199,4.6199,0.0,0.0,4.6199,4.6146,4.6012,4.5828,4.6179,0.0,0.0,0.0,0.0,4.694,4.5927,4.5326,4.5307,4.5307,4.5307,4.5307,4.5307,4.5307,4.5307,4.5307,4.5307,4.5307,4.5307,4.5307,4.5307,4.5307,4.5364,4.5965,4.6729,4.7589,4.8449,4.9289,5.0034,5.0225,5.0302,5.0302,4.63,4.63,4.63,4.63,4.63,4.63,4.63,4.63,4.63,4.63,4.63,4.63,4.63,4.63,4.63,4.63,4.6271,4.624,4.6209,4.6177,4.6138,4.6098,4.6071,4.6027,4.6002,4.6002,4.6022,4.605,4.605,4.6052,4.6091,4.6138,4.6145,4.6156,4.6172,4.6205,4.6191,4.6191,4.6195,4.6198,4.6198,4.6203,4.6199,4.6199,4.6199,4.6199,4.6199,4.6199,4.6199,4.6199,4.6199,4.6199,4.6199,4.6199,4.6199,4.6199,4.6199,4.6199,4.6199,4.6199,4.6199,4.6199,4.6199,4.6199,4.6199,4.6199,4.6199,4.6199,4.6199,4.6199,4.6199,4.6199,4.6199,4.6199,4.6199,4.6199,4.6199,4.6199,0.0,4.6199,4.6199,4.6283,4.6526,4.6384,4.677,4.7904,0.0,0.0,4.8468,4.7608,4.671,4.587,4.5488,4.5307,4.5307,4.5307,4.5307,4.5307,4.5307,4.5307,4.5307,4.5307,4.5307,4.5307,4.5307,4.5307,4.5354,4.6175,4.7005,4.7884,4.8754,4.9595,5.0302,5.0302,5.0302,5.0302,4.63,4.63,4.63,4.63,4.63,4.63,4.63,4.63,4.63,4.63,4.63,4.63,4.63,4.63,4.63,4.63,4.6303,4.6277,4.6209,4.6203,4.6174,4.6102,4.6102,4.6069,4.6027,4.6022,4.6067,4.6115,4.6115,4.6145,4.6204,4.6206,4.6191,4.6191,4.6205,4.6204,4.6199,4.6199,4.6198,4.6199,4.6199,4.6199,4.6199,4.6199,4.6199,4.6199,4.6199,4.6199,4.6199,4.6199,4.6199,4.6199,4.6199,4.6199,4.6199,4.6199,4.6199,4.6199,4.6199,4.6199,4.6199,4.6199,4.6199,4.6199,4.6199,4.6199,4.6199,4.6199,4.6199,4.6199,4.6199,4.6199,4.6199,4.6199,4.6199,4.6199,4.6199,0.0,4.6199,4.6199,4.6282,4.6569,4.7115,4.7157,4.7436,4.8116,4.805,4.8048,0.0,4.8056,4.7665,4.692,4.5965,4.5411,4.5307,4.5307,4.5307,4.5307,4.5307,4.5307,4.5307,4.5307,4.5307,4.5307,4.5307,4.5383,4.5545,4.6366,4.7207,4.8086,4.8945,4.9691,5.0302,5.0302,5.0302,5.0302,4.63,4.63,4.63,4.63,4.63,4.63,4.63,4.63,4.63,4.63,4.63,4.63,4.63,4.63,4.63,4.63,4.6294,4.6269,4.6192,4.6203,4.6169,4.6098,4.6092,4.6107,4.6084,4.6139,4.6167,4.6173,4.6173,4.6197,4.6204,4.6191,4.6207,4.6206,4.6199,4.62,4.619,4.619,4.6206,4.6199,4.6199,4.6199,4.6199,4.6199,4.6199,4.6199,4.6199,4.6199,4.6199,4.6199,4.6199,4.6199,4.6199,4.6199,4.6199,4.6199,4.6199,4.6199,4.6199,4.6199,4.6199,4.6199,4.6199,4.6199,4.6199,4.6199,4.6199,4.6199,4.6199,4.6199,4.6199,4.6199,4.6199,4.6199,4.6199,4.6199,4.6199,0.0,4.6199,4.6199,4.6692,4.7031,4.7034,4.7524,4.8145,4.8859,4.8911,4.9194,4.9882,4.927,4.8842,4.8708,4.715,4.5984,4.5307,4.5307,4.5307,4.5307,4.5307,4.5307,4.5307,4.5307,4.5307,4.5307,4.5307,4.5679,4.6385,4.7234,4.8105,4.8984,4.9805,5.0187,5.0302,5.0302,5.0302,5.0302,4.63,4.63,4.63,4.63,4.63,4.63,4.63,4.63,4.6305,4.6297,4.6299,4.6282,4.6249,4.6249,4.6249,4.6249,4.6289,4.6267,4.6194,4.6228,4.6218,4.6155,4.6147,4.6145,4.6153,4.6173,4.6192,4.6205,4.6205,4.6228,4.625,4.6216,4.62,4.6199,4.6209,4.6199,4.6199,4.6199,4.6199,4.6199,4.6199,4.6199,4.6199,4.6199,4.6199,4.6199,4.6199,4.6199,4.6199,4.6199,4.6199,4.6199,4.6199,4.6199,4.6199,4.6199,4.6199,4.6199,4.6199,4.6199,4.6199,4.6199,4.6199,4.6199,4.6199,4.6199,4.6199,4.6199,4.6199,4.6199,4.6199,4.6199,4.6199,4.6199,4.6199,0.0,0.0,4.6608,4.6897,4.6897,4.7495,4.8011,4.8314,4.8561,4.8979,4.9694,4.9748,4.9901,5.0283,4.9939,4.9538,4.911,4.7417,4.6118,4.5307,4.5307,4.5307,4.5307,4.5307,4.5307,4.5307,4.5307,4.5307,4.5307,4.5307,4.5755,4.6577,4.7444,4.8315,4.9186,4.9996,5.0302,5.0302,5.0302,5.0302,5.0302,4.6835,4.6719,4.6584,4.6589,4.6415,4.6277,4.6277,4.6277,4.6282,4.6289,4.6289,4.6269,4.6205,4.6204,4.6204,4.6204,4.6265,4.6287,4.623,4.6269,4.6269,4.6201,4.6205,4.6205,4.6222,4.6222,4.6228,4.6229,4.6229,4.6243,4.63,4.6238,4.6206,4.6206,4.6193,4.6199,4.6199,4.6199,4.6199,4.6199,4.6199,4.6199,4.6199,4.6199,4.6199,4.6199,4.6199,4.6199,4.6199,4.6199,4.6199,4.6199,4.6199,4.6199,4.6199,4.6199,4.6199,4.6199,4.6199,4.6199,4.6199,4.6199,4.6199,4.6199,4.6199,4.6199,4.6199,4.6199,4.6199,4.6199,4.6199,4.6199,4.6199,4.6199,0.0,0.0,0.0,4.7248,4.7786,4.7747,4.831,4.8916,4.9412,4.9499,4.9752,5.0256,5.0302,5.0302,5.0302,5.0302,4.992,4.9129,4.7417,4.6194,4.5583,4.5392,4.5307,4.5307,4.5307,4.5307,4.5307,4.5307,4.5307,4.5307,4.5488,4.6042,4.6882,4.7742,4.8602,4.9442,5.0054,5.0302,5.0302,5.0302,5.0302,5.0302,4.8472,4.7966,4.7402,4.7418,4.6733,4.6207,4.6207,4.6207,4.6206,4.6205,4.6205,4.6205,4.6204,4.6204,4.6204,4.6204,4.6258,4.6295,4.6296,4.6309,4.6266,4.6207,4.6207,4.6229,4.6288,4.6288,4.6287,4.6285,4.6285,4.6303,4.63,4.6238,4.6206,4.6206,4.6193,4.6199,4.6199,4.6199,4.6199,4.6199,4.6199,4.6199,4.6199,4.6199,4.6199,4.6199,4.6199,4.6199,4.6199,4.6199,4.6199,4.6199,4.6199,4.6199,4.6199,4.6199,4.6199,4.6199,4.6199,4.6199,4.6199,4.6199,4.6199,4.6199,4.6199,4.6199,4.6199,4.6199,4.6199,4.6199,4.6199,4.6199,4.6199,4.6199,0.0,0.0,4.7404,4.8144,4.8639,4.8441,4.9026,4.9404,4.9317,4.9865,5.0237,5.0302,5.0302,5.0302,5.0302,5.0302,4.992,4.9129,4.7417,4.6481,4.6405,4.566,4.5307,4.5307,4.5307,4.5307,4.5307,4.5307,4.5307,4.5345,4.6099,4.6901,4.7769,4.864,4.948,5.0225,5.0283,5.0302,5.0302,5.0302,5.0302,5.0302,4.8748,4.8533,4.8141,4.759,4.7238,4.6828,4.6282,4.6204,4.6201,4.6207,4.6204,4.6199,4.6197,4.6194,4.6194,4.6194,4.6223,4.6247,4.6247,4.6277,4.6293,4.6268,4.6263,4.6274,4.6302,4.63,4.63,4.63,4.63,4.63,4.63,4.6238,4.6206,4.6206,4.6193,4.6199,4.6199,4.6199,4.6199,4.6199,4.6199,4.6199,4.6199,4.6199,4.6199,4.6199,4.6199,4.6199,4.6199,4.6199,4.6199,4.6199,4.6199,4.6199,4.6199,4.6199,4.6199,4.6199,4.6199,4.6199,4.6199,4.6199,4.6199,4.6199,4.6199,4.6199,4.6199,4.6199,4.6199,4.6199,4.6199,4.6199,4.6375,4.692,0.0,4.7696,4.8222,4.8952,4.9381,4.9318,4.9823,5.0162,5.0106,5.0227,5.0302,5.0302,5.0302,5.0302,5.0302,5.0302,5.0168,4.9843,4.8716,4.7857,4.7311,4.6481,4.6042,4.6042,4.5545,4.5307,4.5307,4.5307,4.5564,4.6061,4.6366,4.7302,4.8621,4.8945,4.9576,5.0302,5.0302,5.0302,5.0302,5.0302,5.0302,5.0302,4.9534,4.9375,4.9002,4.8388,4.7842,4.7295,4.6692,4.638,4.6197,4.6192,4.6209,4.6198,4.6203,4.6199,4.6199,4.6199,4.6209,4.6206,4.6206,4.6269,4.63,4.63,4.63,4.63,4.63,4.63,4.63,4.63,4.63,4.6298,4.6296,4.6238,4.6206,4.6201,4.6193,4.6199,4.6199,4.6199,4.6199,4.6199,4.6199,4.6199,4.6199,4.6199,4.6199,4.6199,4.6199,4.6199,4.6199,4.6199,4.6199,4.6199,4.6199,4.6199,4.6199,4.6199,4.6199,4.6199,4.6199,4.6199,4.6199,4.6199,4.6199,4.6199,4.6199,4.6199,4.6199,4.6199,4.6199,4.6199,4.6199,4.6414,4.6803,4.7404,4.7907,4.8435,4.9039,4.9685,5.0106,5.0106,5.04,5.0587,5.0587,5.0429,5.0302,5.0302,5.0302,5.0302,5.0302,5.0302,5.0302,5.0302,4.9767,4.9194,4.859,4.7463,4.692,4.6901,4.6061,4.5679,4.5679,4.5679,4.5984,4.6538,4.7073,4.799,4.9129,4.9366,4.9805,5.0302,5.0302,5.0302,5.0302,5.0302,5.0302,5.0302,5.113,5.0655,5.0096,5.0006,4.8612,4.7521,4.7501,4.6764,4.6219,4.6199,4.6199,4.6199,4.6199,4.6199,4.6199,4.6199,4.6209,4.6206,4.6206,4.6269,4.63,4.63,4.63,4.63,4.63,4.63,4.63,4.63,4.63,4.6296,4.6303,4.6233,4.6201,4.6203,4.6206,4.6199,4.6199,4.6199,4.6199,4.6199,4.6199,4.6199,4.6199,4.6199,4.6199,4.6199,4.6199,4.6199,4.6199,4.6199,4.6199,4.6199,4.6199,4.6199,4.6199,4.6199,4.6199,4.6199,4.6199,4.6199,4.6199,4.6199,4.6199,4.6199,4.6199,4.6199,4.6199,4.6199,4.6199,4.6199,4.6199,4.6917,4.7501,4.7501,4.8803,4.9798,4.9817,5.0382,5.079,5.079,5.067,5.0606,5.0606,5.0429,5.0302,5.0302,5.0302,5.0302,5.0302,5.0302,5.0302,5.0302,5.0302,5.0302,5.0302,4.8629,4.7807,4.7788,4.694,4.6519,4.6519,4.6519,4.6519,4.6615,4.8353,4.911,4.9167,4.9977,5.0302,5.0302,5.0302,5.0302,5.0302,5.0302,5.0302,5.0302,5.1252,5.1112,5.0734,5.0116,4.9586,4.8865,4.7676,4.7287,4.6901,4.6277,4.6199,4.6199,4.6199,4.6199,4.6199,4.6199,4.62,4.622,4.6279,4.6286,4.6292,4.63,4.63,4.63,4.63,4.6294,4.631,4.631,4.6243,4.6236,4.6233,4.6217,4.6209,4.6203,4.6206,4.6199,4.6199,4.6199,4.6199,4.6199,4.6199,4.6199,4.6199,4.6199,4.6199,4.6199,4.6199,4.6199,4.6199,4.6199,4.6199,4.6199,4.6199,4.6199,4.6199,4.6199,4.6199,4.6199,4.6199,4.6199,4.6199,4.6199,4.6199,4.6199,4.6199,4.6199,4.6199,4.6199,4.6199,4.6199,4.6199,4.6917,4.7658,4.8132,4.9102,4.9962,5.0453,5.0582,5.0662,5.0662,5.0497,5.0396,5.0396,5.0348,5.0302,5.0302,5.0302,5.0302,5.0302,5.0302,5.0302,5.0302,5.0302,5.0302,5.0302,4.9232,4.8716,4.8697,4.7837,4.7406,4.7406,4.7406,4.7761,4.8353,4.8869,4.9423,4.9958,5.0206,5.0302,5.0302,5.0302,5.0302,5.0302,5.0302,5.0302,5.0302,5.13,5.13,5.1125,5.0618,5.0229,4.9547,4.8222,4.7715,4.7189,4.6316,4.6199,4.6199,4.6199,4.6199,4.6199,4.6199,4.6193,4.6215,4.6258,4.6258,4.6262,4.6269,4.6269,4.6271,4.6294,4.6308,4.6282,4.6258,4.6211,4.6203,4.6198,4.6209,4.62,4.6193,4.6203,4.6199,4.6199,4.6199,4.6199,4.6199,4.6199,4.6199,4.6199,4.6199,4.6199,4.6199,4.6199,4.6199,4.6199,4.6199,4.6199,4.6199,4.6199,4.6199,4.6199,4.6199,4.6199,4.6199,4.6199,4.6199,4.6192,4.6138,4.6154,4.6199,4.6199,4.6199,4.6189,4.6138,4.6111,4.6098,4.6022,4.7038,4.8039,4.8436,4.9526,5.0435,5.0762,5.0678,5.0587,5.0587,5.041,5.0317,5.0418,5.0359,5.0302,5.0302,5.0302,5.0302,5.0302,5.0302,5.0302,5.0302,5.0302,5.0302,5.0302,4.9824,4.9576,4.9557,4.8716,4.8315,4.8315,4.8315,4.8602,4.9129,4.9454,4.9843,5.0302,5.0302,5.0302,5.0302,5.0302,5.0302,5.0302,5.0302,5.0302,5.0302,5.13,5.13,5.13,5.13,5.0638,4.9839,4.9021,4.8164,4.7306,4.6433,4.6258,4.6199,4.6199,4.6199,4.6199,4.6199,4.6193,4.6209,4.6203,4.6206,4.6206,4.6206,4.6206,4.6231,4.6282,4.6282,4.6258,4.6206,4.6203,4.6198,4.6203,4.6203,4.6193,4.6199,4.6199,4.6199,4.6199,4.6199,4.6199,4.6199,4.6199,4.6199,4.6199,4.6199,4.6199,4.6199,4.6199,4.6199,4.6199,4.6199,4.6192,4.6189,4.6196,4.6192,4.6189,4.6196,4.6192,4.6189,4.6189,4.6162,4.6138,4.5993,4.6056,4.6158,4.6158,4.6158,4.6115,4.6007,4.5991,4.5969,4.5848,4.7287,4.8527,4.8574,4.9975,5.0985,5.0774,5.0642,5.0557,5.0557,5.0418,5.0374,5.0567,5.0418,5.0302,5.0302,5.0302,5.0302,5.0302,5.0302,5.0302,5.0302,5.0302,5.0302,5.0302,5.0302,5.0302,5.0283,4.9557,4.9224,4.9224,4.9224,4.9224,4.9263,4.9977,5.0302,5.0302,5.0302,5.0302,5.0302,5.0302,5.0302,5.0302,5.0302,5.0302,5.0302,5.13,5.13,5.13,5.13,5.1145,5.0735,4.9878,4.904,4.8202,4.7326,4.6628,4.6199,4.6199,4.6199,4.6199,4.6199,4.6203,4.6193,4.6209,4.6209,4.6195,4.6206,4.6206,4.6203,4.6215,4.6215,4.6212,4.6209,4.6196,4.6206,4.6203,4.6203,4.6203,4.6199,4.6199,4.6199,4.6199,4.6199,4.6199,4.6199,4.6199,4.6199,4.6199,4.6199,4.6199,4.6199,4.6199,4.6199,4.6199,4.6199,4.6134,4.6071,4.6177,4.6134,4.6051,4.6162,4.6134,4.6037,4.6037,4.5931,4.579,4.5764,4.5796,4.5815,4.5815,4.5815,4.5809,4.5777,4.5896,4.6185,4.6765,4.7767,4.8675,4.9204,5.0088,5.0653,5.0434,5.0377,5.0363,5.0363,5.0337,5.0325,5.0352,5.0337,5.0302,5.0302,5.0302,5.0302,5.0302,5.0302,5.0302,5.0302,5.0302,5.0302,5.0302,5.0302,5.0302,5.0302,5.013,5.0034,5.0034,5.0034,5.0034,5.0054,5.0225,5.0302,5.0302,5.0302,5.0302,5.0302,5.0302,5.0302,5.0302,5.0302,5.0302,5.0302,5.13,5.13,5.13,5.13,5.13,5.1008,5.0131,4.9644,4.8923,4.7657,4.7092,4.6667,4.6258,4.6199,4.6199,4.6199,4.6199,4.6203,4.6193,4.6193,4.6196,4.6206,4.6206,4.6203,4.6193,4.6193,4.6193,4.6193,4.6203,4.6199,4.6199,4.6199,4.6199,4.6199,4.6199,4.6199,4.6199,4.6199,4.6199,4.6199,4.6199,4.6199,4.6199,4.6199,4.6199,4.6199,4.6199,4.6154,4.6093,4.5988,4.5911,4.5865,4.5933,4.5906,4.5871,4.5933,4.5906,4.5853,4.5853,4.5783,4.5689,4.5615,4.5592,4.5615,4.5689,4.5777,4.5828,4.5724,4.5783,4.6087,4.6872,4.7722,4.8543,4.9296,5.0137,5.0643,5.0464,5.0432,5.0418,5.0314,5.0302,5.0302,5.0302,5.0302,5.0302,5.0302,5.0302,5.0302,5.0302,5.0302,5.0302,5.0302,5.0302,5.0302,5.0302,5.0302,5.0302,5.0302,5.0302,5.0302,5.0302,5.0302,5.0302,5.0302,5.0302,5.0302,5.0302,5.0302,5.0302,5.0302,5.0302,5.0302,5.0302,5.0302,5.0302,5.0302,5.13,5.13,5.13,5.13,5.13,5.1067,5.0326,5.0092,4.9508,4.8105,4.7676,4.7209,4.6511,4.6297,4.6199,4.6199,4.6199,4.6199,4.6199,4.6199,4.6199,4.6199,4.6199,4.6199,4.6199,4.6199,4.6199,4.6203,4.6203,4.6203,4.6203,4.6203,4.6199,4.6199,4.6199,4.6199,4.6199,4.6199,4.6189,4.6177,4.6177,4.615,4.6119,4.6119,4.6119,4.6119,4.6119,4.6144,4.6166,4.6151,4.6126,4.6093,4.6141,4.6126,4.6093,4.6141,4.6126,4.6085,4.6085,4.609,4.6036,4.5923,4.5878,4.5923,4.6036,4.5975,4.588,4.5902,4.5899,4.6163,4.7055,4.7817,4.8576,4.9394,5.0179,5.0668,5.0557,5.0557,5.0485,5.0325,5.0302,5.0302,5.0302,5.0302,5.0302,5.0314,5.0302,5.0302,5.0314,5.0302,5.0302,5.0302,5.0302,5.0302,5.0302,5.0302,5.0302,5.0302,5.0302,5.0302,5.0302,5.0302,5.0302,5.0302,5.0302,5.0302,5.0302,5.0302,5.0302,5.0302,5.0302,5.0302,5.0302,5.0302,5.0302,5.0302,5.13,5.13,5.13,5.13,5.13,5.1261,5.1145,5.0482,4.9917,4.9683,4.8397,4.7462,4.7345,4.6647,4.6199,4.6199,4.6199,4.6199,4.6199,4.6199,4.6199,4.6199,4.6199,4.6199,4.6199,4.6199,4.6206,4.62,4.62,4.62,4.62,4.62,4.6193,4.6199,4.6199,4.6199,4.6199,4.6199,4.6138,4.6022,4.6022,4.5925,4.5764,4.5764,4.5764,4.5764,4.5764,4.6228,4.6975,4.77,4.783,4.7727,4.7898,4.7822,4.7708,4.7898,4.7822,4.7681,4.7681,4.7597,4.7512,4.748,4.7499,4.748,4.7512,4.6424,4.563,4.6479,4.6651,4.7132,4.8682,4.9058,4.9423,5.0279,5.0398,5.0374,5.034,5.0329,5.0337,5.0302,5.0302,5.0302,5.0302,5.0302,5.0325,5.039,5.0325,5.0325,5.039,5.0325,5.0302,5.0302,5.0302,5.0302,5.0302,5.0302,5.0302,5.0302,5.0302,5.0302,5.0302,5.0302,5.0302,5.0302,5.0302,5.0302,5.0302,5.0302,5.0302,5.0302,5.0302,5.0302,5.0302,5.0302,5.0302,5.0302,5.13,5.13,5.13,5.13,5.13,5.13,5.13,5.0969,5.056,5.0053,4.9352,4.8729,4.828,4.7443,4.6725,4.6238,4.6199,4.6199,4.6199,4.6199,4.6199,4.6199,4.6199,4.6199,4.6199,4.6199,4.6165,4.6084,4.6091,4.6127,4.6209,4.6127,4.6098,4.6089,4.6089,4.6037,4.5922,4.5922,4.5889,4.588,4.6358,4.6513,4.6489,4.6965,4.7158,4.7144,4.7039,4.7229,4.7617,4.7914,4.7952,4.7891,4.7981,4.7952,4.791,4.7981,4.7971,4.79,4.79,4.7846,4.7788,4.7788,4.7788,4.7821,4.7891,4.7274,4.6851,4.7357,4.7472,4.7856,4.9077,4.9229,4.9463,5.0306,5.0352,5.0302,5.0302,5.0302,5.0314,5.0348,5.0367,5.0367,5.0367,5.0382,5.0412,5.0401,5.0412,5.0412,5.0401,5.0412,5.0371,5.0302,5.0337,5.0337,5.0302,5.0302,5.0302,5.0302,5.0302,5.0302,5.0302,5.0302,5.0302,5.0302,5.0302,5.0302,5.0302,5.0302,5.0302,5.0302,5.0302,5.0302,5.0302,5.0302,5.0302,5.0302]}]]